     2              OBSERVATION DATA    GPS                 RINEX VERSION / TYPE
ASRINEXO V2.9.7 UX USGS/MENLO_PARK 30-JAN-02 11:13          PGM / RUN BY / DATE
                                                            COMMENT
BIT 2 OF LLI (+4) FLAGS DATA COLLECTED UNDER "AS" CONDITION COMMENT
BIT 2 OF LLI (+4) FLAGS DATA COLLECTED UNDER "AS" CONDITION COMMENT
BIT 2 OF LLI (+4) FLAGS DATA COLLECTED UNDER "AS" CONDITION COMMENT
BIT 2 OF LLI (+4) FLAGS DATA COLLECTED UNDER "AS" CONDITION COMMENT
BIT 2 OF LLI (+4) FLAGS DATA COLLECTED UNDER "AS" CONDITION COMMENT
BIT 2 OF LLI (+4) FLAGS DATA COLLECTED UNDER "AS" CONDITION COMMENT
BIT 2 OF LLI (+4) FLAGS DATA COLLECTED UNDER "AS" CONDITION COMMENT
BIT 2 OF LLI (+4) FLAGS DATA COLLECTED UNDER "AS" CONDITION COMMENT
Original Marker Name: lae4 LAPE4__T8nR6e_S34S35_1974_SBCo   COMMENT
Campaign Name: USGS Mojave 2002                             COMMENT
4-Character Station Name: LAE4                              COMMENT
6-Character Antenna Code: DMRCHT                            COMMENT
Vertical Measurement Point: BCR                             COMMENT
Vertical Offset to Rinex Ref. Point: 0.0348                 COMMENT
Radial Measurement Point: ECF                               COMMENT
Radial Offset to Rinex Ref. Point: 0.1897                   COMMENT
Antenna Height from Field Measurement: 1.2440 m             COMMENT
Additional Antenna Identification Info.:                    COMMENT
Turborogue and Ashtech Choke Ring                           COMMENT
Original XYZ: -2327549.3634 -4703410.8236 3614035.8528      COMMENT
New XYZ position is based on association with SCEC monument COMMENT
E1F2L0E7+0011. Position of that monument is believed to be  COMMENT
valid to within 1 m horizontally; vertical accuracy         COMMENT
should be no worse than 3-times this value.                 COMMENT
                                                            COMMENT
Revised Rinex header created by UCSD GPS archive for        COMMENT
GSAC on 27-Jun-2003 (2003:178) 16:04:20 GMT                 COMMENT
For assistance contact dagnew@ucsd.edu                      COMMENT
or anderson@python.ucsd.edu                                 COMMENT
                                                            COMMENT
T8NR6E S34 S35 S3 S2 T7N 1974                               MARKER NAME
GDH SAN BERNADINO COUNTY                                    OBSERVER / AGENCY
LP020000801 ASHTECH Z-XII3 CD00                             REC # / TYPE / VERS
CR14244 DORNE-MARGOL. TYPE T                                ANT # / TYPE
 -2327539.9032 -4703389.9571  3614017.2523                  APPROX POSITION XYZ
        1.1947        0.0000        0.0000                  ANTENNA: DELTA H/E/N
     1     1     0                                          WAVELENGTH FACT L1/2
     5    C1    L1    L2    P1    P2                        # / TYPES OF OBSERV
    30                                                      INTERVAL
  2002     1    25     0     1   30.000000                  TIME OF FIRST OBS
  2002     1    25    23    59    0.000000                  TIME OF LAST OBS
                                                            END OF HEADER
 02  1 25  0  1 30.0000000  0  7 09 24 05 06 10 30 04
  24544256.455    -3967164.055 8  -2607620.85445  24544256.055    24544276.5644
  21409472.442   -21582961.852 9 -16558425.28547  21409472.071    21409483.2534
  20258277.012   -26682966.399 9 -20782336.59348  20258276.317    20258286.1114
  23081630.565   -13451214.909 8 -10309403.71646  23081630.191    23081644.8384
  21527031.890   -17457421.668 9 -13592369.96647  21527030.907    21527043.4914
  20867890.524   -23554667.156 9 -18331815.23447  20867890.630    20867900.6294
  24122185.443    -6136947.134 8  -4550532.69545  24122185.419    24122201.2094
 02  1 25  0  2  0.0000000  0  7 09 24 05 06 10 30 04
  24561603.023    -3876008.159 8  -2536590.58945  24561602.676    24561623.2684
  21421392.380   -21520322.194 9 -16509615.18347  21421392.019    21421403.2044
  20262096.747   -26662893.549 9 -20766695.40848  20262096.053    20262105.8514
  23068681.450   -13519261.384 8 -10362426.70246  23068681.234    23068695.8114
  21514252.119   -17524579.317 9 -13644700.47247  21514251.124    21514263.6724
  20858238.406   -23605388.781 9 -18371338.48647  20858238.522    20858248.5194
  24140984.379    -6038158.034 7  -4473554.31345  24140984.375    24141000.2104
 02  1 25  0  2 30.0000000  0  7 09 24 05 06 10 30 04
  24578939.117    -3784907.442 8  -2465603.31445  24578938.714    24578959.4674
  21433358.626   -21457439.220 9 -16460615.47947  21433358.265    21433369.4494
  20266019.119   -26642281.367 9 -20750633.96048  20266018.427    20266028.2104
  23055739.516   -13587271.487 8 -10415421.39346  23055739.244    23055753.5514
  21501561.010   -17591271.022 9 -13696667.90947  21501560.020    21501572.5224
  20848677.071   -23655633.617 9 -18410490.22047  20848677.181    20848687.1494
  24159783.523    -5939367.857 7  -4396575.08745  24159783.510    24159799.5494
 02  1 25  0  3  0.0000000  0  7 09 24 05 06 10 30 04
  24596264.207    -3693864.419 8  -2394660.99345  24596263.820    24596284.6744
  21445370.770   -21394315.100 9 -16411427.86847  21445370.419    21445381.5904
  20270044.053   -26621130.133 9 -20734152.47648  20270043.361    20270053.1534
  23042804.411   -13655244.950 8 -10468387.52246  23042804.109    23042818.4174
  21488959.088   -17657494.137 9 -13748270.21647  21488958.114    21488970.5694
  20839206.850   -23705399.698 9 -18449268.90047  20839206.957    20839216.8954
  24178582.570    -5840578.552 7  -4319596.53545  24178582.605    24178598.6164
 02  1 25  0  3 30.0000000  0  7 09 24 05 06 10 30 04
  24613577.854    -3602881.669 8  -2323765.65045  24613577.455    24613598.4224
  21457428.329   -21330952.155 9 -16362054.15547  21457427.972    21457439.1444
  20274171.549   -26599440.023 9 -20717251.08548  20274170.854    20274180.6374
  23029876.354   -13723181.313 8 -10521324.70746  23029876.078    23029890.4184
  21476446.886   -17723245.591 9 -13799504.99647  21476445.916    21476458.3554
  20829828.121   -23754684.754 9 -18487672.75147  20829828.220    20829838.1644
  24197381.313    -5741791.427 7  -4242619.68845  24197381.222    24197397.1094
 02  1 25  0  4  0.0000000  0  7 09 24 05 06 10 30 04
  24630879.509    -3511962.260 8  -2252919.66945  24630879.017    24630900.0974
  21469530.921   -21267352.762 9 -16312496.20047  21469530.563    21469541.7594
  20278401.493   -26577211.483 9 -20699930.14348  20278400.785    20278410.5724
  23016955.492   -13791080.636 8 -10574233.06646  23016955.224    23016969.4244
  21464024.817   -17788523.446 9 -13850370.73747  21464023.856    21464036.2414
  20820541.268   -23803487.365 9 -18525700.67547  20820541.369    20820551.2734
  24216179.167    -5643008.647 7  -4165646.21145  24216179.088    24216194.9474
 02  1 25  0  4 30.0000000  0  7 09 24 05 06 10 30 04
  24648168.545    -3421109.039 8  -2182125.26345  24648168.078    24648189.2014
  21481678.085   -21203518.909 9 -16262755.54747  21481677.744    21481688.9414
  20282733.868   -26554444.772 9 -20682189.84148  20282733.156    20282742.9524
  23004041.614   -13858942.586 8 -10627112.30946  23004041.324    23004055.3914
  21451693.420   -17853325.046 9 -13900865.36747  21451692.443    21451704.7944
  20811346.545   -23851805.455 9 -18563351.04647  20811346.655    20811356.5404
  24234975.875    -5544231.883 7  -4088677.43845  24234975.765    24234991.6554
 02  1 25  0  5  0.0000000  0  7 09 24 05 06 10 30 04
  24665444.577    -3330324.036 8  -2111384.01645  24665444.198    24665465.3274
  21493869.587   -21139452.352 9 -16212833.57247  21493869.234    21493880.4404
  20287168.668   -26531139.620 9 -20664029.98048  20287167.966    20287177.7504
  22991134.997   -13926765.982 8 -10679961.50046  22991134.719    22991148.7804
  21439453.191   -17917647.359 9 -13950986.52647  21439452.226    21439464.5234
  20802244.525   -23899636.510 9 -18600621.91447  20802244.616    20802254.4734
  24253771.197    -5445462.425 7  -4011714.30845  24253771.025    24253786.8014
 02  1 25  0  5 30.0000000  0  7 09 24 05 06 10 30 04
  24682707.093    -3239610.016 7  -2040698.08845  24682706.787    24682727.9844
  21506104.972   -21075155.058 9 -16162731.79747  21506104.594    21506115.8214
  20291705.859   -26507296.492 9 -20645450.91548  20291705.175    20291714.9544
  22978235.917   -13994550.620 8 -10732780.50046  22978235.629    22978249.6694
  21427304.664   -17981487.697 9 -14000732.11947  21427303.697    21427315.9734
  20793235.589   -23946978.505 9 -18637511.69647  20793235.693    20793245.5464
  24272564.805    -5346701.810 8  -3934758.10245  24272564.642    24272580.6094
 02  1 25  0  6  0.0000000  0  7 09 24 05 06 10 30 04
  24699955.555    -3148970.115 7  -1970069.90645  24699955.236    24699976.5394
  21518383.728   -21010629.798 9 -16112452.38447  21518383.353    21518394.5824
  20296345.292   -26482916.111 9 -20626453.21248  20296344.583    20296354.3734
  22965344.183   -14062296.588 8 -10785569.37746  22965343.874    22965357.8484
  21415248.337   -18044843.643 9 -14050100.25947  21415247.373    21415259.6244
  20784319.965   -23993829.842 9 -18674019.14247  20784320.075    20784329.9364
  24291356.318    -5247952.114 8  -3857810.38345  24291356.253    24291372.1544
 02  1 25  0  6 30.0000000  0  7 09 24 05 06 10 30 04
  24717189.586    -3058406.226 7  -1899500.95145  24717189.345    24717210.6194
  21530705.602   -20945877.999 9 -16061996.45247  21530705.253    21530716.4634
  20301086.994   -26457998.155 9 -20607036.62048  20301086.300    20301096.0954
  22952459.807   -14130002.884 8 -10838327.36446  22952459.553    22952473.4694
  21403284.705   -18107712.443 9 -14099088.81047  21403283.745    21403295.9734
  20775498.247   -24040187.988 9 -18710142.28947  20775498.352    20775508.1734
  24310145.624    -5149214.349 8  -3780871.95745  24310145.506    24310161.3684
 02  1 25  0  7  0.0000000  0  7 09 24 05 06 10 30 04
  24734408.530    -2967921.351 7  -1828993.57645  24734408.255    24734429.5144
  21543070.118   -20880902.198 9 -16011365.96847  21543069.733    21543080.9434
  20305930.874   -26432543.358 9 -20587201.71048  20305930.187    20305939.9854
  22939583.209   -14197669.641 8 -10891054.52346  22939582.928    22939596.7414
  21391414.219   -18170091.623 9 -14147695.84247  21391413.273    21391425.4934
  20766770.613   -24086051.565 9 -18745880.05447  20766770.724    20766780.5124
  24328932.224    -5050490.565 8  -3703944.42445  24328932.171    24328948.0914
 02  1 25  0  7 30.0000000  0  7 09 24 05 06 10 30 04
  24751611.871    -2877517.941 7  -1758549.69245  24751611.675    24751633.0874
  21555476.919   -20815704.221 9 -15960562.36747  21555476.524    21555487.7174
  20310876.922   -26406551.674 9 -20566948.45148  20310876.223    20310886.0174
  22926714.218   -14265296.213 8 -10943750.36446  22926713.857    22926727.6994
  21379637.435   -18231978.565 9 -14195919.31747  21379636.496    21379648.6664
  20758137.600   -24131418.098 9 -18781230.51547  20758137.700    20758147.4834
  24347715.901    -4951782.060 8  -3627028.79945  24347715.927    24347731.8804
 02  1 25  0  8  0.0000000  0  7 09 24 05 06 10 30 04
  24768799.357    -2787198.123 7  -1688170.95545  24768799.167    24768820.7414
  21567925.553   -20750286.183 9 -15909587.29247  21567925.166    21567936.3694
  20315925.092   -26380023.433 9 -20546277.09548  20315924.398    20315934.1734
  22913852.907   -14332881.845 8 -10996414.32046  22913852.600    22913866.3824
  21367954.859   -18293370.420 9 -14243757.00547  21367953.914    21367966.0494
  20749599.551   -24176285.571 9 -18816192.10547  20749599.651    20749609.3874
  24366496.490    -4853090.099 8  -3550126.07045  24366496.475    24366512.5124
 02  1 25  0  8 30.0000000  0  7 09 24 05 06 10 30 04
  24785970.342    -2696965.552 7  -1617860.18345  24785970.119    24785991.7864
  21580415.602   -20684650.585 9 -15858442.68647  21580415.199    21580426.4124
  20321075.081   -26352959.986 9 -20525188.69548  20321074.393    20321084.1654
  22900999.449   -14400426.871 8 -11049046.67446  22900999.148    22901012.7424
  21356366.810   -18354265.518 9 -14291207.61347  21356365.856    21356377.9734
  20741156.684   -24220652.812 9 -18850763.90047  20741156.776    20741166.4894
  24385273.466    -4754417.216 8  -3473238.21245  24385273.416    24385289.4854
 02  1 25  0  9  0.0000000  0  7 09 24 05 06 10 30 04
  24803124.355    -2606822.237 7  -1547618.94845  24803124.064    24803145.7344
  21592946.752   -20618799.043 9 -15807129.81647  21592946.364    21592957.5764
  20326326.959   -26325361.215 9 -20503683.16448  20326326.267    20326336.0394
  22888153.768   -14467930.389 8 -11101646.66046  22888153.471    22888167.0784
  21344873.837   -18414661.023 9 -14338268.93047  21344872.902    21344884.9674
  20732809.424   -24264517.459 9 -18884944.06747  20732809.525    20732819.2304
  24404046.625    -4655764.502 8  -3396366.07945  24404046.480    24404062.6564
 02  1 25  0  9 30.0000000  0  7 09 24 05 06 10 30 04
  24820260.833    -2516770.069 7  -1477448.74845  24820260.571    24820282.3354
  21605518.625   -20552733.433 9 -15755650.14047  21605518.251    21605529.4664
  20331680.770   -26297226.940 9 -20481760.35648  20331680.071    20331689.8424
  22875316.126   -14535391.556 8 -11154213.64246  22875315.838    22875329.5534
  21333476.589   -18474553.565 9 -14384938.32547  21333475.652    21333487.6774
  20724558.287   -24307877.165 9 -18918730.77047  20724558.397    20724568.0644
  24422815.558    -4557132.781 8  -3319510.28045  24422815.527    24422831.7784
 02  1 25  0 10  0.0000000  0  7 09 24 05 06 10 30 04
  24837379.435    -2426812.340 7  -1407352.09445  24837379.120    24837401.0214
  21618130.728   -20486456.334 9 -15704005.67247  21618130.370    21618141.5954
  20337136.235   -26268558.253 9 -20459421.12648  20337135.554    20337145.3074
  22862486.686   -14602810.346 8 -11206747.63246  22862486.430    22862499.9654
  21322175.359   -18533941.329 9 -14431214.38647  21322174.426    21322186.4434
  20716403.471   -24350730.700 9 -18952123.05447  20716403.572    20716413.2284
  24441580.146    -4458524.298 7  -3242672.59545  24441580.236    24441596.4204
 02  1 25  0 10 30.0000000  0  7 09 24 05 06 10 30 04
  24854479.618    -2336951.536 7  -1337330.96845  24854479.432    24854501.3044
  21630782.690   -20419969.896 9 -15652198.08247  21630782.301    21630793.5654
  20342693.281   -26239355.769 9 -20436665.95148  20342692.587    20342702.3524
  22849665.302   -14670186.427 8 -11259248.32046  22849665.046    22849678.5334
  21310970.635   -18592822.097 9 -14477095.38847  21310969.703    21310981.6944
  20708345.356   -24393075.982 9 -18985119.30347  20708345.461    20708355.0834
  24460340.106    -4359940.562 7  -3165854.19945  24460340.169    24460356.3374
 02  1 25  0 11  0.0000000  0  7 09 24 05 06 10 30 04
  24871560.801    -2247189.889 7  -1267387.12945  24871560.687    24871582.5614
  21643474.198   -20353275.758 9 -15600228.65747  21643473.805    21643485.0704
  20348351.893   -26209619.520 9 -20413494.85848  20348351.210    20348360.9644
  22836852.127   -14737519.288 8 -11311715.32246  22836851.877    22836865.4074
  21299862.873   -18651193.192 9 -14522579.24047  21299861.933    21299873.9074
  20700384.366   -24434911.122 9 -19017718.04947  20700384.452    20700394.0624
  24479095.176    -4261382.715 7  -3089055.96545  24479095.235    24479111.3884
 02  1 25  0 11 30.0000000  0  7 09 24 05 06 10 30 04
  24888622.703    -2157530.559 7  -1197523.00145  24888622.435    24888644.2684
  21656204.718   -20286376.442 9 -15548099.34647  21656204.352    21656215.6214
  20354111.908   -26179350.606 9 -20389908.70148  20354111.212    20354120.9654
  22824047.362   -14804808.703 8 -11364148.48846  22824047.091    22824060.5414
  21288852.492   -18709052.780 9 -14567664.51547  21288851.545    21288863.4964
  20692520.671   -24476234.554 9 -19049918.05647  20692520.786    20692530.3834
  24497844.754    -4162852.911 7  -3012279.59645  24497844.825    24497861.0684
 02  1 25  0 12  0.0000000  0  7 09 24 05 06 10 30 04
  24905664.636    -2067975.571 7  -1127740.19645  24905664.367    24905686.3074
  21668974.025   -20219273.390 9 -15495811.28247  21668973.652    21668984.9124
  20359973.245   -26148548.979 9 -20365907.44248  20359972.554    20359982.3094
  22811250.911   -14872053.586 8 -11416546.96546  22811250.621    22811264.0394
  21277940.063   -18766397.538 9 -14612348.62147  21277939.089    21277951.0164
  20684754.878   -24517043.936 9 -19081717.50547  20684754.982    20684764.5114
  24516588.837    -4064351.961 7  -2935525.71445  24516589.039    24516605.2904
 02  1 25  0 12 30.0000000  0  7 09 24 05 06 10 30 04
  24922686.238    -1978527.757 7  -1058040.89445  24922685.923    24922707.8704
  21681781.654   -20151968.948 9 -15443366.28947  21681781.285    21681792.5474
  20365935.825   -26117215.411 9 -20341491.68848  20365935.126    20365944.8834
  22798463.054   -14939253.667 8 -11468910.50746  22798462.713    22798476.1744
  21267125.989   -18823225.432 9 -14656629.97647  21267125.006    21267136.9194
  20677087.188   -24557337.738 9 -19113115.20547  20677087.301    20677096.8284
  24535327.100    -3965881.430 7  -2858795.52445  24535327.236    24535343.6264
 02  1 25  0 13  0.0000000  0  7 09 24 05 06 10 30 04
  24939687.003    -1889189.611 8   -988427.03945  24939686.644    24939708.7934
  21694627.182   -20084465.342 9 -15390766.10547  21694626.822    21694638.0814
  20371999.482   -26085350.753 9 -20316662.09848  20371998.769    20372008.5434
  22785683.839   -15006408.651 8 -11521238.90946  22785683.460    22785696.9254
  21256410.738   -18879534.049 9 -14700506.70347  21256409.774    21256421.6454
  20669517.903   -24597114.133 9 -19144109.73147  20669518.011    20669527.5494
  24554059.295    -3867442.919 7  -2782090.27945  24554059.348    24554075.8844
 02  1 25  0 13 30.0000000  0  7 09 24 05 06 10 30 04
  24956666.380    -1799963.502 8   -918900.50445  24956666.119    24956688.3414
  21707510.313   -20016764.201 9 -15338011.99747  21707509.943    21707521.1994
  20378164.135   -26052955.436 9 -20291419.00748  20378163.421    20378173.1954
  22772913.130   -15073517.898 8 -11573531.66346  22772912.791    22772926.2534
  21245794.699   -18935321.210 9 -14743977.10347  21245793.743    21245805.5734
  20662047.449   -24636371.535 9 -19174699.85648  20662047.552    20662057.0264
  24572785.352    -3769038.040 7  -2705411.24945  24572785.315    24572801.9584
 02  1 25  0 14  0.0000000  0  7 09 24 05 06 10 30 04
  24973623.985    -1710852.035 8   -849463.31945  24973623.609    24973646.0464
  21720430.628   -19948867.772 9 -15285105.71747  21720430.259    21720441.5084
  20384429.579   -26020030.152 9 -20265762.95548  20384428.883    20384438.6614
  22760151.385   -15140580.771 8 -11625788.29746  22760151.075    22760164.4504
  21235278.352   -18990584.523 9 -14787039.31947  21235277.393    21235289.1844
  20654676.132   -24675107.877 9 -19204883.95748  20654676.215    20654685.6884
  24591504.548    -3670668.117 7  -2628759.41445  24591504.656    24591521.1514
 02  1 25  0 14 30.0000000  0  7 09 24 05 06 10 30 04
  24990559.346    -1621857.525 8   -780117.23645  24990559.005    24990581.5244
  21733387.639   -19880778.192 9 -15232048.93447  21733387.289    21733398.5434
  20390795.798   -25986575.582 9 -20239694.47348  20390795.096    20390804.8614
  22747398.602   -15207596.816 8 -11678008.43246  22747398.244    22747411.6244
  21224862.087   -19045321.881 9 -14829691.69747  21224861.125    21224872.8914
  20647404.191   -24713321.722 9 -19234660.91648  20647404.309    20647413.7764
  24610216.836    -3572334.584 7  -2552135.92945  24610216.862    24610233.4934
 02  1 25  0 15  0.0000000  0  8 09 24 05 06 10 30 04 23
  25007471.807    -1532983.436 8   -710864.99145  25007471.427    25007494.0984
  21746380.824   -19812498.708 9 -15178844.16747  21746380.474    21746391.7394
  20397262.450   -25952593.175 9 -20213214.68848  20397261.749    20397271.5064
  22734654.560   -15274566.298 8 -11730192.26746  22734654.227    22734667.6584
  21214546.231   -19099531.766 9 -14871933.05847  21214545.276    21214556.9994
  20640231.946   -24751012.027 9 -19264029.92448  20640232.045    20640241.4774
  24628921.841    -3474039.699 8  -2475542.55245  24628921.852    24628938.3554
  24487106.219    -2019306.533 8  -1550170.49645  24487105.380    24487127.5754
 02  1 25  0 15 30.0000000  0  8 09 24 05 06 10 30 04 23
  25024360.806    -1444232.231 8   -641708.50845  25024360.406    25024383.1494
  21759409.899   -19744030.673 9 -15125492.48047  21759409.544    21759420.8254
  20403829.421   -25918083.674 9 -20186324.18048  20403828.713    20403838.4714
  22721919.516   -15341488.737 8 -11782339.46546  22721919.193    22721932.4774
  21204331.144   -19153211.900 9 -14913761.62447  21204330.188    21204341.8944
  20633159.656   -24788177.072 9 -19292989.63948  20633159.751    20633169.1484
  24647619.329    -3375784.900 8  -2398980.39645  24647619.218    24647635.5754
  24467023.070    -2124843.191 7  -1632406.49145  24467022.323    24467044.3264
 02  1 25  0 16  0.0000000  0  8 09 24 05 06 10 30 04 23
  25041226.249    -1355605.027 8   -572648.67345  25041225.849    25041248.6384
  21772474.749   -19675374.486 9 -15071994.17747  21772474.390    21772485.6694
  20410496.833   -25883046.290 9 -20159022.33748  20410496.128    20410505.8694
  22709193.853   -15408362.042 8 -11834448.37146  22709193.523    22709206.7424
  21194217.668   -19206358.356 9 -14955174.33947  21194216.709    21194228.3634
  20626187.878   -24824813.648 9 -19321537.56048  20626187.977    20626197.3814
  24666309.125    -3277570.001 8  -2322449.31945  24666308.970    24666325.3004
  24446939.337    -2230383.273 8  -1714645.14545  24446938.567    24446960.5104
 02  1 25  0 16 30.0000000  0  7 24 05 06 10 30 04 23
  21785575.196   -19606531.372 9 -15018350.21347  21785574.840    21785586.1164
  20417264.776   -25847480.451 9 -20131308.71148  20417264.072    20417273.8264
  22696477.832   -15475184.420 8 -11886517.57946  22696477.546    22696490.7764
  21184206.372   -19258967.519 9 -14996168.37947  21184205.420    21184217.0484
  20619317.297   -24860918.771 9 -19349671.36548  20619317.394    20619326.7724
  24684991.169    -3179395.192 8  -2245949.45845  24684991.006    24685007.3514
  24426855.694    -2335922.856 8  -1796883.40845  24426854.931    24426876.7584
 02  1 25  0 17  0.0000000  0  7 24 05 06 10 30 04 23
  21798710.683   -19537504.089 9 -14964562.74747  21798710.327    21798721.5864
  20424132.994   -25811387.738 9 -20103184.53248  20424132.287    20424142.0464
  22683771.549   -15541956.076 8 -11938547.27146  22683771.252    22683784.3384
  21174297.599   -19311038.165 9 -15036742.79847  21174296.620    21174308.2404
  20612547.918   -24896491.751 9 -19377390.50548  20612548.010    20612557.3874
  24703665.194    -3081262.455 8  -2169482.36545  24703665.138    24703681.2904
  24406772.412    -2441460.093 7  -1879119.86745  24406771.515    24406793.2654
 02  1 25  0 17 30.0000000  0  7 24 05 06 10 30 04 23
  21811880.576   -19468296.084 9 -14910634.45647  21811880.199    21811891.4924
  20431101.026   -25774770.720 9 -20074651.80448  20431100.323    20431110.0744
  22671074.574   -15608678.382 8 -11990538.50946  22671074.252    22671087.3254
  21164491.266   -19362570.340 9 -15076897.64147  21164490.288    21164501.8724
  20605879.816   -24931532.584 9 -19404694.98548  20605879.936    20605889.2704
  24722330.651    -2983175.282 8  -2093050.80545  24722330.496    24722346.6854
  24386689.689    -2546994.272 7  -1961353.92345  24386688.927    24386710.4354
 02  1 25  0 18  0.0000000  0  7 24 05 06 10 30 04 23
  21825084.504   -19398909.014 9 -14856566.62747  21825084.129    21825095.4344
  20438168.739   -25737629.769 9 -20045710.81748  20438168.031    20438177.7824
  22658387.181   -15675350.229 8 -12042490.41146  22658386.905    22658399.9784
  21154787.985   -19413560.981 9 -15116630.51747  21154787.016    21154798.5674
  20599313.438   -24966039.132 9 -19431583.14148  20599313.532    20599322.8194
  24740987.286    -2885134.310 8  -2016655.24945  24740987.111    24741003.2194
  24366608.123    -2652522.112 7  -2043583.06045  24366607.509    24366628.8444
 02  1 25  0 18 30.0000000  0  6 24 05 06 10 30 23
  21838322.141   -19329344.694 9 -14802360.68547  21838321.774    21838333.0984
  20445335.944   -25699965.892 9 -20016362.35348  20445335.229    20445344.9954
  22645709.549   -15741971.143 8 -12094402.63046  22645709.252    22645722.2494
  21145188.164   -19464008.006 9 -15155939.80947  21145187.192    21145198.7044
  20592848.983   -25000009.895 9 -19458053.80648  20592849.067    20592858.3534
  24346528.281    -2758040.773 7  -2125805.03845  24346527.710    24346549.0704
 02  1 25  0 19  0.0000000  0  6 24 05 06 10 30 23
  21851593.144   -19259605.021 9 -14748018.10447  21851592.777    21851604.1174
  20452602.576   -25661779.521 9 -19986606.75648  20452601.868    20452611.6374
  22633041.703   -15808540.300 8 -12146274.53046  22633041.432    22633054.3374
  21135692.223   -19513909.265 9 -15194823.81947  21135691.236    21135702.7154
  20586486.782   -25033443.157 9 -19484105.63848  20586486.872    20586496.1504
  24326450.739    -2863547.637 7  -2208017.81245  24326450.070    24326471.3024
 02  1 25  0 19 30.0000000  0  6 24 05 06 10 30 23
  21864897.147   -19189692.154 9 -14693540.56047  21864896.787    21864908.0984
  20459968.432   -25623071.613 9 -19956444.76448  20459967.729    20459977.4864
  22620383.881   -15875057.149 8 -12198105.65546  22620383.584    22620396.4364
  21126300.464   -19563262.957 9 -15233281.14847  21126299.477    21126310.9324
  20580227.189   -25066337.386 9 -19509737.44848  20580227.275    20580236.4954
  24306375.885    -2969040.125 7  -2290219.38845  24306375.107    24306396.4174
 02  1 25  0 20  0.0000000  0  6 24 05 06 10 30 23
  21878233.725   -19119608.074 9 -14638929.61147  21878233.364    21878244.6844
  20467433.455   -25583842.753 9 -19925876.83748  20467432.751    20467442.5024
  22607736.149   -15941520.730 8 -12249895.26146  22607735.831    22607748.7014
  21117013.384   -19612066.382 9 -15271309.69047  21117012.407    21117023.8464
  20574070.506   -25098690.683 9 -19534947.75048  20574070.587    20574079.8044
  24286304.309    -3074515.190 7  -2372407.35445  24286303.583    24286324.7364
 02  1 25  0 20 30.0000000  0  7 24 05 06 17 10 30 23
  21891601.571   -19049359.555 9 -14584190.52247  21891601.210    21891612.5454
  20474996.495   -25544098.786 9 -19894907.52748  20474995.795    20475005.5354
  22595097.734   -16007935.293 8 -12301646.68646  22595097.420    22595110.2064
  25064383.639    -3556631.840 7  -2754906.87645  25064383.000    25064408.8714
  21107830.545   -19660322.203 9 -15308911.51947  21107829.564    21107840.9764
  20568016.115   -25130506.489 9 -19559739.22748  20568016.209    20568025.4454
  24266235.764    -3179974.990 7  -2454583.39445  24266235.015    24266256.0864
 02  1 25  0 21  0.0000000  0  7 24 05 06 17 10 30 23
  21905000.607   -18978947.361 9 -14529323.89247  21905000.254    21905011.5574
  20482657.592   -25503839.604 9 -19863536.75348  20482656.872    20482666.6144
  22582469.019   -16074299.299 8 -12353358.70446  22582468.673    22582481.3784
  25047454.123    -3645594.624 7  -2824227.90845  25047453.470    25047479.3584
  21098752.416   -19708027.579 9 -15346084.43147  21098751.438    21098762.8374
  20562064.494   -25161782.264 9 -19584109.90948  20562064.599    20562073.7944
  24246170.652    -3285416.038 7  -2536744.79845  24246169.787    24246190.9234
 02  1 25  0 21 30.0000000  0  7 24 05 06 17 10 30 23
  21918431.868   -18908365.726 9 -14474325.23547  21918431.506    21918442.7944
  20490417.993   -25463058.394 9 -19831759.20448  20490417.279    20490427.0264
  22569851.365   -16140604.533 8 -12405024.91746  22569851.007    22569863.7834
  25030550.383    -3734421.703 7  -2893443.21545  25030549.803    25030575.4844
  21089780.909   -19755172.848 9 -15382820.89347  21089779.939    21089791.3034
  20556217.395   -25192508.731 9 -19608052.55848  20556217.487    20556226.6544
  24226111.024    -3390827.834 7  -2618883.39345  24226110.343    24226131.3934
 02  1 25  0 22  0.0000000  0  7 24 05 06 17 10 30 23
  21931894.636   -18837618.617 9 -14419197.62647  21931894.265    21931905.5494
  20498277.212   -25421757.944 9 -19799577.05448  20498276.488    20498286.2544
  22557244.773   -16206851.933 8 -12456646.08046  22557244.435    22557257.0994
  25013672.349    -3823114.033 8  -2962553.54045  25013671.727    25013697.1104
  21080916.017   -19801757.848 9 -15419120.78747  21080915.036    21080926.3634
  20550474.720   -25222686.375 9 -19631567.55448  20550474.822    20550483.9914
  24206057.286    -3496209.402 7  -2700998.47945  24206056.586    24206077.4604
 02  1 25  0 22 30.0000000  0  7 24 05 06 17 10 30 23
  21945388.323   -18766708.894 9 -14363943.31247  21945387.944    21945399.2244
  20506234.856   -25379940.497 9 -19766992.04948  20506234.130    20506243.8854
  22544649.060   -16273042.254 8 -12508222.75046  22544648.675    22544661.3204
  24996819.838    -3911672.023 8  -3031559.19845  24996819.203    24996844.5684
  21072157.843   -19847781.936 9 -15454983.60547  21072156.870    21072168.1754
  20544836.594   -25252314.712 9 -19654654.51748  20544836.716    20544845.8614
  24186009.640    -3601559.462 7  -2783089.00545  24186008.905    24186029.5864
 02  1 25  0 23  0.0000000  0  7 24 05 06 17 10 30 23
  21958912.542   -18695638.720 9 -14308563.98447  21958912.181    21958923.4804
  20514290.580   -25337607.449 9 -19734005.28048  20514289.853    20514299.6124
  22532064.250   -16339175.127 8 -12559754.64446  22532063.877    22532076.4784
  24979993.151    -4000095.057 7  -3100459.70945  24979992.482    24980017.5224
  21063506.750   -19893243.270 9 -15490407.91347  21063505.769    21063517.0484
  20539303.196   -25281392.930 9 -19677312.82148  20539303.286    20539312.4224
  24165968.355    -3706875.779 8  -2865153.24545  24165967.569    24165988.0854
 02  1 25  0 23 30.0000000  0  7 24 05 06 17 10 30 23
  21972466.844   -18624410.343 9 -14253061.37247  21972466.478    21972477.7914
  20522444.134   -25294760.218 9 -19700617.85048  20522443.418    20522453.1744
  22519490.457   -16405250.293 8 -12611241.58546  22519490.032    22519502.5454
  24963192.148    -4088382.570 8  -3169254.61745  24963191.464    24963216.4344
  21054963.004   -19938140.547 9 -15525392.70747  21054962.033    21054973.2814
  20533874.637   -25309919.958 9 -19699541.62548  20533874.734    20533883.8294
  24145933.903    -3812155.968 7  -2947189.32245  24145933.139    24145953.4914
 02  1 25  0 24  0.0000000  0  7 24 05 06 17 10 30 23
  21986050.866   -18553025.891 9 -14197437.14847  21986050.514    21986061.8004
  20530695.350   -25251399.755 9 -19666830.49948  20530694.646    20530704.4054
  22506927.610   -16471267.218 8 -12662683.13846  22506927.219    22506939.7194
  24946417.142    -4176533.792 7  -3237943.32745  24946416.466    24946441.1954
  21046526.957   -19982471.844 9 -15559936.47547  21046525.983    21046537.1984
  20528551.291   -25337894.247 9 -19721339.72548  20528551.370    20528560.4464
  24125906.837    -3917397.090 8  -3029194.94445  24125906.113    24125926.3104
 02  1 25  0 24 30.0000000  0  7 24 05 06 17 10 30 23
  21999664.252   -18481487.233 9 -14141692.76447  21999663.890    21999675.2034
  20539044.051   -25207527.226 9 -19632644.13548  20539043.336    20539053.1214
  22494376.164   -16537225.148 8 -12714078.72346  22494375.748    22494388.1794
  24929668.220    -4264547.685 7  -3306525.01245  24929667.492    24929692.1774
  21038198.971   -20026235.260 9 -15594037.73947  21038197.999    21038209.1924
  20523333.379   -25365314.560 9 -19742706.15548  20523333.442    20523342.5144
  24105887.682    -4022596.610 8  -3111168.15545  24105886.983    24105907.0704
 02  1 25  0 25  0.0000000  0  7 24 05 06 17 10 30 23
  22013306.537   -18409796.389 9 -14085829.79447  22013306.165    22013317.5164
  20547489.941   -25163143.905 9 -19598059.75248  20547489.229    20547499.0064
  22481835.901   -16603123.545 8 -12765427.91546  22481835.510    22481847.9524
  24912945.327    -4352423.882 7  -3374999.39945  24912944.559    24912969.2864
  21029979.395   -20069429.032 9 -15627695.11747  21029978.429    21029989.5994
  20518221.048   -25392179.611 9 -19763639.91248  20518221.141    20518230.2134
  24085876.893    -4127752.174 8  -3193107.12745  24085876.156    24085896.2704
 02  1 25  0 25 30.0000000  0  7 24 05 06 17 10 30 23
  22026977.458   -18337955.391 9 -14029849.82147  22026977.091    22026988.4344
  20556032.774   -25118251.030 9 -19563078.31048  20556032.045    20556041.8414
  22469307.157   -16668961.712 8 -12816730.19646  22469306.793    22469319.1354
  24896249.040    -4440161.273 7  -3443365.63545  24896248.277    24896272.7604
  21021868.548   -20112051.490 9 -15660907.32047  21021867.564    21021878.6894
  20513214.632   -25418488.293 9 -19784140.13348  20513214.727    20513223.7674
  24065875.014    -4232861.009 8  -3275009.70345  24065874.293    24065894.2684
 02  1 25  0 26  0.0000000  0  7 24 05 06 17 10 30 23
  22040676.603   -18265966.195 9 -13973754.37247  22040676.217    22040687.5444
  20564672.327   -25072849.863 9 -19527700.80248  20564671.614    20564681.4234
  22456789.960   -16734739.289 8 -12867985.23747  22456789.569    22456801.9224
  24879579.294    -4527759.405 7  -3511623.37945  24879578.577    24879602.9374
  21013866.631   -20154101.401 9 -15693673.38947  21013865.664    21013876.7584
  20508314.347   -25444239.487 9 -19804205.94848  20508314.420    20508323.4254
  24045882.535    -4337920.659 8  -3356873.95045  24045881.793    24045901.7154
 02  1 25  0 26 30.0000000  0  7 24 05 06 17 10 30 23
  22054403.503   -18193830.858 9 -13917545.05047  22054403.124    22054414.4554
  20573408.445   -25026941.334 9 -19491927.94448  20573407.716    20573417.5524
  22444284.412   -16800455.448 8 -12919192.43847  22444284.056    22444296.3294
  24862936.143    -4615217.317 7  -3579771.83345  24862935.350    24862959.5344
  21005974.050   -20195576.755 9 -15725991.75347  21005973.068    21005984.1504
  20503520.376   -25469431.611 9 -19823836.11948  20503520.438    20503529.4754
  24025899.930    -4442928.380 8  -3438697.75045  24025899.247    24025919.0244
 02  1 25  0 27  0.0000000  0  7 24 05 06 17 10 30 23
  22068157.970   -18121550.849 9 -13861222.99947  22068157.582    22068168.8974
  20582240.898   -24980526.495 9 -19455760.56048  20582240.172    20582250.0214
  22431790.831   -16866109.074 8 -12970350.92647  22431790.445    22431802.6294
  24846319.838    -4702533.748 7  -3647810.06945  24846318.943    24846343.4234
  20998191.194   -20236475.482 9 -15757860.80847  20998190.226    20998201.2894
  20498833.096   -25494063.078 9 -19843029.42048  20498833.183    20498842.2154
  24005927.812    -4547881.018 8  -3520478.63545  24005927.113    24005946.8194
 02  1 25  0 27 30.0000000  0  7 24 05 06 17 10 30 23
  22081939.545   -18049128.219 9 -13804789.82347  22081939.171    22081950.4814
  20591169.468   -24933606.725 9 -19419199.72548  20591168.750    20591178.5934
  22419309.157   -16931699.694 8 -13021460.30547  22419308.816    22419321.0034
  24829730.741    -4789708.150 7  -3715737.60945  24829729.957    24829754.0114
  20990518.438   -20276795.780 9 -15789279.14447  20990517.467    20990528.5044
  20494252.745   -25518132.980 9 -19861785.13448  20494252.824    20494261.8124
  23985966.565    -4652776.140 7  -3602214.70045  23985965.822    23985985.3714
 02  1 25  0 28  0.0000000  0  7 24 05 06 17 10 30 23
  22095747.960   -17976564.748 9 -13748246.89247  22095747.562    22095758.9014
  20600193.882   -24886183.162 9 -19382246.32048  20600193.153    20600203.0254
  22406839.695   -16997226.635 8 -13072520.08047  22406839.338    22406851.4244
  24813168.591    -4876739.713 7  -3783553.85945  24813167.972    24813191.7694
  20982956.055   -20316535.999 9 -15820245.46647  20982955.093    20982966.1014
  20489779.471   -25541640.033 9 -19880102.26048  20489779.541    20489788.5064
  23966016.814    -4757611.298 7  -3683904.07045  23966016.013    23966035.5754
 02  1 25  0 28 30.0000000  0  7 24 05 06 17 10 30 23
  22109582.817   -17903862.159 9 -13691595.56147  22109582.445    22109593.7904
  20609313.894   -24838257.126 9 -19344901.37648  20609313.169    20609323.0554
  22394382.418   -17062689.091 8 -13123529.60947  22394382.042    22394394.0824
  24796633.974    -4963627.592 7  -3851258.13045  24796633.279    24796657.2084
  20975504.377   -20355694.457 9 -15850758.46547  20975503.421    20975514.3974
  20485413.493   -25564583.013 9 -19897979.84848  20485413.573    20485422.5504
  23946078.993    -4862383.479 7  -3765544.34145  23946078.206    23946097.5884
 02  1 25  0 29  0.0000000  0  7 24 05 06 17 10 30 23
  22123443.719   -17831022.576 9 -13634837.47947  22123443.359    22123454.7194
  20618529.248   -24789830.155 9 -19307166.09848  20618528.540    20618538.4274
  22381937.578   -17128086.776 8 -13174488.66547  22381937.187    22381949.1614
  24780126.730    -5050371.286 7  -3918850.05945  24780126.098    24780149.8774
  20968163.619   -20394270.082 9 -15880817.30647  20968162.653    20968173.6114
  20481155.035   -25586961.115 9 -19915417.27348  20481155.111    20481164.0914
  23926153.602    -4967090.202 7  -3847133.62145  23926152.840    23926172.2134
 02  1 25  0 29 30.0000000  0  7 24 05 06 17 10 30 23
  22137330.368   -17758047.878 9 -13577974.11847  22137330.005    22137341.3774
  20627839.780   -24740903.061 9 -19269041.11348  20627839.064    20627848.9594
  22369505.292   -17193418.373 8 -13225396.23947  22369504.884    22369516.8014
  24763647.212    -5136969.577 7  -3986328.68145  24763646.545    24763670.1764
  20960934.147   -20432260.828 9 -15910420.40047  20960933.168    20960944.1094
  20477004.377   -25608772.709 9 -19932413.26548  20477004.455    20477013.4064
  23906241.262    -5071728.521 7  -3928669.61745  23906240.594    23906259.8024
 02  1 25  0 30  0.0000000  0  7 24 05 06 17 10 30 23
  22151242.445   -17684939.758 9 -13521006.79547  22151242.074    22151253.4494
  20637245.195   -24691477.354 9 -19230527.59848  20637244.483    20637254.3784
  22357085.599   -17258683.283 8 -13276251.86047  22357085.232    22357097.0744
  24747195.575    -5223421.890 7  -4053693.58845  24747194.904    24747218.2244
  20953816.248   -20469665.447 9 -15939566.78547  20953815.266    20953826.1734
  20472961.738   -25630016.791 9 -19948967.04048  20472961.824    20472970.7374
  23886342.473    -5176295.740 7  -4010150.23145  23886341.929    23886360.8564
 02  1 25  0 30 30.0000000  0  7 24 05 06 17 10 30 23
  22165179.541   -17611699.956 9 -13463936.86247  22165179.176    22165190.5684
  20646745.239   -24641554.396 9 -19191626.61348  20646744.526    20646754.4254
  22344678.780   -17323880.929 8 -13327055.06847  22344678.411    22344690.2234
  24730771.772    -5309727.607 7  -4120944.26845  24730771.134    24730794.2924
  20946810.117   -20506482.417 9 -15968255.25447  20946809.136    20946820.0344
  20469027.248   -25650692.453 9 -19965077.88748  20469027.327    20469036.2394
  23866457.701    -5280789.378 7  -4091573.48245  23866457.146    23866476.0064
 02  1 25  0 31  0.0000000  0  7 24 05 06 17 10 30 23
  22179141.361   -17538330.421 9 -13406765.83647  22179140.960    22179152.3714
  20656339.667   -24591135.442 9 -19152339.14048  20656338.954    20656348.8674
  22332284.838   -17389010.782 8 -13377805.46647  22332284.491    22332296.2144
  24714376.006    -5395885.990 7  -4188080.17145  24714375.285    24714398.3164
  20939916.232   -20542709.744 9 -15996484.26247  20939915.248    20939926.1314
  20465201.095   -25670798.694 9 -19980745.03448  20465201.186    20465210.0884
  23846587.489    -5385206.853 8  -4172937.38845  23846586.862    23846605.6494
 02  1 25  0 31 30.0000000  0  7 24 05 06 17 10 30 23
  22193127.438   -17464833.142 9 -13349495.26547  22193127.028    22193138.4384
  20666028.242   -24540221.812 9 -19112666.20548  20666027.517    20666037.4404
  22319904.046   -17454071.773 8 -13428502.20047  22319903.673    22319915.3444
  24698008.423    -5481896.101 8  -4255100.53945  24698007.836    24698030.5864
  20933134.837   -20578345.907 9 -16024252.61647  20933133.843    20933144.7334
  20461483.579   -25690334.179 9 -19995967.43748  20461483.670    20461492.5484
  23826732.361    -5489545.218 7  -4254239.66445  23826731.708    23826750.3834
 02  1 25  0 32  0.0000000  0  7 24 05 06 17 10 30 23
  22207137.614   -17391209.407 8 -13292126.15547  22207137.199    22207148.6444
  20675810.674   -24488814.706 9 -19072608.74148  20675809.955    20675819.9014
  22307536.433   -17519063.019 8 -13479144.59747  22307536.104    22307547.8114
  24681669.408    -5567756.853 8  -4322004.54245  24681668.747    24681691.2904
  20926466.219   -20613389.438 9 -16051559.18047  20926465.220    20926476.0904
  20457874.909   -25709297.711 9 -20010744.16248  20457874.998    20457883.8664
  23806892.762    -5593801.603 8  -4335478.05845  23806892.002    23806910.6524
 02  1 25  0 32 30.0000000  0  7 24 05 06 17 10 30 23
  22221171.474   -17317461.027 8 -13234659.92447  22221171.053    22221182.5184
  20685686.803   -24436915.436 9 -19032167.77548  20685686.087    20685696.0264
  22295182.389   -17583983.655 8 -13529731.98847  22295182.057    22295193.6274
  24665358.854    -5653467.602 8  -4388791.65845  24665358.109    24665380.5424
  20919910.654   -20647838.926 9 -16078402.84947  20919909.658    20919920.5034
  20454375.279   -25727688.122 9 -20025074.30148  20454375.361    20454384.2174
  23787069.241    -5697973.278 8  -4416650.43245  23787068.525    23787087.0994
 02  1 25  0 33  0.0000000  0  7 24 05 06 17 10 30 23
  22235228.706   -17243589.966 8 -13177098.09147  22235228.292    22235239.7584
  20695656.279   -24384525.584 9 -18991344.53848  20695655.556    20695665.4874
  22282841.875   -17648832.891 8 -13580263.74047  22282841.520    22282853.1094
  24649077.018    -5739027.653 8  -4455461.35545  24649076.211    24649098.4944
  20913468.353   -20681692.995 9 -16104782.55447  20913467.358    20913478.1844
  20450984.899   -25745504.645 9 -20038957.25548  20450984.978    20450993.7944
  23767262.369    -5802057.559 8  -4497754.72045  23767261.757    23767280.1584
 02  1 25  0 33 30.0000000  0  7 24 05 06 17 10 30 23
  22249308.890   -17169598.043 8 -13119442.07647  22249308.504    22249319.9754
  20705718.880   -24331646.437 9 -18950140.03248  20705718.160    20705728.1044
  22270515.154   -17713609.688 8 -13630739.04647  22270514.784    22270526.3724
  24632823.910    -5824436.123 8  -4522012.94845  24632823.162    24632845.3014
  20907139.686   -20714950.198 9 -16130697.16947  20907138.669    20907149.4594
  20447703.918   -25762746.015 9 -20052392.03848  20447703.999    20447712.7984
  23747472.775    -5906051.692 8  -4578788.77245  23747472.088    23747490.4004
 02  1 25  0 34  0.0000000  0  7 24 05 06 17 10 30 23
  22263411.770   -17095486.872 8 -13061693.13847  22263411.391    22263422.8654
  20715874.252   -24278279.618 9 -18908555.52548  20715873.529    20715883.5014
  22258202.361   -17778313.470 8 -13681157.46147  22258201.958    22258213.5064
  24616599.764    -5909692.474 8  -4588446.02045  24616599.124    24616621.0894
  20900924.792   -20747609.393 9 -16156145.80447  20900923.782    20900934.5454
  20444532.512   -25779411.606 9 -20065378.15848  20444532.595    20444541.4144
  23727700.696    -6009953.180 8  -4659750.63545  23727700.046    23727718.2944
 02  1 25  0 34 30.0000000  0  7 24 05 06 17 10 30 23
  22277536.992   -17021258.502 9 -13003852.86947  22277536.632    22277548.1324
  20726122.188   -24224426.484 9 -18866592.07048  20726121.455    20726131.4214
  22245903.530   -17842943.595 8 -13731518.48047  22245903.162    22245914.6894
  24600404.701    -5994796.116 8  -4654760.11245  24600404.106    24600425.9434
  20894823.936   -20779669.152 9 -16181127.34547  20894822.935    20894833.6764
  20441470.865   -25795500.551 9 -20077914.94748  20441470.944    20441479.7344
  23707946.828    -6113759.234 8  -4740638.11745  23707946.161    23707964.2854
 02  1 25  0 35  0.0000000  0  7 24 05 06 17 10 30 23
  22291684.261   -16946914.245 8 -12945922.30447  22291683.898    22291695.3734
  20736462.457   -24170088.079 9 -18824250.48348  20736461.736    20736471.7064
  22233619.023   -17907498.597 8 -13781820.96447  22233618.666    22233630.1744
  24584239.015    -6079745.820 8  -4720954.25545  24584238.337    24584260.1044
  20888837.513   -20811127.587 9 -16205640.32047  20888836.519    20888847.2564
  20438519.203   -25811011.405 9 -20090001.27948  20438519.278    20438528.0554
  23688211.648    -6217466.532 8  -4821448.63445  23688211.003    23688229.1434
 02  1 25  0 35 30.0000000  0  7 24 05 06 17 10 30 23
  22305853.305   -16872455.725 8 -12887902.69947  22305852.899    22305864.4104
  20746894.683   -24115266.541 9 -18781532.43148  20746893.964    20746903.9294
  22221348.873   -17971978.091 8 -13832064.61547  22221348.521    22221359.9754
  24568102.570    -6164541.219 7  -4787028.16245  24568101.998    24568123.5974
  20882965.677   -20841983.869 9 -16229684.09047  20882964.695    20882975.4114
  20435677.656   -25825943.511 9 -20101636.63848  20435677.735    20435686.5134
  23668495.757    -6321072.853 8  -4902180.48945  23668495.153    23668513.1354
 02  1 25  0 36  0.0000000  0  7 24 05 06 17 10 30 23
  22320043.549   -16797885.304 8 -12829795.89647  22320043.175    22320054.6874
  20757418.542   -24059963.411 9 -18738439.11148  20757417.819    20757427.7934
  22209093.255   -18036381.409 8 -13882248.89347  22209092.855    22209104.3734
  24551995.658    -6249181.731 7  -4852981.37345  24551994.998    24552016.5124
  20877208.645   -20872237.100 9 -16253257.94347  20877207.650    20877218.3404
  20432946.369   -25840296.374 9 -20112820.63148  20432946.436    20432955.2254
  23648799.531    -6424575.611 8  -4982831.63045  23648798.998    23648816.8454
 02  1 25  0 36 30.0000000  0  7 24 05 06 17 10 30 23
  22334254.850   -16723204.532 8 -12771603.10347  22334254.497    22334266.0134
  20768033.795   -24004180.008 9 -18694971.55248  20768033.080    20768043.0484
  22196852.338   -18100707.341 8 -13932372.87347  22196851.969    22196863.4254
  24535918.406    -6333666.298 7  -4918813.06545  24535917.759    24535939.2074
  20871566.667   -20901885.495 9 -16276360.49347  20871565.666    20871576.3444
  20430325.522   -25854068.761 9 -20123552.30848  20430325.590    20430334.3674
  23629123.647    -6527971.726 8  -5063399.66945  23629123.089    23629140.8764
 02  1 25  0 37  0.0000000  0  7 24 05 06 17 10 30 23
  22348486.899   -16648414.691 8 -12713325.32747  22348486.535    22348498.0514
  20778740.124   -23947917.889 9 -18651130.96948  20778739.418    20778749.3894
  22184626.288   -18164955.313 8 -13982436.10347  22184625.903    22184637.2954
  24519870.924    -6417994.480 7  -4984522.92745  24519870.208    24519891.6794
  20866040.019   -20930927.966 9 -16298990.89847  20866039.012    20866049.6634
  20427815.272   -25867259.924 9 -20133831.08548  20427815.348    20427824.1044
  23609468.499    -6631258.711 8  -5143882.67745  23609467.906    23609485.6844
 02  1 25  0 37 30.0000000  0  7 24 05 06 17 10 30 23
  22362739.253   -16573518.115 8 -12654964.38047  22362738.888    22362750.3984
  20789537.245   -23891178.924 9 -18606918.81948  20789536.533    20789546.4904
  22172415.197   -18229124.523 8 -14032437.95047  22172414.827    22172426.2384
  24503853.312    -6502165.848 7  -5050110.59545  24503852.587    24503873.7714
  20860628.821   -20959363.670 9 -16321148.49547  20860627.818    20860638.4474
  20425415.710   -25879869.511 9 -20143656.68748  20425415.789    20425424.5404
  23589834.659    -6734434.130 8  -5224278.74245  23589833.938    23589851.7094
 02  1 25  0 38  0.0000000  0  7 24 05 06 17 10 30 23
  22377011.665   -16498516.172 8 -12596521.33047  22377011.298    22377022.8404
  20800424.886   -23833964.167 9 -18562335.92448  20800424.156    20800434.1124
  22160219.295   -18293213.777 8 -14082377.49347  22160218.930    22160230.2984
  24487865.720    -6586179.056 7  -5115575.02045  24487865.024    24487886.2324
  20855333.380   -20987191.023 9 -16342832.05747  20855332.384    20855342.9904
  20423127.100   -25891896.056 9 -20153027.97548  20423127.183    20423135.9454
  23570222.598    -6837494.801 8  -5304585.39045  23570221.875    23570239.5304
 02  1 25  0 38 30.0000000  0  7 24 05 06 17 10 30 23
  22391303.749   -16423410.614 8 -12537997.53647  22391303.393    22391314.9764
  20811402.697   -23776275.514 9 -18517383.75448  20811401.976    20811411.9414
  22148038.785   -18357222.438 8 -14132254.23547  22148038.412    22148049.7544
  24471908.393    -6670034.095 7  -5180916.22045  24471907.562    24471928.7194
  20850153.873   -21014409.049 9 -16364040.81247  20850152.890    20850163.4664
  20420949.540   -25903339.069 9 -20161944.55648  20420949.611    20420958.3604
  23550632.888    -6940438.204 8  -5384800.65345  23550632.128    23550649.6754
 02  1 25  0 39  0.0000000  0  7 24 05 06 17 10 30 23
  22405615.130   -16348203.928 8 -12479394.94247  22405614.796    22405626.3614
  20822470.305   -23718114.933 9 -18472063.84848  20822469.584    20822479.5584
  22135873.701   -18421150.076 8 -14182067.84047  22135873.324    22135884.6254
  24455981.155    -6753730.531 7  -5246133.82845  24455980.348    24456001.4034
  20845090.491   -21041017.013 9 -16384774.19747  20845089.505    20845100.0504
  20418882.998   -25914198.635 9 -20170406.51048  20418883.081    20418891.7994
  23531065.847    -7043262.139 8  -5464922.82745  23531065.133    23531082.5584
 02  1 25  0 39 30.0000000  0  7 24 05 06 17 10 30 23
  22419945.867   -16272895.556 8 -12420713.11847  22419945.515    22419957.0914
  20833627.649   -23659482.733 9 -18426376.45448  20833626.940    20833636.9164
  22123724.466   -18484993.978 8 -14231816.19747  22123724.115    22123735.3504
  24440084.570    -6837266.134 8  -5311226.13845  24440083.833    24440104.6634
  20840143.674   -21067012.370 9 -16405030.23447  20840142.690    20840153.1904
  20416927.991   -25924472.066 9 -20178411.74148  20416928.065    20416936.7544
  23511522.327    -7145962.326 8  -5544948.58045  23511521.633    23511539.0014
 02  1 25  0 40  0.0000000  0  7 24 05 06 17 10 30 23
  22434295.354   -16197488.807 8 -12361954.63947  22434294.961    22434306.5514
  20844874.241   -23600381.591 9 -18380323.64148  20844873.534    20844883.5154
  22111591.160   -18548754.650 8 -14281499.69147  22111590.785    22111601.9834
  24424218.422    -6920641.559 7  -5376193.62345  24424217.707    24424238.4144
  20835313.375   -21092395.473 9 -16424809.18247  20835312.384    20835322.8544
  20415084.391   -25934160.045 9 -20185960.76948  20415084.461    20415093.1504
  23492002.728    -7248537.196 8  -5624876.68145  23492002.036    23492019.2374
 02  1 25  0 40 30.0000000  0  7 24 05 06 17 10 30 23
  22448663.303   -16121984.935 8 -12303120.47647  22448662.904    22448674.4954
  20856209.805   -23540812.887 9 -18333906.50248  20856209.077    20856219.0744
  22099473.874   -18612430.770 8 -14331117.30947  22099473.503    22099484.6414
  24408382.949    -7003855.820 7  -5441035.55445  24408382.289    24408402.9054
  20830599.879   -21117164.801 9 -16444109.87347  20830598.877    20830609.3244
  20413352.407   -25943261.528 9 -20193052.79548  20413352.460    20413361.1444
  23472507.532    -7350983.713 8  -5704704.76845  23472506.912    23472523.9264
 02  1 25  0 41  0.0000000  0  7 24 05 06 17 10 30 23
  22463049.343   -16046385.945 8 -12244212.20047  22463048.955    22463060.4984
  20867634.009   -23480778.556 9 -18287126.53848  20867633.278    20867643.2694
  22087372.855   -18676021.688 8 -14380668.52547  22087372.461    22087383.5724
  24392578.309    -7086908.360 7  -5505751.45445  24392577.681    24392598.2224
  20826003.306   -21141319.563 9 -16462931.67747  20826002.299    20826012.7224
  20411732.100   -25951776.176 9 -20199687.54148  20411732.162    20411740.8174
  23453037.232    -7453299.332 8  -5784430.85045  23453036.591    23453053.5424
 02  1 25  0 41 30.0000000  0  7 24 05 06 17 10 30 23
  22477453.227   -15970693.190 8 -12185230.85147  22477452.813    22477464.3804
  20879146.534   -23420279.854 9 -18239984.72748  20879145.818    20879155.8084
  22075288.241   -18739526.227 8 -14430152.42747  22075287.857    22075298.9664
  24376804.540    -7169798.295 8  -5570340.64745  24376803.980    24376824.4244
  20821523.923   -21164858.536 9 -16481273.64847  20821522.920    20821533.3284
  20410223.621   -25959703.085 9 -20205864.31348  20410223.686    20410232.3354
  23433592.438    -7555481.031 8  -5864052.59545  23433591.763    23433608.6124
 02  1 25  0 42  0.0000000  0  7 24 05 06 17 10 30 23
  22491874.597   -15894908.288 8 -12126177.71947  22491874.209    22491885.7754
  20890747.065   -23359318.843 9 -18192482.67748  20890746.337    20890756.3424
  22063220.144   -18802943.726 8 -14479568.50747  22063219.771    22063230.8324
  24361061.878    -7252525.127 8  -5634802.72845  24361061.389    24361081.7434
  20817161.901   -21187780.743 9 -16499135.02347  20817160.900    20817171.3004
  20408827.051   -25967041.850 9 -20211582.79348  20408827.113    20408835.7524
  23414173.563    -7657526.382 8  -5943568.11445  23414172.916    23414189.5864
 02  1 25  0 42 30.0000000  0  7 24 05 06 17 10 30 23
  22506313.240   -15819032.698 8 -12067053.90446  22506312.864    22506324.4464
  20902435.274   -23297897.034 9 -18144621.56748  20902434.546    20902444.5684
  22051168.899   -18866272.816 8 -14528915.69147  22051168.524    22051179.5934
  24345350.405    -7335088.100 8  -5699137.13145  24345349.846    24345370.1384
  20812917.435   -21210085.186 9 -16516515.02647  20812916.438    20812926.7964
  20407542.575   -25973791.710 9 -20216842.38048  20407542.632    20407551.2694
  23394781.243    -7759432.502 8  -6022975.13946  23394780.581    23394797.1594
 02  1 25  0 43  0.0000000  0  7 24 05 06 17 10 30 23
  22520768.815   -15743068.285 8 -12007860.88646  22520768.426    22520780.0164
  20914210.787   -23236016.285 9 -18096402.84448  20914210.074    20914220.1024
  22039134.626   -18929512.698 8 -14578193.36747  22039134.225    22039145.2884
  24329670.216    -7417486.738 8  -5763343.46645  24329669.670    24329689.7944
  20808790.683   -21231771.105 9 -16533413.06847  20808789.685    20808800.0264
  20406370.228   -25979952.177 9 -20221642.70748  20406370.294    20406378.9384
  23375415.937    -7861196.717 8  -6102271.59346  23375415.247    23375431.7154
 02  1 25  0 43 30.0000000  0  7 24 05 06 17 10 30 23
  22535240.947   -15667016.884 8 -11948600.08746  22535240.548    22535252.1534
  20926073.258   -23173678.683 9 -18047828.13148  20926072.541    20926082.5984
  22027117.409   -18992662.778 8 -14627401.06747  22027117.044    22027128.0764
  24314021.332    -7499720.812 8  -5827421.56045  24314020.755    24314040.7854
  20804781.718   -21252838.011 9 -16549828.76247  20804780.710    20804791.0364
  20405310.102   -25985523.136 9 -20225983.67548  20405310.168    20405318.7894
  23356078.084    -7962816.545 8  -6181455.54446  23356077.395    23356093.7544
 02  1 25  0 44  0.0000000  0  7 24 05 06 17 10 30 23
  22549729.414   -15590879.554 8 -11889272.32846  22549729.008    22549740.6084
  20938022.455   -23110885.385 9 -17998898.33048  20938021.719    20938031.7894
  22015117.619   -19055721.567 8 -14676537.62547  22015117.242    22015128.2384
  24298403.984    -7581788.974 8  -5891370.37245  24298403.406    24298423.3504
  20800890.778   -21273284.707 9 -16565761.17947  20800889.774    20800900.0644
  20404362.370   -25990503.468 9 -20229864.41648  20404362.434    20404371.0164
  23336768.342    -8064288.551 8  -6260524.32246  23336767.623    23336783.9554
 02  1 25  0 44 30.0000000  0  7 24 05 06 17 10 30 23
  22564233.908   -15514657.998 8 -11829878.94546  22564233.536    22564245.1114
  20950058.017   -23047638.365 9 -17949614.97248  20950057.287    20950067.3604
  22003135.334   -19118688.274 8 -14725602.44747  22003134.967    22003145.8834
  24282818.230    -7663691.013 8  -5955189.72845  24282817.685    24282837.5094
  20797118.020   -21293110.552 9 -16581209.81547  20797117.016    20797127.2774
  20403527.041   -25994892.968 9 -20233284.77148  20403527.102    20403535.6504
  23317487.276    -8165610.332 8  -6339476.05046  23317486.481    23317502.6964
 02  1 25  0 45  0.0000000  0  7 24 05 06 17 10 30 23
  22578754.124   -15438354.118 8 -11770421.40046  22578753.754    22578765.3364
  20962179.505   -22983939.675 9 -17899979.65948  20962178.766    20962188.8604
  21991170.738   -19181562.038 9 -14774594.83647  21991170.390    21991181.2614
  24267264.237    -7745426.391 8  -6018879.20645  24267263.634    24267283.4444
  20793463.494   -21312314.790 9 -16596174.07747  20793462.496    20793472.7574
  20402804.201   -25998691.292 9 -20236244.46448  20402804.273    20402812.8244
  23298235.153    -8266779.411 8  -6418308.78346  23298234.438    23298250.5724
 02  1 25  0 45 30.0000000  0  7 24 05 06 17 10 30 23
  22593289.735   -15361969.194 8 -11710900.71246  22593289.351    22593300.9274
  20974386.651   -22919790.826 9 -17849993.56748  20974385.905    20974396.0054
  21979224.099   -19244341.499 9 -14823513.74647  21979223.740    21979234.5624
  24251742.108    -7826994.164 8  -6082438.09245  24251741.470    24251761.2414
  20789927.464   -21330896.506 9 -16610653.26847  20789926.454    20789936.6944
  20402194.018   -26001897.622 9 -20238742.87048  20402194.085    20402202.6474
  23279012.689    -8367792.798 8  -6497020.21346  23279012.006    23279028.0564
 02  1 25  0 46  0.0000000  0  7 24 05 06 17 10 30 23
  22607840.416   -15285504.943 8 -11651318.20446  22607840.038    22607851.6394
  20986679.052   -22855193.962 9 -17799658.36848  20986678.295    20986688.3994
  21967295.572   -19307025.858 9 -14872358.54447  21967295.198    21967305.9884
  24236251.797    -7908394.335 8  -6145866.37745  24236251.163    24236270.8194
  20786509.974   -21348855.073 9 -16624646.88247  20786508.979    20786519.2064
  20401696.545   -26004511.900 9 -20240779.93648  20401696.609    20401705.1414
  23259820.354    -8468647.966 8  -6575608.35946  23259819.632    23259835.7194
 02  1 25  0 46 30.0000000  0  7 24 05 06 17 10 30 23
  22622406.393   -15208960.098 8 -11591672.90146  22622406.024    22622417.6554
  20999056.713   -22790148.889 9 -17748973.91648  20999055.956    20999066.0994
  21955385.730   -19369611.937 9 -14921126.77247  21955385.363    21955396.0994
  24220793.986    -7989624.051 8  -6209161.83045  24220793.414    24220812.9004
  20783211.645   -21366187.602 9 -16638152.67748  20783210.663    20783220.8684
  20401312.166   -26006531.731 9 -20242353.79848  20401312.226    20401320.7354
  23240659.020    -8569340.159 8  -6654069.51546  23240658.307    23240674.2854
 02  1 25  0 47  0.0000000  0  7 24 05 06 17 10 30 23
  22636986.702   -15132340.004 8 -11531968.96146  22636986.370    22636997.9824
  21011518.760   -22724660.629 9 -17697944.12448  21011518.019    21011528.1324
  21943494.147   -19432101.972 9 -14969820.16447  21943493.746    21943504.4424
  24205368.140    -8070685.894 8  -6272326.48345  24205367.504    24205386.9844
  20780031.967   -21382896.635 9 -16651172.62748  20780030.974    20780041.1604
  20401040.360   -26007959.878 9 -20243466.60848  20401040.414    20401048.9034
  23221528.647    -8669869.887 8  -6732404.06746  23221527.911    23221543.8444
 02  1 25  0 47 30.0000000  0  7 24 05 06 17 10 30 23
  22651581.147   -15055645.891 8 -11472207.34446  22651580.787    22651592.3964
  21024064.930   -22658730.218 9 -17646569.80448  21024064.183    21024074.2944
  21931621.189   -19494494.152 9 -15018437.30847  21931620.815    21931631.4774
  24189974.471    -8151578.403 8  -6335359.16445  24189973.880    24189993.3554
  20776971.209   -21398980.900 9 -16663705.74448  20776970.203    20776980.3694
  20400881.354   -26008795.236 9 -20244117.50348  20400881.424    20400889.9074
  23202429.844    -8770233.423 8  -6810609.13046  23202429.103    23202444.9944
 02  1 25  0 48  0.0000000  0  7 24 05 06 17 10 30 23
  22666189.492   -14978878.743 8 -11412388.81446  22666189.114    22666200.7314
  21036694.879   -22592359.560 9 -17594852.43847  21036694.120    21036704.2574
  21919767.061   -19556787.424 9 -15066977.38247  21919766.712    21919777.3224
  24174613.091    -8232301.355 8  -6398259.74345  24174612.535    24174631.8824
  20774029.421   -21414439.753 9 -16675751.52848  20774028.419    20774038.5514
  20400835.199   -26009037.524 9 -20244306.26948  20400835.266    20400843.7554
  23183363.140    -8870428.220 8  -6888682.70246  23183362.413    23183378.2014
 02  1 25  0 48 30.0000000  0  7 24 05 06 17 10 30 23
  22680811.475   -14902039.961 8 -11352514.45946  22680811.101    22680822.6924
  21049408.266   -22525550.245 9 -17542793.26647  21049407.528    21049417.6604
  21907932.079   -19618980.302 9 -15115439.23447  21907931.705    21907942.2634
  24159284.218    -8312853.616 8  -6461027.30045  24159283.647    24159302.8274
  20771206.829   -21429272.269 9 -16687309.25348  20771205.843    20771215.9604
  20400902.064   -26008686.106 9 -20244032.41348  20400902.119    20400910.6154
  23164329.137    -8970451.190 8  -6966622.38646  23164328.440    23164344.2094
 02  1 25  0 49  0.0000000  0  7 24 05 06 17 10 30 23
  22695446.753   -14825131.205 8 -11292585.57546  22695446.359    22695457.9864
  21062204.730   -22458304.514 9 -17490394.04547  21062203.979    21062214.1324
  21896116.341   -19681071.959 9 -15163822.21547  21896115.965    21896126.4764
  24143987.848    -8393234.874 8  -6523661.59945  24143987.227    24144006.3054
  20768503.478   -21443478.047 9 -16698378.60848  20768502.495    20768512.5964
  20401081.927   -26007740.857 9 -20243295.82648  20401081.985    20401090.4664
  23145328.276    -9070299.840 8  -7044426.22746  23145327.634    23145343.3374
 02  1 25  0 49 30.0000000  0  7 24 05 06 17 10 30 23
  22710095.167   -14748153.352 8 -11232602.85746  22710094.788    22710106.4014
  21075083.957   -22390623.852 9 -17437655.91747  21075083.213    21075093.3834
  21884320.134   -19743061.010 9 -15212125.25247  21884319.741    21884330.2074
  24128724.205    -8473444.269 8  -6586161.98645  24128723.533    24128742.4904
  20765919.627   -21457056.098 9 -16708958.83048  20765918.634    20765928.7244
  20401374.856   -26006201.384 9 -20242096.21548  20401374.902    20401383.3724
  23126361.225    -9169971.057 8  -7122091.81446  23126360.574    23126376.2564
 02  1 25  0 50  0.0000000  0  7 24 05 06 17 10 30 23
  22724756.392   -14671108.327 8 -11172567.79446  22724755.999    22724767.6084
  21088045.507   -22322510.683 9 -17384580.76647  21088044.740    21088054.9314
  21872543.488   -19804946.786 9 -15260347.81747  21872543.134    21872553.6034
  24113493.263    -8553481.752 8  -6648528.41945  24113492.577    24113511.4374
  20763455.167   -21470006.506 9 -16719049.97348  20763454.180    20763464.2394
  20401780.897   -26004067.633 9 -20240433.52548  20401780.931    20401789.3924
  23107428.423    -9269462.471 8  -7199617.27946  23107427.731    23107443.3674
 02  1 25  0 50 30.0000000  0  7 24 05 06 17 10 30 23
  22739430.150   -14593997.373 8 -11112481.35946  22739429.750    22739441.3644
  21101089.103   -22253966.438 9 -17331169.71447  21101088.340    21101098.5194
  21860786.838   -19866727.832 9 -15308488.78247  21860786.483    21860796.9224
  24098295.182    -8633346.467 8  -6710760.22545  24098294.499    24098313.2164
  20761110.362   -21482328.282 9 -16728651.27648  20761109.353    20761119.3974
  20402300.106   -26001339.097 9 -20238307.37048  20402300.142    20402308.6184
  23088530.412    -9368770.863 8  -7277000.11646  23088529.764    23088545.3234
 02  1 25  0 51  0.0000000  0  7 24 05 06 17 10 30 23
  22754116.121   -14516822.149 8 -11052344.83946  22754115.694    22754127.3374
  21114214.256   -22184993.249 9 -17277424.41647  21114213.504    21114223.6984
  21849050.310   -19928403.271 9 -15356547.45647  21849049.948    21849060.3414
  24083130.092    -8713037.884 8  -6772856.99845  24083129.337    24083148.0424
  20758885.164   -21494021.309 9 -16737762.64748  20758884.154    20758894.1974
  20402932.436   -25998015.945 9 -20235717.87848  20402932.484    20402940.9494
  23069667.705    -9467893.844 8  -7354238.47846  23069667.072    23069682.5274
 02  1 25  0 51 30.0000000  0  7 24 05 06 17 10 30 23
  22768814.035   -14439584.094 8 -10992159.35446  22768813.598    22768825.2374
  21127420.634   -22115593.545 9 -17223346.77347  21127419.881    21127430.0844
  21837334.087   -19989972.361 9 -15404523.26647  21837333.709    21837344.0404
  24067997.936    -8792556.034 8  -6834818.75845  24067997.163    24068015.8204
  20756779.663   -21505085.424 9 -16746383.95648  20756778.661    20756788.6874
  20403677.921   -25994098.323 9 -20232665.16148  20403677.968    20403686.4164
  23050840.750    -9566829.212 8  -7431330.63946  23050840.106    23050855.4424
 02  1 25  0 52  0.0000000  0  7 24 05 06 17 10 30 23
  22783523.715   -14362284.368 8 -10931925.82146  22783523.285    22783534.9304
  21140707.890   -22045768.709 9 -17168937.84847  21140707.133    21140717.3504
  21825638.342   -20051433.378 9 -15452414.87447  21825637.965    21825648.2564
  24052899.046    -8871899.614 8  -6896644.50345  24052898.276    24052916.7804
  20754794.072   -21515519.615 9 -16754514.41748  20754793.066    20754803.0664
  20404536.664   -25989585.578 9 -20229148.71648  20404536.703    20404545.1604
  23032050.043    -9665573.701 8  -7508274.06146  23032049.395    23032064.6714
 02  1 25  0 52 30.0000000  0  7 24 05 06 17 10 30 23
  22798244.852   -14284924.255 8 -10871645.23646  22798244.444    22798256.1014
  21154075.668   -21975520.808 9 -17114199.25547  21154074.919    21154085.1334
  21813963.407   -20112785.028 9 -15500221.25347  21813963.048    21813973.3464
  24037833.388    -8951068.530 8  -6958334.15045  24037832.626    24037850.9784
  20752928.291   -21525323.965 9 -16762154.09248  20752927.288    20752937.2754
  20405508.632   -25984477.748 9 -20225168.56748  20405508.690    20405517.1114
  23013296.212    -9764124.625 8  -7585066.64546  23013295.527    23013310.7244
 02  1 25  0 53  0.0000000  0  7 24 05 06 17 10 30 23
  22812977.110   -14207505.832 8 -10811319.20546  22812976.695    22812988.3634
  21167523.436   -21904852.464 9 -17059133.05147  21167522.699    21167532.9194
  21802309.426   -20174026.633 9 -15547941.89047  21802309.066    21802319.3444
  24022801.034    -9030062.572 8  -7019887.54145  24022800.272    24022818.4774
  20751182.397   -21534498.432 9 -16769302.95548  20751181.396    20751191.3524
  20406593.788   -25978775.251 9 -20220725.04348  20406593.839    20406602.2474
  22994579.669    -9862479.605 8  -7661706.54346  22994578.965    22994594.0494
 02  1 25  0 53 30.0000000  0  7 24 05 06 17 10 30 23
  22827720.246   -14130030.269 8 -10750948.65146  22827719.828    22827731.5034
  21181050.886   -21833765.444 9 -17003740.60447  21181050.144    21181060.3774
  21790676.631   -20235156.933 9 -15595575.80147  21790676.269    21790686.5344
  24007802.075    -9108880.873 8  -7081303.97945  24007801.335    24007819.3334
  20749556.535   -21543042.034 9 -16775960.23848  20749555.522    20749565.4584
  20407792.166   -25972477.696 9 -20215817.83548  20407792.199    20407800.6124
  22975900.902    -9960635.819 8  -7738191.54846  22975900.206    22975915.2274
 02  1 25  0 54  0.0000000  0  7 24 05 06 17 10 30 23
  22842473.946   -14052499.068 8 -10690534.74746  22842473.515    22842485.1794
  21194657.626   -21762261.736 9 -16948023.47447  21194656.854    21194667.0904
  21779065.235   -20296174.755 9 -15643122.06847  21779064.897    21779075.1304
  23992836.708    -9187523.186 8  -7142583.29545  23992835.956    23992853.8204
  20748050.767   -21550954.604 9 -16782125.80848  20748049.754    20748059.6714
  20409103.767   -25965585.039 9 -20210446.91148  20409103.802    20409112.2294
  22957260.451   -10058590.530 8  -7814519.55546  22957259.711    22957274.6714
 02  1 25  0 54 30.0000000  0  7 24 05 06 17 10 30 23
  22857237.949   -13974913.561 8 -10630078.52546  22857237.554    22857249.2474
  21208343.281   -21690343.352 9 -16891983.21247  21208342.520    21208352.7494
  21767475.515   -20357078.859 9 -15690579.71747  21767475.171    21767485.4074
  23977904.858    -9265988.847 8  -7203724.96245  23977904.113    23977921.8864
  20746665.067   -21558236.221 9 -16787799.72948  20746664.053    20746673.9494
  20410528.615   -25958097.240 9 -20204612.24448  20410528.655    20410537.0904
  22938658.894   -10156340.923 8  -7890688.34946  22938658.188    22938673.0384
 02  1 25  0 55  0.0000000  0  7 24 05 06 17 10 30 23
  22872012.119   -13897274.768 8 -10569580.78246  22872011.716    22872023.4354
  21222107.452   -21618012.369 9 -16835621.45847  21222106.681    21222116.9174
  21755907.654   -20417867.975 9 -15737947.77547  21755907.309    21755917.4914
  23963006.674    -9344277.286 8  -7264728.53045  23963006.038    23963023.6304
  20745399.589   -21564886.258 9 -16792981.51248  20745398.560    20745408.4194
  20412066.770   -25950014.117 9 -20198313.69048  20412066.800    20412075.2364
  22920096.791   -10253884.188 8  -7966695.74446  22920096.058    22920110.8824
 02  1 25  0 55 30.0000000  0  7 24 05 06 17 10 30 23
  22886796.162   -13819584.352 8 -10509042.81046  22886795.731    22886807.4814
  21235949.670   -21545271.119 9 -16778940.01647  21235948.898    21235959.1434
  21744361.853   -20478541.117 9 -15785225.46247  21744361.492    21744371.6694
  23948142.394    -9422388.193 8  -7325593.78345  23948141.737    23948159.2554
  20744254.206   -21570905.006 9 -16797671.38348  20744253.172    20744263.0174
  20413718.142   -25941336.127 9 -20191551.60448  20413718.167    20413726.5924
  22901574.531   -10351218.071 8  -8042539.99046  22901573.791    22901588.4894
 02  1 25  0 56  0.0000000  0  7 24 05 06 17 10 30 23
  22901589.697   -13741843.625 8 -10448465.62646  22901589.310    22901601.0434
  21249869.632   -21472121.604 9 -16721940.44347  21249868.852    21249879.0874
  21732838.362   -20539097.026 9 -15832411.79747  21732838.029    21732848.1874
  23933311.894    -9500321.287 8  -7386320.45645  23933311.234    23933328.6454
  20743229.006   -21576292.326 9 -16801869.22548  20743227.982    20743237.7964
  20415482.665   -25932063.365 9 -20184326.06048  20415482.695    20415491.1114
  22883092.640   -10448339.742 8  -8118218.87246  22883091.886    22883106.4844
 02  1 25  0 56 30.0000000  0  7 24 05 06 17 10 30 23
  22916392.610   -13664053.966 8 -10387850.32746  22916392.232    22916403.9584
  21263866.839   -21398565.931 9 -16664624.37947  21263866.052    21263876.2984
  21721337.396   -20599534.595 9 -15879505.91547  21721337.061    21721347.2264
  23918515.300    -9578076.068 8  -7446908.20745  23918514.628    23918531.9934
  20742324.016   -21581047.787 9 -16805574.71248  20742322.989    20742332.7724
  20417360.339   -25922195.977 9 -20176637.17048  20417360.366    20417368.7844
  22864651.631   -10545246.641 8  -8193730.40746  22864650.842    22864665.3744
 02  1 25  0 57  0.0000000  0  7 24 05 06 17 10 30 23
  22931204.488   -13586217.221 8 -10327198.32946  22931204.088    22931215.7924
  21277940.882   -21324606.480 9 -16606993.68947  21277940.099    21277950.3704
  21709859.159   -20659852.890 9 -15926507.09647  21709858.808    21709868.9544
  23903752.746    -9655652.339 8  -7507356.85545  23903752.127    23903769.3694
  20741539.265   -21585171.378 9 -16808787.83248  20741538.242    20741548.0084
  20419351.111   -25911734.267 9 -20168485.17448  20419351.157    20419359.5574
  22846251.986   -10641936.076 8  -8269072.49546  22846251.210    22846265.6844
 02  1 25  0 57 30.0000000  0  7 24 05 06 17 10 30 23
  22946025.167   -13508334.081 8 -10266510.17946  22946024.778    22946036.4994
  21292091.426   -21250245.185 9 -16549049.87047  21292090.642    21292100.9124
  21698403.883   -20720050.312 9 -15973414.09147  21698403.548    21698413.6734
  23889024.296    -9733049.363 8  -7567665.83745  23889023.653    23889040.7934
  20740874.811   -21588662.920 9 -16811508.44448  20740873.792    20740883.5214
  20421455.037   -25900678.027 9 -20159869.91048  20421455.071    20421463.4804
  22827894.267   -10738405.105 8  -8344242.83746  22827893.528    22827907.9204
 02  1 25  0 58  0.0000000  0  7 24 05 06 17 10 30 23
  22960854.431   -13430405.803 8 -10205786.85346  22960854.051    22960865.7594
  21306317.958   -21175484.345 9 -16490794.71347  21306317.183    21306327.4674
  21686971.779   -20780126.052 9 -16020226.26247  21686971.442    21686981.5424
  23874329.938    -9810266.859 8  -7627834.92445  23874329.337    23874346.3564
  20740330.572   -21591522.753 9 -16813736.81448  20740329.559    20740339.2584
  20423671.989   -25889027.903 9 -20150791.88048  20423672.026    20423680.4374
  22809579.010   -10834651.307 8  -8419239.55446  22809578.268    22809592.5574
 02  1 25  0 58 30.0000000  0  7 24 05 06 17 10 30 23
  22975691.932   -13352434.188 8 -10145029.76646  22975691.540    22975703.2694
  21320620.101   -21100326.095 9 -16432229.88147  21320619.342    21320629.6454
  21675563.068   -20840078.900 9 -16066942.67347  21675562.720    21675572.8024
  23859669.932    -9887304.525 8  -7687863.88045  23859669.245    23859686.1304
  20739906.489   -21593750.864 9 -16815472.93248  20739905.472    20739915.1884
  20426001.961   -25876783.905 9 -20141251.08948  20426001.983    20426010.3614
  22791306.650   -10930672.020 8  -8494060.57246  22791305.908    22791320.0754
 02  1 25  0 59  0.0000000  0  7 24 05 06 17 10 30 23
  22990537.505   -13274420.409 8 -10084239.82846  22990537.113    22990548.8314
  21334997.502   -21024772.606 9 -16373357.07147  21334996.719    21335007.0374
  21664178.001   -20899907.495 9 -16113562.26647  21664177.642    21664187.7074
  23845044.100    -9964162.061 8  -7747752.47646  23845043.471    23845060.3424
  20739602.710   -21595347.049 9 -16816716.64148  20739601.703    20739611.3954
  20428444.828   -25863946.391 9 -20131247.82148  20428444.862    20428453.2314
  22773077.677   -11026464.804 8  -8568703.97946  22773076.897    22773091.0144
 02  1 25  0 59 30.0000000  0  7 24 05 06 17 10 30 23
  23005390.701   -13196366.164 8 -10023418.35346  23005390.320    23005402.0534
  21349449.695   -20948825.971 9 -16314177.91447  21349448.904    21349459.2344
  21652816.838   -20959610.438 9 -16160083.95447  21652816.487    21652826.5264
  23830452.673   -10040838.777 8  -7807500.18345  23830452.042    23830468.8824
  20739419.108   -21596311.580 9 -16817468.14948  20739418.100    20739427.7754
  20431000.618   -25850515.611 9 -20120782.26648  20431000.653    20431009.0294
  22754892.573   -11122026.808 8  -8643167.57646  22754891.837    22754905.8524
 02  1 25  1  0  0.0000000  0  7 24 05 06 17 10 30 23
  23020251.554   -13118271.954 8  -9962565.73646  23020251.152    23020262.8924
  21363976.364   -20872488.049 9 -16254693.86647  21363975.577    21363985.8764
  21641479.889   -21019186.264 9 -16206506.58247  21641479.526    21641489.5254
  23815895.832   -10117334.089 8  -7867106.53646  23815895.129    23815911.9254
  20739355.795   -21596644.042 9 -16817727.13948  20739354.784    20739364.4484
  20433669.308   -25836491.462 9 -20109854.34748  20433669.325    20433677.7164
  22736752.002   -11217355.243 8  -8717449.15846  22736751.215    22736765.1404
 02  1 25  1  0 30.0000000  0  7 24 05 06 17 10 30 23
  23035119.655   -13040139.656 8  -9901683.43246  23035119.238    23035130.9584
  21378576.953   -20795761.673 9 -16194907.12447  21378576.170    21378586.4834
  21630167.226   -21078634.345 9 -16252829.66547  21630166.867    21630176.8334
  23801373.391   -10193648.240 8  -7926571.70746  23801372.683    23801389.4624
  20739412.589   -21596345.277 9 -16817494.25648  20739411.574    20739421.2284
  20436450.731   -25821875.010 9 -20098464.88948  20436450.740    20436459.1144
  22718656.214   -11312447.849 8  -8791546.98646  22718655.462    22718669.3104
 02  1 25  1  1  0.0000000  0  7 24 05 06 17 10 30 23
  23049994.941   -12961969.943 8  -9840771.98546  23049994.491    23050006.2064
  21393251.115   -20718648.530 9 -16134819.00247  21393250.321    21393260.6384
  21618879.236   -21137952.900 9 -16299051.80947  21618878.842    21618888.7804
  23786885.651   -10269780.237 8  -7985894.95746  23786884.913    23786901.6674
  20739589.610   -21595414.723 9 -16816769.07648  20739588.592    20739598.2314
  20439344.949   -25806665.797 9 -20086613.54048  20439344.966    20439353.3224
  22700605.913   -11407301.484 8  -8865458.61346  22700605.179    22700618.9664
 02  1 25  1  1 30.0000000  0  7 24 05 06 17 10 30 23
  23064876.887   -12883764.652 8  -9779832.81346  23064876.468    23064888.1664
  21407998.321   -20641151.670 9 -16074431.87747  21407997.531    21408007.8594
  21607616.071   -21197141.005 9 -16345172.30947  21607615.679    21607625.5444
  23772432.509   -10345730.341 8  -8045076.47446  23772431.739    23772448.4204
  20739886.683   -21593853.268 9 -16815552.28548  20739885.666    20739895.2784
  20442351.725   -25790865.045 9 -20074301.25348  20442351.744    20442360.0944
  22682601.532   -11501914.154 8  -8939182.47146  22682600.763    22682614.4644
 02  1 25  1  2  0.0000000  0  7 24 05 06 17 10 30 23
  23079765.417   -12805524.967 8  -9718866.83346  23079765.011    23079776.6714
  21422818.214   -20563272.710 9 -16013747.01447  21422817.432    21422827.7894
  21596378.014   -21256197.120 9 -16391189.95847  21596377.609    21596387.4444
  23758014.147   -10421497.679 8  -8104115.57346  23758013.390    23758029.9684
  20740303.894   -21591660.513 9 -16813843.57048  20740302.877    20740312.4904
  20445471.095   -25774472.506 9 -20061527.83048  20445471.105    20445479.4494
  22664643.540   -11596282.778 8  -9012716.17946  22664642.765    22664656.3794
 02  1 25  1  2 30.0000000  0  7 24 05 06 17 10 30 23
  23094660.260   -12727252.011 8  -9657874.93146  23094659.850    23094671.5664
  21437710.359   -20485014.098 9 -15952766.31747  21437709.582    21437719.9444
  21585165.296   -21315120.093 9 -16437103.85747  21585164.892    21585174.6734
  23743630.612   -10497082.154 8  -8163012.17046  23743629.927    23743646.3714
  20740841.161   -21588836.972 9 -16811643.33248  20740840.125    20740849.7314
  20448702.962   -25757488.858 9 -20048293.79848  20448702.968    20448711.3164
  22646732.430   -11690404.910 8  -9086057.81046  22646731.715    22646745.2214
 02  1 25  1  3  0.0000000  0  7 24 05 06 17 10 30 23
  23109561.281   -12648946.689 8  -9596857.81146  23109560.853    23109572.6304
  21452674.305   -20406378.042 9 -15891491.50947  21452673.543    21452683.9244
  21573978.162   -21373908.611 9 -16482912.99147  21573977.756    21573987.4854
  23729282.002   -10572483.268 8  -8221765.90046  23729281.211    23729297.6114
  20741498.448   -21585382.708 9 -16808951.62248  20741497.410    20741506.9794
  20452047.270   -25739914.506 9 -20034599.48348  20452047.272    20452055.6154
  22628868.802   -11784277.906 8  -9159205.32746  22628868.062    22628881.4584
 02  1 25  1  3 30.0000000  0  7 24 05 06 17 10 30 23
  23124468.052   -12570610.865 8  -9535816.92246  23124467.614    23124479.3964
  21467709.582   -20327367.360 9 -15829924.78447  21467708.804    21467719.1784
  21562816.777   -21432561.707 9 -16528616.59947  21562816.363    21562826.0754
  23714968.246   -10647701.171 8  -8280376.87946  23714967.450    23714983.6924
  20742275.612   -21581298.345 9 -16805768.92348  20742274.582    20742284.1404
  20455503.785   -25721750.289 9 -20020445.52548  20455503.789    20455512.1284
  22611053.024   -11877899.312 8  -9232156.80146  22611052.265    22611065.6354
 02  1 25  1  4  0.0000000  0  7 24 05 06 17 10 30 23
  23139380.509   -12492245.548 8  -9474753.04546  23139380.081    23139391.8394
  21482815.778   -20247983.988 9 -15768067.65547  21482814.987    21482825.3784
  21551681.454   -21491077.951 9 -16574213.56647  21551681.022    21551690.7264
  23700689.496   -10722735.143 8  -8338844.53346  23700688.695    23700704.8154
  20743172.652   -21576583.957 9 -16802095.29548  20743171.621    20743181.1714
  20459072.471   -25702996.561 9 -20005832.21448  20459072.499    20459080.8184
  22593285.597   -11971266.380 8  -9304910.09546  22593284.875    22593298.1804
 02  1 25  1  4 30.0000000  0  7 24 05 06 17 10 30 23
  23154298.297   -12413851.939 8  -9413667.14646  23154297.883    23154309.6114
  21497992.444   -20168230.204 9 -15705921.89647  21497991.660    21498002.0564
  21540572.398   -21549455.906 9 -16619702.77947  21540572.002    21540581.6574
  23686445.788   -10797584.998 8  -8397168.72346  23686444.986    23686461.0084
  20744189.511   -21571239.983 9 -16797931.08148  20744188.477    20744198.0074
  20462753.290   -25683653.722 9 -19990759.85448  20462753.301    20462761.6334
  22575567.010   -12064376.657 8  -9377463.30046  22575566.321    22575579.5964
 02  1 25  1  5  0.0000000  0  7 24 05 06 17 10 30 23
  23169221.399   -12335431.147 8  -9352560.04546  23169220.952    23169232.6464
  21513239.190   -20088108.174 9 -15643489.19747  21513238.395    21513248.8164
  21529489.964   -21607694.159 9 -16665083.12947  21529489.545    21529499.1794
  23672237.135   -10872250.211 8  -8455349.03946  23672236.402    23672252.2654
  20745326.166   -21565266.630 9 -16793276.43748  20745325.130    20745334.6234
  20466546.103   -25663722.349 9 -19975228.89648  20466546.125    20466554.4414
  22557897.874   -12157227.587 8  -9449814.41746  22557897.154    22557910.3914
 02  1 25  1  5 30.0000000  0  7 24 05 06 17 10 30 23
  23184149.304   -12256984.694 8  -9291432.95146  23184148.828    23184160.5114
  21528555.532   -20007620.486 9 -15580771.57047  21528554.742    21528565.1614
  21518434.326   -21665791.653 9 -16710353.79747  21518433.898    21518443.4844
  23658063.664   -10946730.870 8  -8513385.55546  23658062.925    23658078.6964
  20746582.465   -21558664.463 9 -16788131.80948  20746581.431    20746590.9224
  20470450.710   -25643203.269 9 -19959239.98248  20470450.732    20470459.0464
  22540278.542   -12249816.805 8  -9521961.61946  22540277.820    22540290.9584
 02  1 25  1  6  0.0000000  0  7 24 05 06 17 10 30 23
  23199081.978   -12178513.058 8  -9230286.23246  23199081.500    23199093.1804
  21543941.062   -19926769.060 9 -15517770.51847  21543940.270    21543950.7144
  21507405.774   -21723746.641 9 -16755513.42947  21507405.333    21507414.9014
  23643925.406   -11021026.193 8  -8571277.65146  23643924.682    23643940.4274
  20747958.385   -21551433.527 9 -16782497.23448  20747957.348    20747966.8214
  20474467.161   -25622096.639 9 -19942793.24148  20474467.181    20474475.4874
  22522709.649   -12342141.172 8  -9593902.44846  22522708.903    22522721.9974
 02  1 25  1  6 30.0000000  0  7 24 05 06 17 10 30 23
  23214019.141   -12100017.898 8  -9169121.18646  23214018.669    23214030.3044
  21559395.289   -19845556.837 9 -15454488.32147  21559394.502    21559404.9654
  21496404.526   -21781558.299 9 -16800561.37647  21496404.079    21496413.5994
  23629822.483   -11095136.266 8  -8629025.39946  23629821.775    23629837.3984
  20749453.783   -21543574.776 9 -16776373.45048  20749452.753    20749462.2104
  20478595.218   -25600403.598 9 -19925889.55448  20478595.224    20478603.5294
  22505191.554   -12434198.537 8  -9665635.23446  22505190.771    22505203.7784
 02  1 25  1  7  0.0000000  0  7 24 05 06 17 10 30 23
  23228960.522   -12021500.199 8  -9107938.57346  23228960.076    23228971.7324
  21574917.723   -19763985.964 9 -15390926.66047  21574916.926    21574927.4114
  21485430.809   -21839225.067 9 -16845496.42247  21485430.366    21485439.8934
  23615754.903   -11169060.661 8  -8686628.47346  23615754.174    23615769.6624
  20751068.591   -21535088.702 9 -16769760.84448  20751067.555    20751076.9934
  20482834.766   -25578124.508 9 -19908529.20948  20482834.779    20482843.0784
  22487724.744   -12525986.241 8  -9737157.89746  22487723.993    22487736.9084
 02  1 25  1  7 30.0000000  0  7 24 05 06 17 10 30 23
  23243905.957   -11942961.409 8  -9046739.53546  23243905.489    23243917.1374
  21590507.947   -19682058.949 9 -15327087.47847  21590507.173    21590517.6764
  21474484.930   -21896745.633 9 -16890317.54747  21474484.484    21474493.9844
  23601722.647   -11242799.169 8  -8744086.70146  23601721.898    23601737.3334
  20752802.695   -21525975.596 9 -16762659.64548  20752801.664    20752811.0694
  20487185.732   -25555260.036 9 -19890712.72148  20487185.737    20487194.0384
  22470309.729   -12617501.801 8  -9808468.50746  22470308.969    22470321.8354
 02  1 25  1  8  0.0000000  0  7 24 05 06 17 10 30 23
  23258855.304   -11864402.312 8  -8985524.67046  23258854.840    23258866.4884
  21606165.535   -19599777.878 9 -15262972.40947  21606164.773    21606175.2794
  21463567.105   -21954118.629 9 -16935023.68347  21463566.682    21463576.1634
  23587725.900   -11316351.294 8  -8801399.70646  23587725.108    23587740.4334
  20754655.985   -21516236.098 9 -16755070.34948  20754654.961    20754664.3534
  20491647.923   -25531810.988 9 -19872440.72448  20491647.927    20491656.2244
  22452947.079   -12708742.367 8  -9879564.84046  22452946.299    22452959.1174
 02  1 25  1  8 30.0000000  0  7 24 05 06 17 10 30 23
  23273808.173   -11785824.486 8  -8924295.21446  23273807.728    23273819.3594
  21621889.991   -19517145.570 9 -15198583.64847  21621889.197    21621899.7364
  21452677.558   -22011342.973 9 -16979613.98647  21452677.161    21452686.6114
  23573764.503   -11389717.438 8  -8858567.79446  23573763.743    23573778.9534
  20756628.343   -21505870.938 9 -16746993.52348  20756627.306    20756636.6764
  20496221.146   -25507778.472 9 -19853714.07148  20496221.151    20496229.4424
  22435637.082   -12799706.018 8  -9950445.39946  22435636.313    22435649.0954
 02  1 25  1  9  0.0000000  0  7 24 05 06 17 10 30 23
  23288764.433   -11707228.800 8  -8863051.82146  23288763.944    23288775.6674
  21637680.916   -19434163.973 9 -15133922.70947  21637680.126    21637690.6704
  21441816.732   -22068416.602 9 -17024086.85347  21441816.340    21441825.7684
  23559838.750   -11462896.704 8  -8915590.27246  23559837.964    23559853.0394
  20758719.748   -21494880.183 9 -16738429.21948  20758718.718    20758728.0674
  20500905.331   -25483162.746 9 -19834532.96848  20500905.349    20500913.6564
  22418380.364   -12890389.650 8 -10021107.76346  22418379.609    22418392.3454
 02  1 25  1  9 30.0000000  0  7 24 05 06 17 10 30 23
  23303723.843   -11628616.408 8  -8801795.42546  23303723.408    23303735.1574
  21653537.816   -19350835.519 9 -15068991.50047  21653537.038    21653547.5864
  21430984.800   -22125338.419 9 -17068441.42247  21430984.388    21430993.8084
  23545948.557   -11535888.760 8  -8972466.88946  23545947.770    23545962.7404
  20760930.057   -21483264.635 9 -16729378.07348  20760929.028    20760938.3594
  20505700.365   -25457964.543 9 -19814897.99548  20505700.389    20505708.6824
  22401177.408   -12980790.808 8 -10091550.02246  22401176.658    22401189.3554
 02  1 25  1 10  0.0000000  0  7 24 05 06 17 10 30 23
  23318686.328   -11549988.090 8  -8740526.61646  23318685.880    23318697.6844
  21669460.253   -19267162.780 9 -15003792.01247  21669459.475    21669470.0064
  21420182.052   -22182107.078 9 -17112676.65247  21420181.627    21420191.0324
  23532094.013   -11608693.587 8  -9029197.61446  23532093.231    23532108.1054
  20763259.107   -21471025.045 9 -16719840.66048  20763258.076    20763267.3964
  20510606.064   -25432184.900 9 -19794809.95148  20510606.073    20510614.3614
  22384028.736   -13070907.052 8 -10161770.26146  22384027.970    22384040.6134
 02  1 25  1 10 30.0000000  0  7 24 05 06 17 10 30 23
  23333651.491   -11471345.374 8  -8679246.58846  23333651.089    23333662.9284
  21685447.748   -19183148.234 9 -14938326.17647  21685446.977    21685457.5214
  21409408.609   -22238721.236 9 -17156791.49547  21409408.205    21409417.5994
  23518275.198   -11681311.044 8  -9085782.34246  23518274.378    23518289.1004
  20765706.814   -21458162.126 9 -16709817.54648  20765705.761    20765715.0674
  20515622.206   -25405824.826 9 -19774269.62348  20515622.220    20515630.4984
  22366934.656   -13160736.077 8 -10231766.70247  22366933.894    22366946.4694
 02  1 25  1 11  0.0000000  0  7 24 05 06 17 10 30 23
  23348619.325   -11392688.911 8  -8617955.85846  23348618.887    23348630.7604
  21701499.807   -19098794.096 9 -14872595.72347  21701499.045    21701509.6164
  21398664.928   -22295179.374 9 -17200784.75547  21398664.513    21398673.9094
  23504491.971   -11753740.692 8  -9142220.73546  23504491.219    23504505.8364
  20768272.998   -21444676.363 9 -16699309.10048  20768271.965    20768281.2374
  20520748.707   -25378884.718 9 -19753277.32148  20520748.721    20520757.0124
  22349895.794   -13250275.079 8 -10301537.15447  22349895.040    22349907.5474
 02  1 25  1 11 30.0000000  0  7 24 05 06 17 10 30 23
  23363589.446   -11314020.313 8  -8556655.66446  23363589.004    23363600.9284
  21717616.003   -19014103.104 9 -14806602.78847  21717615.248    21717625.8144
  21387951.116   -22351480.320 9 -17244655.53447  21387950.690    21387960.0884
  23490744.603   -11825982.317 8  -9198512.62746  23490743.857    23490758.4564
  20770957.575   -21430568.649 9 -16688316.02048  20770956.526    20770965.7924
  20525985.353   -25351365.843 9 -19731834.03948  20525985.376    20525993.6594
  22332912.615   -13339521.647 8 -10371079.72747  22332911.837    22332924.2894
 02  1 25  1 12  0.0000000  0  7 24 05 06 17 10 30 23
  23378561.757   -11235340.522 8  -8495346.74046  23378561.249    23378573.1584
  21733795.858   -18929077.790 9 -14740349.33947  21733795.077    21733805.6394
  21377267.508   -22407622.650 9 -17288402.71247  21377267.076    21377276.4674
  23477033.019   -11898035.987 8  -9254658.06846  23477032.269    23477046.8464
  20773760.256   -21415840.084 9 -16676839.15848  20773759.216    20773768.4624
  20531331.978   -25323269.109 9 -19709940.47048  20531332.005    20531340.2904
  22315985.480   -13428473.499 8 -10440392.64947  22315984.726    22315997.1254
 02  1 25  1 12 30.0000000  0  7 24 05 06 17 10 30 23
  23393536.039   -11156650.260 8  -8434029.67246  23393535.522    23393547.4284
  21750038.887   -18843720.326 9 -14673837.08047  21750038.092    21750048.6794
  21366614.381   -22463604.782 9 -17332025.06547  21366613.951    21366623.3234
  23463357.318   -11969901.059 8  -9310656.54946  23463356.587    23463371.0694
  20776681.056   -21400491.038 9 -16664878.81148  20776680.014    20776689.2384
  20536788.435   -25294595.228 9 -19687597.18148  20536788.477    20536796.7524
  22299114.953   -13517127.808 8 -10509473.72447  22299114.195    22299126.5694
 02  1 25  1 13  0.0000000  0  7 24 05 06 17 10 30 23
  23408511.973   -11077951.013 8  -8372705.59446  23408511.505    23408523.4504
  21766344.537   -18758033.858 9 -14607068.45147  21766343.734    21766354.3124
  21355991.880   -22519425.988 9 -17375522.02947  21355991.455    21356000.8024
  23449717.343   -12041578.144 8  -9366508.55546  23449716.639    23449731.0974
  20779719.643   -21384522.854 9 -16652436.02948  20779718.600    20779727.8034
  20542354.405   -25265345.795 9 -19664805.41348  20542354.444    20542362.7044
  22282301.472   -13605482.728 8 -10578321.50547  22282300.705    22282312.9794
 02  1 25  1 13 30.0000000  0  7 24 05 06 17 10 30 23
  23423489.572   -10999243.397 8  -8311374.99846  23423489.066    23423501.0164
  21782712.487   -18672019.878 9 -14540044.62347  21782711.682    21782722.2774
  21345400.486   -22575083.953 9 -17418891.78347  21345400.047    21345409.3864
  23436113.401   -12113066.077 8  -9422213.18246  23436112.737    23436127.1094
  20782876.053   -21367935.705 9 -16639510.93548  20782875.015    20782884.1844
  20548029.919   -25235520.853 9 -19641565.19248  20548029.955    20548038.1924
  22265545.561   -13693534.888 8 -10646933.36547  22265544.774    22265556.9914
 02  1 25  1 14  0.0000000  0  7 24 05 06 17 10 30 23
  23438468.427   -10920528.974 8  -8250039.10546  23438467.946    23438479.8834
  21799142.136   -18585681.539 9 -14472768.04547  21799141.338    21799151.9334
  21334840.294   -22630577.692 9 -17462133.57347  21334839.858    21334849.1634
  23422545.464   -12184365.258 8  -9477770.72746  23422544.730    23422559.0354
  20786150.016   -21350730.594 9 -16626104.31248  20786148.979    20786158.1244
  20553814.623   -25205122.108 9 -19617877.85248  20553814.640    20553822.8824
  22248847.566   -13781282.566 8 -10715307.96747  22248846.804    22248858.9454
 02  1 25  1 14 30.0000000  0  7 24 05 06 17 10 30 23
  23453448.476   -10841808.284 8  -8188698.30846  23453448.036    23453459.9074
  21815633.081   -18499021.242 9 -14405240.59447  21815632.302    21815642.9224
  21324311.645   -22685905.648 9 -17505246.17947  21324311.227    21324320.5234
  23409013.478   -12255475.372 8  -9533180.96146  23409012.708    23409026.9694
  20789541.393   -21332908.597 9 -16612217.00248  20789540.351    20789549.4814
  20559708.295   -25174150.532 9 -19593744.15248  20559708.320    20559716.5424
  22232207.972   -13868723.166 8 -10783443.28347  22232207.234    22232219.3484
 02  1 25  1 15  0.0000000  0  7 24 05 06 17 10 30 23
  23468429.561   -10763082.293 8  -8127353.38846  23468429.095    23468440.9394
  21832184.842   -18412041.429 9 -14337464.17147  21832184.063    21832194.6804
  21313814.850   -22741066.306 9 -17548228.42647  21313814.433    21313823.7184
  23395517.511   -12326396.142 8  -9588443.66646  23395516.752    23395530.9614
  20793050.042   -21314470.519 9 -16597849.62948  20793048.992    20793058.1064
  20565710.875   -25142606.983 9 -19569164.75548  20565710.885    20565719.1034
  22215627.284   -13955854.304 8 -10851337.45647  22215626.522    22215638.6014
 02  1 25  1 15 30.0000000  0  7 24 05 06 17 10 30 23
  23483411.406   -10684352.350 8  -8066005.37946  23483410.963    23483422.7214
  21848796.912   -18324744.625 9 -14269440.74747  21848796.123    21848806.7484
  21303350.170   -22796058.283 9 -17591079.23147  21303349.768    21303359.0274
  23382057.540   -12397127.518 8  -9643558.79146  23382056.799    23382071.0064
  20796675.688   -21295417.438 9 -16583003.03848  20796674.642    20796683.7314
  20571822.052   -25110492.524 9 -19544140.49548  20571822.064    20571830.2884
  22199105.917   -14042673.628 8 -10918988.65847  22199105.200    22199117.2154
 02  1 25  1 16  0.0000000  0  8 24 05 06 17 10 30 23 15
  23498391.114   -10605633.564 8  -8004666.06646  23498390.683    23498402.4014
  21865466.144   -18237147.462 9 -14201183.27247  21865465.363    21865475.9734
  21292915.183   -22850894.251 9 -17633808.47347  21292914.772    21292924.0084
  23368631.061   -12467683.364 8  -9698537.15246  23368630.324    23368644.4314
  20800415.476   -21275764.593 9 -16567689.09648  20800414.433    20800423.5074
  20578038.938   -25077822.525 9 -19518683.34548  20578038.940    20578047.1634
  22182641.733   -14129192.725 8 -10986405.91947  22182640.997    22182652.9574
  24710799.767    -4752495.132 8  -3689279.95045  24710798.941    24710821.6014
 02  1 25  1 16 30.0000000  0  8 24 05 06 17 10 30 23 15
  23513371.869   -10526909.230 8  -7943322.43446  23513371.452    23513383.1134
  21882195.413   -18149234.839 9 -14132679.98947  21882194.612    21882205.2674
  21282513.520   -22905554.981 9 -17676401.16847  21282513.123    21282522.3104
  23355241.401   -12538045.816 8  -9753364.81646  23355240.684    23355254.6844
  20804272.664   -21255494.780 9 -16551894.40647  20804271.623    20804280.6944
  20584364.715   -25044580.279 9 -19492780.28648  20584364.731    20584372.9434
  22166238.543   -14215391.357 8 -11053573.46547  22166237.783    22166249.7084
  24694152.803    -4839973.577 8  -3757444.39645  24694151.965    24694174.5364
 02  1 25  1 17  0.0000000  0  8 24 05 06 17 10 30 23 15
  23528353.793   -10448179.064 8  -7881974.27246  23528353.310    23528365.0044
  21898984.476   -18061007.835 9 -14063931.73247  21898983.669    21898994.3664
  21272145.755   -22960037.837 9 -17718855.26047  21272145.360    21272154.5044
  23341888.771   -12608213.512 8  -9808040.73346  23341888.048    23341901.9474
  20808247.204   -21234608.108 9 -16535619.04547  20808246.171    20808255.2494
  20590799.375   -25010765.846 9 -19466431.37048  20590799.376    20590807.6024
  22149897.007   -14301265.852 8 -11120488.44047  22149896.246    22149908.0994
  24677532.610    -4927310.971 8  -3825498.93145  24677531.821    24677554.2874
 02  1 25  1 17 30.0000000  0  8 24 05 06 17 10 30 23 15
  23543336.185   -10369445.913 8  -7820623.75446  23543335.748    23543347.4674
  21915832.508   -17972471.091 9 -13994942.12147  21915831.705    21915842.4224
  21261811.668   -23014343.424 9 -17761171.22047  21261811.274    21261820.3814
  23328572.772   -12678188.461 8  -9862566.46346  23328572.066    23328585.9174
  20812338.543   -21213107.889 9 -16518865.59847  20812337.509    20812346.5684
  20597342.338   -24976382.431 9 -19439639.09148  20597342.317    20597350.5184
  22133617.165   -14386816.101 8 -11187150.74947  22133616.417    22133628.2104
  24660938.982    -5014508.938 8  -3893444.82045  24660938.169    24660960.4504
 02  1 25  1 18  0.0000000  0  8 24 05 06 17 10 30 23 15
  23558318.741   -10290711.972 8  -7759272.63346  23558318.346    23558330.0274
  21932738.704   -17883628.508 8 -13925714.19147  21932737.911    21932748.6554
  21251511.428   -23068471.438 9 -17803348.80847  21251511.025    21251520.0904
  23315293.327   -12747971.670 8  -9916942.78646  23315292.609    23315306.3634
  20816546.286   -21190996.016 9 -16501635.53647  20816545.246    20816554.3034
  20603993.079   -24941432.483 9 -19412405.35548  20603993.072    20604001.2684
  22117399.298   -14472040.865 8 -11253559.44047  22117398.524    22117410.2494
  24644371.724    -5101568.081 7  -3961282.54845  24644370.998    24644392.9004
 02  1 25  1 18 30.0000000  0  8 24 05 06 17 10 30 23 15
  23573301.087   -10211979.347 8  -7697922.54346  23573300.683    23573312.3464
  21949702.534   -17794483.216 9 -13856250.38747  21949701.747    21949712.5074
  21241245.140   -23122420.872 9 -17845387.23847  21241244.722    21241253.7914
  23302050.319   -12817563.574 8  -9971170.04046  23302049.567    23302063.2704
  20820869.999   -21168274.578 9 -16483930.48847  20820868.952    20820878.0034
  20610751.277   -24905917.896 9 -19384731.63948  20610751.264    20610759.4794
  22101243.636   -14556938.495 8 -11319713.21447  22101242.888    22101254.5744
  24627830.905    -5188488.422 8  -4029012.08145  24627830.169    24627852.0824
 02  1 25  1 19  0.0000000  0  8 24 05 06 17 10 30 23 15
  23588282.977   -10133248.775 8  -7636574.04446  23588282.581    23588294.2694
  21966723.432   -17705038.139 9 -13786552.98147  21966722.634    21966733.3854
  21231013.022   -23176190.749 9 -17887285.76247  21231012.596    21231021.6284
  23288843.568   -12886964.520 8 -10025248.49346  23288842.850    23288856.4684
  20825309.461   -21144944.994 9 -16465751.56147  20825308.419    20825317.4564
  20617616.623   -24869840.186 9 -19356619.12748  20617616.621    20617624.8194
  22085150.633   -14641506.966 8 -11385610.51747  22085149.879    22085161.5254
  24611316.494    -5275269.838 8  -4096633.40545  24611315.822    24611337.3704
 02  1 25  1 19 30.0000000  0  8 24 05 06 17 10 30 23 15
  23603264.291   -10054521.555 8  -7575228.16646  23603263.861    23603275.5254
  21983800.839   -17615296.091 8 -13716624.17347  21983800.032    21983810.7874
  21220815.305   -23229779.780 9 -17929043.37147  21220814.896    21220823.8794
  23275673.213   -12956174.531 8 -10079178.16746  23275672.458    23275685.9854
  20829864.412   -21121008.354 9 -16447099.60447  20829863.366    20829872.4064
  20624588.851   -24833200.958 9 -19328069.06748  20624588.834    20624597.0494
  22069120.660   -14725744.134 8 -11451249.65447  22069119.906    22069131.4994
  24594828.448    -5361912.401 7  -4164146.51745  24594827.846    24594849.1234
 02  1 25  1 20  0.0000000  0  8 24 05 06 17 10 30 23 15
  23618244.776    -9975798.662 8  -7513885.66246  23618244.300    23618255.9954
  22000934.220   -17525259.712 8 -13646466.01847  22000933.420    22000944.2084
  21210652.286   -23283186.416 9 -17970658.84847  21210651.891    21210660.8384
  23262539.208   -13025193.442 8 -10132958.92346  23262538.450    23262551.9394
  20834534.646   -21096466.120 9 -16427975.75847  20834533.583    20834542.6164
  20631667.680   -24796001.405 9 -19299082.38748  20631667.644    20631675.8604
  22053154.202   -14809647.659 8 -11516628.81347  22053153.430    22053164.9504
  24578367.070    -5448415.524 7  -4231550.98245  24578366.372    24578387.5004
 02  1 25  1 20 30.0000000  0  8 24 05 06 17 10 30 23 15
  23633224.224    -9897081.023 8  -7452547.24846  23633223.750    23633235.5174
  22018123.102   -17434931.692 8 -13576080.60547  22018122.321    22018133.1124
  21200524.251   -23336409.391 9 -18012131.21447  21200523.853    21200532.7334
  23249441.515   -13094021.414 8 -10186590.89846  23249440.748    23249454.1634
  20839319.821   -21071319.720 9 -16408381.13247  20839318.760    20839327.7684
  20638852.828   -24758243.133 9 -19269660.34148  20638852.790    20638861.0004
  22037251.661   -14893215.365 8 -11581746.30147  22037250.889    22037262.3454
  24561932.190    -5534778.782 8  -4298846.47145  24561931.429    24561952.5404
 02  1 25  1 21  0.0000000  0  8 24 05 06 17 10 30 23 15
  23648202.415    -9818369.608 8  -7391213.68946  23648201.990    23648213.8454
  22035367.040   -17344314.571 8 -13505469.92747  22035366.214    22035377.0464
  21190431.491   -23389446.965 9 -18053459.11147  21190431.090    21190439.9364
  23236380.111   -13162658.323 8 -10240073.97646  23236379.340    23236392.7654
  20844219.777   -21045570.157 9 -16388316.50747  20844218.718    20844227.7264
  20646144.037   -24719927.374 9 -19239803.89448  20646144.032    20646152.2274
  22021413.459   -14976444.854 8 -11646600.24347  22021412.674    22021424.0824
  24545524.108    -5621001.615 7  -4366032.56245  24545523.269    24545544.1554
 02  1 25  1 21 30.0000000  0  8 24 05 06 17 10 30 23 15
  23663179.327    -9739665.614 8  -7329885.91946  23663178.853    23663190.7194
  22052665.450   -17253411.125 8 -13434636.13147  22052664.608    22052675.4484
  21180374.260   -23442297.793 9 -18094641.49247  21180373.842    21180382.6484
  23223355.180   -13231104.044 8 -10293408.07546  23223354.407    23223367.7124
  20849234.261   -21019218.779 9 -16367782.93547  20849233.196    20849242.1904
  20653541.109   -24681055.412 9 -19209514.04048  20653541.101    20653549.3004
  22005640.055   -15059333.932 8 -11711188.93347  22005639.283    22005650.6184
  24529142.802    -5707083.810 7  -4433109.04345  24529141.740    24529162.6724
 02  1 25  1 22  0.0000000  0  8 24 05 06 17 10 30 23 15
  23678154.603    -9660969.830 8  -7268564.54146  23678154.145    23678166.0424
  22070017.844   -17162223.852 8 -13363581.17547  22070017.035    22070027.8544
  21170352.839   -23494960.411 9 -18135677.22047  21170352.440    21170361.2264
  23210366.594   -13299358.480 8 -10346593.11846  23210365.839    23210379.0764
  20854363.022   -20992266.848 9 -16346781.39947  20854361.946    20854370.9454
  20661043.703   -24641628.913 9 -19178792.08048  20661043.707    20661051.8864
  21989931.819   -15141880.364 8 -11775510.63447  21989931.068    21989942.3544
  24512788.171    -5793024.865 7  -4500075.56045  24512787.332    24512808.1214
 02  1 25  1 22 30.0000000  0  8 24 05 06 17 10 30 23 15
  23693128.215    -9582282.679 8  -7207249.89346  23693127.768    23693139.7344
  22087423.808   -17070755.082 8 -13292306.87247  22087423.015    22087433.8464
  21160367.584   -23547433.032 9 -18176564.89647  21160367.163    21160375.9334
  23197414.450   -13367421.436 8 -10399628.92546  23197413.725    23197426.9054
  20859605.876   -20964715.347 9 -16325312.66247  20859604.796    20859613.7944
  20668651.617   -24601649.025 9 -19147638.90948  20668651.620    20668659.8154
  21974289.307   -15224081.533 8 -11839563.30047  21974288.537    21974299.7414
  24496460.708    -5878824.043 7  -4566931.53745  24496459.854    24496480.4724
 02  1 25  1 23  0.0000000  0  8 24 05 06 17 10 30 23 15
  23708100.053    -9503605.109 8  -7145942.70946  23708099.624    23708111.5744
  22104882.826   -16979007.549 8 -13220815.35347  22104882.018    22104892.8424
  21150418.751   -23599714.122 9 -18217303.33047  21150418.340    21150427.0854
  23184498.791   -13435292.752 8 -10452515.41346  23184498.047    23184511.2104
  20864962.502   -20936565.926 9 -16303378.01847  20864961.438    20864970.4244
  20676364.586   -24561117.122 9 -19116055.59848  20676364.571    20676372.7604
  21958712.881   -15305935.370 9 -11903345.32347  21958712.130    21958723.2584
  24480160.283    -5964481.113 7  -4633676.80445  24480159.589    24480179.9304
 02  1 25  1 23 30.0000000  0  8 24 05 06 17 10 30 23 15
  23723069.895    -9424938.307 8  -7084643.92346  23723069.411    23723081.3734
  22122394.316   -16886984.250 8 -13149108.95547  22122393.525    22122404.3504
  21140506.556   -23651802.734 9 -18257891.77547  21140506.122    21140514.8604
  23171619.518   -13502973.057 8 -10505253.06046  23171618.693    23171631.8254
  20870432.525   -20907820.580 9 -16280979.01647  20870431.491    20870440.4654
  20684182.161   -24520035.253 9 -19084043.74548  20684182.159    20684190.3694
  21943202.908   -15387440.104 9 -11966855.31847  21943202.148    21943213.2334
  24463886.992    -6049995.887 7  -4700311.18545  24463886.255    24463906.5924
 02  1 25  1 24  0.0000000  0  8 24 05 06 17 10 30 23 15
  23738037.318    -9346283.474 8  -7023354.44746  23738036.959    23738048.9254
  22139957.844   -16794687.758 8 -13077189.67847  22139957.036    22139967.8394
  21130631.325   -23703697.115 9 -18298328.87247  21130630.889    21130639.6114
  23158776.570   -13570461.871 8 -10557841.48446  23158775.833    23158788.9124
  20876015.788   -20878480.227 9 -16258116.37047  20876014.746    20876023.6984
  20692104.172   -24478404.746 9 -19051604.38048  20692104.174    20692112.3854
  21927759.822   -15468593.323 9 -12030091.40547  21927759.059    21927770.0924
  24447640.879    -6135368.026 7  -4766834.43045  24447639.992    24447660.3354
 02  1 25  1 24 30.0000000  0  8 24 05 06 17 10 30 23 15
  23753002.595    -9267640.893 8  -6962074.53646  23753002.139    23753014.1384
  22157572.867   -16702120.557 8 -13005059.45847  22157572.032    22157582.8524
  21120793.410   -23755395.469 9 -18338613.22247  21120792.969    21120801.6494
  23145970.146   -13637759.248 8 -10610280.72346  23145969.459    23145982.4224
  20881712.044   -20848546.145 9 -16234791.08047  20881710.982    20881719.9134
  20700130.346   -24436226.925 9 -19018738.53848  20700130.338    20700138.5544
  21912384.096   -15549392.489 9 -12093051.60547  21912383.343    21912394.3044
  24431422.062    -6220596.818 8  -4833245.98145  24431421.249    24431441.3964
 02  1 25  1 25  0.0000000  0  8 24 05 06 17 10 30 23 15
  23767965.287    -9189011.719 8  -6900805.06146  23767964.771    23767976.8264
  22175238.867   -16609285.330 8 -12932720.38547  22175238.052    22175248.8644
  21110993.062   -23806896.306 9 -18378743.66147  21110992.634    21111001.3064
  23133200.225   -13704864.835 8 -10662570.51646  23133199.519    23133212.4474
  20887521.061   -20818019.543 9 -16211004.08747  20887520.001    20887528.9064
  20708260.339   -24393503.501 9 -18985447.55348  20708260.340    20708268.5534
  21897076.200   -15629835.409 9 -12155734.21547  21897075.430    21897086.3374
  24415230.584    -6305681.729 8  -4899545.46445  24415229.749    24415249.7574
 02  1 25  1 25 30.0000000  0  8 24 05 06 17 10 30 23 15
  23782925.219    -9110396.745 8  -6839546.65146  23782924.694    23782936.7794
  22192955.378   -16516184.740 8 -12860174.53947  22192954.567    22192965.4124
  21101230.577   -23858198.115 9 -18418719.01347  21101230.152    21101238.8234
  23120466.728   -13771779.002 8 -10714711.15946  23120466.015    23120478.9054
  20893442.422   -20786902.466 9 -16186756.98147  20893441.352    20893450.2444
  20716493.924   -24350235.698 9 -18951732.38048  20716493.910    20716502.1274
  21881836.488   -15709920.006 9 -12218137.61547  21881835.711    21881846.5644
  24399066.443    -6390622.536 7  -4965732.66745  24399065.649    24399085.5714
 02  1 25  1 26  0.0000000  0  8 24 05 06 17 10 30 23 15
  23797882.400    -9031796.338 8  -6778299.57746  23797881.899    23797893.9414
  22210721.936   -16422821.042 8 -12787423.67747  22210721.148    22210731.9834
  21091506.323   -23909298.975 9 -18458537.78447  21091505.894    21091514.5534
  23107769.779   -13838501.089 8 -10766702.11746  23107769.035    23107781.8684
  20899476.034   -20755195.635 9 -16162050.32647  20899474.965    20899483.8244
  20724830.807   -24306424.996 9 -18917594.16548  20724830.808    20724839.0014
  21866665.398   -15789643.677 9 -12280259.77347  21866664.603    21866675.4424
  24382930.014    -6475418.427 8  -5031806.95145  24382929.190    24382949.0154
 02  1 25  1 26 30.0000000  0  8 24 05 06 17 10 30 23 15
  23812836.605    -8953211.791 8  -6717064.87146  23812836.096    23812848.0524
  22228538.015   -16329197.127 8 -12714470.05247  22228537.214    22228548.0834
  21081820.572   -23960197.547 9 -18498198.92447  21081820.150    21081828.7974
  23095109.264   -13905031.565 8 -10818543.77546  23095108.520    23095121.2414
  20905621.466   -20722900.883 9 -16136885.55047  20905620.410    20905629.2684
  20733270.657   -24262073.348 9 -18883034.43848  20733270.665    20733278.8364
  21851563.333   -15869004.638 9 -12342099.30447  21851562.568    21851573.3794
  24366821.161    -6560069.291 8  -5097768.23545  24366820.342    24366840.0084
 02  1 25  1 27  0.0000000  0  8 24 05 06 17 10 30 23 15
  23827787.661    -8874643.696 8  -6655842.96646  23827787.147    23827799.0854
  22246403.139   -16235315.585 8 -12641315.68147  22246402.336    22246413.2154
  21072173.650   -24010892.185 9 -18537701.15247  21072173.218    21072181.8534
  23082485.208   -13971370.224 8 -10870235.97046  23082484.469    23082497.1734
  20911878.543   -20690019.655 9 -16111263.78147  20911877.478    20911886.3474
  20741813.172   -24217182.148 9 -18848054.27848  20741813.172    20741821.3394
  21836530.750   -15948000.617 9 -12403654.43547  21836529.975    21836540.7444
  24350740.017    -6644574.611 8  -5163616.11645  24350739.175    24350758.7314
 02  1 25  1 27 30.0000000  0  8 24 05 06 17 10 30 23 15
  23842735.348    -8796092.627 8  -6594634.33846  23842734.888    23842746.9014
  22264316.836   -16141178.809 8 -12567962.42747  22264316.015    22264326.9324
  21062565.868   -24061381.085 9 -18577043.06947  21062565.420    21062574.0324
  23069897.713   -14037516.646 8 -10921778.37546  23069897.003    23069909.6344
  20918246.919   -20656553.341 9 -16085186.09947  20918245.860    20918254.7074
  20750458.083   -24171752.784 9 -18812654.77148  20750458.077    20750466.2214
  21821568.126   -16026629.069 9 -12464923.18247  21821567.344    21821578.0694
  24334686.704    -6728933.825 8  -5229350.16445  24334685.788    24334705.2604
 02  1 25  1 28  0.0000000  0  8 24 05 06 17 10 30 23 15
  23857679.744    -8717559.561 8  -6533439.72346  23857679.232    23857691.2084
  22282278.424   -16046790.078 8 -12494412.84347  22282277.640    22282288.5854
  21052997.435   -24111663.257 9 -18616223.90047  21052996.984    21053005.5984
  23057346.693   -14103471.416 8 -10973171.43246  23057345.992    23057358.5654
  20924726.281   -20622503.996 9 -16058654.10447  20924725.214    20924734.0564
  20759205.014   -24125787.476 9 -18776837.64448  20759205.011    20759213.1384
  21806675.679   -16104888.516 9 -12525904.38647  21806674.903    21806685.6044
  24318661.158    -6813147.013 8  -5294970.42045  24318660.223    24318679.5684
 02  1 25  1 28 30.0000000  0  8 24 05 06 17 10 30 23 15
  23872620.523    -8639045.072 8  -6472259.58846  23872620.068    23872632.0354
  22300287.648   -15952151.480 8 -12420668.55947  22300286.832    22300297.8084
  21043468.732   -24161736.375 9 -18655241.83348  21043468.300    21043476.9064
  23044832.277   -14169233.965 8 -11024414.71646  23044831.575    23044844.0304
  20931316.372   -20587872.771 9 -16031668.70147  20931315.312    20931324.1434
  20768053.693   -24079287.294 9 -18740603.73348  20768053.696    20768061.8314
  21791854.030   -16182775.984 9 -12586595.74347  21791853.264    21791863.9294
  24302663.511    -6897213.096 8  -5360476.04245  24302662.628    24302681.8864
 02  1 25  1 29  0.0000000  0  8 24 05 06 17 10 30 23 15
  23887557.617    -8560550.028 8  -6411094.59845  23887557.148    23887569.1244
  22318343.849   -15857265.856 8 -12346731.78947  22318343.022    22318354.0124
  21033980.094   -24211599.238 9 -18694095.93048  21033979.659    21033988.2594
  23032354.312   -14234804.810 8 -11075508.63246  23032353.604    23032366.0094
  20938016.854   -20552661.386 9 -16004231.22547  20938015.783    20938024.6204
  20777003.769   -24032254.247 9 -18703954.60548  20777003.760    20777011.9254
  21777103.487   -16260289.954 9 -12646996.06547  21777102.726    21777113.3424
  24286693.972    -6981132.178 8  -5425867.10645  24286693.043    24286712.2424
 02  1 25  1 29 30.0000000  0  8 24 05 06 17 10 30 23 15
  23902490.906    -8482075.001 8  -6349945.19445  23902490.390    23902502.4034
  22336446.500   -15762136.069 8 -12272604.76047  22336445.680    22336456.6624
  21024531.744   -24261250.306 9 -18732784.99448  21024531.310    21024539.8894
  23019912.903   -14300183.780 8 -11126453.04046  23019912.187    23019924.5264
  20944827.434   -20516871.394 9 -15976342.88447  20944826.358    20944835.1894
  20786054.895   -23984690.142 9 -18666891.66348  20786054.904    20786063.0734
  21762424.427   -16337428.176 9 -12707103.59647  21762423.668    21762434.2584
  24270752.264    -7064903.993 8  -5491143.41145  24270751.409    24270770.5924
 02  1 25  1 30  0.0000000  0  8 24 05 06 17 10 30 23 15
  23917420.174    -8403621.203 8  -6288812.33845  23917419.665    23917431.6214
  22354595.183   -15666764.658 8 -12198289.45247  22354594.336    22354605.3194
  21015124.009   -24310687.821 9 -18771307.65448  21015123.583    21015132.1574
  23007508.070   -14365370.783 8 -11177247.87946  23007507.344    23007519.5834
  20951747.761   -20480504.690 9 -15948005.15847  20951746.688    20951755.4964
  20795206.795   -23936596.664 9 -18629416.22348  20795206.798    20795214.9624
  21747817.324   -16414188.366 9 -12766916.55647  21747816.540    21747827.0764
  24254838.941    -7148527.845 8  -5556304.42945  24254838.016    24254857.0194
 02  1 25  1 30 30.0000000  0  8 24 05 06 17 10 30 23 15
  23932345.240    -8325189.402 8  -6227696.62845  23932344.753    23932356.5944
  22372789.242   -15571154.591 8 -12123788.18347  22372788.381    22372799.3604
  21005757.211   -24359910.468 9 -18809662.88948  21005756.767    21005765.3504
  22995139.717   -14430366.138 8 -11227893.37046  22995138.997    22995151.1904
  20958777.499   -20443563.101 9 -15919219.47347  20958776.431    20958785.2284
  20804459.004   -23887975.907 9 -18591529.91848  20804458.993    20804467.1674
  21733282.472   -16490568.767 9 -12826433.58547  21733281.702    21733292.2004
  24238953.730    -7232003.753 8  -5621350.14045  24238952.832    24238971.6064
 02  1 25  1 31  0.0000000  0  8 24 05 06 17 10 30 23 15
  23947266.017    -8246779.911 8  -6166598.29945  23947265.573    23947277.3944
  22391028.241   -15475308.307 8 -12049102.85147  22391027.394    22391038.3834
  20996431.651   -24408916.334 9 -18847849.20848  20996431.203    20996439.7624
  22982807.891   -14495169.549 8 -11278389.32546  22982807.174    22982819.2684
  20965916.307   -20406048.139 9 -15889987.00947  20965915.269    20965924.0374
  20813811.287   -23838829.223 9 -18553233.80248  20813811.298    20813819.4544
  21718820.352   -16566567.050 9 -12885652.85347  21718819.574    21718830.0484
  24223096.697    -7315331.169 8  -5686280.12245  24223095.820    24223114.4814
 02  1 25  1 31 30.0000000  0  8 24 05 06 17 10 30 23 15
  23962182.380    -8168393.639 8  -6105518.04845  23962181.917    23962193.8494
  22409311.743   -15379228.086 8 -11974235.22847  22409310.907    22409321.9534
  20987147.693   -24457703.517 9 -18885865.12248  20987147.231    20987155.7974
  22970512.677   -14559780.885 8 -11328735.60446  22970511.936    22970523.9884
  20973164.009   -20367961.276 9 -15860308.90747  20973162.942    20973171.6994
  20823263.404   -23789158.195 9 -18514529.10648  20823263.405    20823271.5534
  21704431.364   -16642180.966 9 -12944572.61747  21704430.605    21704441.0184
  24207268.083    -7398509.378 8  -5751093.82145  24207267.119    24207285.7654
 02  1 25  1 32  0.0000000  0  8 24 05 06 17 10 30 23 15
  23977094.264    -8090031.242 8  -6044456.41645  23977093.653    23977105.6584
  22427639.205   -15282916.885 8 -11899187.61646  22427638.389    22427649.4444
  20977905.595   -24506270.584 9 -18923709.51948  20977905.139    20977913.6834
  22958253.864   -14624200.287 8 -11378932.33446  22958253.132    22958265.1864
  20980520.166   -20329304.193 9 -15830186.47947  20980519.099    20980527.8694
  20832814.870   -23738964.801 9 -18475417.37348  20832814.872    20832823.0294
  21690115.913   -16717408.668 9 -13003191.43847  21690115.146    21690125.5134
  24191467.816    -7481538.391 8  -5815791.23145  24191466.916    24191485.4134
 02  1 25  1 32 30.0000000  0  8 24 05 06 17 10 30 23 15
  23992001.515    -8011693.301 8  -5983413.82945  23992000.953    23992012.8854
  22446010.108   -15186377.336 8 -11823962.08046  22446009.321    22446020.3964
  20968705.742   -24554615.815 9 -18961381.06048  20968705.298    20968713.8174
  22946031.670   -14688427.634 8 -11428979.42646  22946030.924    22946042.9374
  20987984.537   -20290078.411 9 -15799620.91147  20987983.471    20987992.2404
  20842465.413   -23688250.819 9 -18435899.98648  20842465.421    20842473.5894
  21675874.301   -16792248.037 9 -13061507.66047  21675873.535    21675883.8684
  24175695.987    -7564417.433 8  -5880371.74145  24175695.115    24175713.5514
 02  1 25  1 33  0.0000000  0  8 24 05 06 17 10 30 23 15
  24006903.836    -7933380.587 8  -5922390.91745  24006903.277    24006915.1824
  22464423.966   -15089612.308 8 -11748560.84146  22464423.163    22464434.2294
  20959548.405   -24602737.814 9 -18998878.65548  20959547.947    20959556.4624
  22933845.961   -14752463.105 8 -11478877.00046  22933845.180    22933857.2024
  20995556.731   -20250286.040 9 -15768613.85147  20995555.669    20995564.4394
  20852214.616   -23637018.413 9 -18395978.63547  20852214.622    20852222.8024
  21661707.013   -16866697.016 9 -13119519.68547  21661706.233    21661716.5224
  24159952.816    -7647146.365 7  -5944835.27545  24159951.944    24159970.2584
 02  1 25  1 33 30.0000000  0  8 24 05 06 17 10 30 23 15
  24021801.368    -7855093.718 8  -5861388.13445  24021800.833    24021812.6034
  22482880.326   -14992624.068 8 -11672985.66046  22482879.516    22482890.5834
  20950433.858   -24650634.778 9 -19036200.90248  20950433.407    20950441.8884
  22921696.710   -14816306.749 8 -11528625.11246  22921695.941    22921707.9334
  21003236.442   -20209928.803 9 -15737166.63547  21003235.383    21003244.1514
  20862062.174   -23585269.140 9 -18355654.53047  20862062.175    20862070.3534
  21647614.416   -16940753.509 9 -13177225.88247  21647613.619    21647623.8774
  24144238.232    -7729724.961 8  -6009181.61245  24144237.314    24144255.5874
 02  1 25  1 34  0.0000000  0  8 24 05 06 17 10 30 23 15
  24036693.910    -7776833.227 8  -5800405.92345  24036693.254    24036705.0274
  22501378.468   -14895415.785 8 -11597239.03146  22501377.670    22501388.7964
  20941362.443   -24698305.163 9 -19073346.59348  20941361.997    20941370.4384
  22909583.965   -14879958.696 8 -11578223.85646  22909583.206    22909595.1674
  21011023.216   -20169008.938 9 -15705281.01147  21011022.142    21011030.9114
  20872007.680   -23533005.104 9 -18314929.31247  20872007.690    20872015.8384
  21633596.856   -17014415.776 9 -13234624.88647  21633596.063    21633606.2664
  24128552.249    -7812152.913 8  -6073410.53145  24128551.343    24128569.4774
 02  1 25  1 34 30.0000000  0  8 24 05 06 17 10 30 23 15
  24051581.134    -7698599.930 8  -5739444.88745  24051580.547    24051592.3224
  22519918.003   -14797989.998 8 -11521322.91246  22519917.215    22519928.3914
  20932334.526   -24745746.979 9 -19110314.17948  20932334.067    20932342.4854
  22897507.684   -14943418.931 8 -11627673.22746  22897506.966    22897518.8034
  21018916.729   -20127528.150 9 -15672958.29947  21018915.658    21018924.4274
  20882050.816   -23480228.170 9 -18273804.43047  20882050.827    20882058.9884
  21619654.685   -17087681.742 9 -13291715.08747  21619653.885    21619664.0294
  24112895.041    -7894430.026 8  -6137521.92545  24112894.122    24112912.1764
 02  1 25  1 35  0.0000000  0  8 24 05 06 17 10 30 23 15
  24066463.070    -7620394.578 8  -5678505.63845  24066462.415    24066474.3154
  22538498.427   -14700349.459 8 -11445239.45146  22538497.643    22538508.8494
  20923350.318   -24792958.948 9 -19147102.67248  20923349.876    20923358.2654
  22885468.009   -15006687.461 8 -11676973.22146  22885467.281    22885479.0004
  21026916.717   -20085487.856 9 -15640199.61447  21026915.629    21026924.4164
  20892191.137   -23426940.309 9 -18232281.42247  20892191.157    20892199.3004
  21605788.295   -17160549.383 9 -13348494.90847  21605787.495    21605797.6154
  24097266.557    -7976555.866 7  -6201515.40745  24097265.591    24097283.4444
 02  1 25  1 35 30.0000000  0  8 24 05 06 17 10 30 23 15
  24081339.634    -7542217.388 8  -5617588.34945  24081338.986    24081350.9854
  22557119.244   -14602496.417 8 -11368990.40146  22557118.462    22557129.7374
  20914410.262   -24839939.010 9 -19183710.45248  20914409.796    20914418.1894
  22873464.853   -15069763.950 8 -11726123.58046  22873464.120    22873475.7044
  21035022.874   -20042889.637 9 -15607006.18247  21035021.797    21035030.5794
  20902428.429   -23373143.171 9 -18190361.57447  20902428.440    20902436.5884
  21591998.151   -17233016.381 9 -13404962.54147  21591997.371    21592007.4404
  24081666.885    -8058529.770 8  -6265390.49745  24081665.961    24081683.7254
 02  1 25  1 36  0.0000000  0  8 24 05 06 17 10 30 23 15
  24096210.705    -7464069.406 8  -5556693.80945  24096210.091    24096222.0694
  22575779.927   -14504434.219 8 -11292578.37246  22575779.153    22575790.4134
  20905514.601   -24886685.927 9 -19220136.56448  20905514.144    20905522.5144
  22861498.098   -15132649.057 8 -11775124.82046  22861497.375    22861508.8944
  21043234.700   -19999736.124 9 -15573380.05247  21043233.613    21043242.3884
  20912762.173   -23318839.080 9 -18148046.69947  20912762.176    20912770.2934
  21578284.521   -17305081.227 9 -13461116.80747  21578283.735    21578293.7704
  24066096.091    -8140352.027 8  -6329147.43045  24066095.200    24066112.7694
 02  1 25  1 36 30.0000000  0  8 24 05 06 17 10 30 23 15
  24111075.996    -7385951.520 8  -5495822.71145  24111075.500    24111087.4984
  22594480.023   -14406165.141 8 -11216005.13846  22594479.198    22594490.4724
  20896663.640   -24933197.736 9 -19256379.47548  20896663.181    20896671.5304
  22849567.781   -15195342.508 8 -11823976.71646  22849567.074    22849578.5904
  21051551.915   -19956028.950 9 -15539322.49647  21051550.845    21051559.5754
  20923192.003   -23264029.891 9 -18105338.24047  20923191.996    20923200.1244
  21564647.871   -17376741.727 9 -13516956.01047  21564647.096    21564657.0784
  24050554.373    -8222022.036 7  -6392785.71245  24050553.420    24050570.9094
 02  1 25  1 37  0.0000000  0  8 24 05 06 17 10 30 23 15
  24125935.626    -7307863.967 8  -5434975.25945  24125935.163    24125947.0774
  22613218.911   -14307692.054 8 -11139272.93946  22613218.045    22613229.3684
  20887857.749   -24979472.819 9 -19292437.92448  20887857.287    20887865.6174
  22837673.901   -15257844.561 8 -11872679.48746  22837673.188    22837684.7314
  21059974.091   -19911769.967 9 -15504834.95747  21059973.014    21059981.7444
  20933717.582   -23208717.577 9 -18062237.73947  20933717.579    20933725.7164
  21551088.502   -17447996.115 9 -13572478.76147  21551087.703    21551097.6424
  24035041.599    -8303539.511 8  -6456305.14545  24035040.649    24035057.9454
 02  1 25  1 37 30.0000000  0  8 24 05 06 17 10 30 23 15
  24140789.408    -7229807.068 8  -5374151.69045  24140788.949    24140800.7974
  22631996.065   -14209017.608 8 -11062383.82746  22631995.205    22632006.5424
  20879097.231   -25025509.527 9 -19328310.62848  20879096.772    20879105.0664
  22825816.471   -15320155.069 8 -11921232.99746  22825815.717    22825827.3004
  21068500.872   -19866961.381 9 -15469919.15847  21068499.801    21068508.5174
  20944338.565   -23152904.102 9 -18018746.72547  20944338.546    20944346.6774
  21537606.793   -17518842.408 9 -13627683.52347  21537605.986    21537615.8854
  24019557.923    -8384904.230 8  -6519705.55945  24019556.968    24019574.0564
 02  1 25  1 38  0.0000000  0  8 24 05 06 17 10 30 23 15
  24155637.180    -7151781.744 8  -5313352.73845  24155636.751    24155648.5024
  22650810.992   -14110144.670 8 -10985340.05746  22650810.130    22650821.5164
  20870382.352   -25071306.324 9 -19363996.38948  20870381.885    20870390.1704
  22813995.363   -15382274.517 8 -11969637.63946  22813994.640    22814006.2754
  21077131.848   -19821605.171 9 -15434576.63447  21077130.776    21077139.4944
  20955054.455   -23096591.886 9 -17974867.08347  20955054.438    20955062.5614
  21524203.015   -17589278.985 9 -13682569.02747  21524202.235    21524212.1114
  24004103.360    -8466115.853 8  -6582986.69245  24004102.437    24004119.3344
 02  1 25  1 38 30.0000000  0  8 24 05 06 17 10 30 23 15
  24170478.765    -7073788.628 8  -5252578.86646  24170478.386    24170490.0994
  22669663.194   -14011075.830 8 -10908143.62646  22669662.359    22669673.7594
  20861713.503   -25116861.349 9 -19399493.75148  20861713.037    20861721.2854
  22802210.676   -15444202.702 8 -12017893.24146  22802209.949    22802221.5844
  21085866.670   -19775703.148 9 -15398808.80147  21085865.609    21085874.3394
  20965864.841   -23039782.810 9 -17930600.27847  20965864.824    20965872.9494
  21510877.610   -17659303.780 9 -13737133.66347  21510876.850    21510886.6864
  23988678.092    -8547174.068 8  -6646148.30545  23988677.095    23988693.8704
 02  1 25  1 39  0.0000000  0  8 24 05 06 17 10 30 23 15
  24185314.155    -6995828.287 8  -5191830.53346  24185313.746    24185325.4514
  22688552.140   -13911813.829 8 -10830796.68646  22688551.343    22688562.7814
  20853090.964   -25162172.919 9 -19434801.40948  20853090.516    20853098.7194
  22790462.432   -15505939.738 8 -12065999.90946  22790461.701    22790473.2184
  21094704.979   -19729257.553 9 -15362617.40447  21094703.910    21094712.6384
  20976769.432   -22982478.825 9 -17885947.83247  20976769.405    20976777.5324
  21497630.984   -17728914.838 9 -13791375.90947  21497630.201    21497639.9994
  23973281.966    -8628078.605 8  -6709190.19445  23973281.024    23973297.6434
 02  1 25  1 39 30.0000000  0  8 24 05 06 17 10 30 23 15
  24200143.216    -6917901.460 8  -5131108.30446  24200142.710    24200154.4254
  22707477.358   -13812361.578 8 -10753301.49746  22707476.541    22707487.9644
  20844515.064   -25207239.359 9 -19469918.05548  20844514.603    20844522.7984
  22778750.614   -15567485.643 8 -12113957.64646  22778749.870    22778761.2814
  21103646.350   -19682270.319 9 -15326003.94347  21103645.270    21103653.9834
  20987767.764   -22924682.150 9 -17840911.47047  20987767.761    20987775.8854
  21484463.432   -17798110.341 9 -13845294.34947  21484462.636    21484472.3784
  23957915.088    -8708829.413 8  -6772112.31545  23957914.242    23957930.6634
 02  1 25  1 40  0.0000000  0  8 24 05 06 17 10 30 23 15
  24214965.711    -6840008.546 8  -5070412.51046  24214965.229    24214976.9754
  22726438.303   -13712721.673 8 -10675660.07746  22726437.465    22726448.9174
  20835986.138   -25252059.113 9 -19504842.47948  20835985.677    20835993.8534
  22767075.039   -15628840.768 8 -12161766.72946  22767074.293    22767085.6374
  21112690.390   -19634743.369 9 -15288969.92847  21112689.329    21112698.0334
  20998859.409   -22866395.016 9 -17795492.93847  20998859.412    20998867.5494
  21471375.289   -17866888.562 9 -13898887.64047  21471374.497    21471384.1824
  23942577.617    -8789425.961 8  -6834914.24645  23942576.790    23942593.0614
 02  1 25  1 40 30.0000000  0  8 24 05 06 17 10 30 23 15
  24229781.769    -6762149.568 8  -5009743.15145  24229781.262    24229792.9944
  22745434.463   -13612896.323 8 -10597874.16046  22745433.654    22745445.1274
  20827504.492   -25296630.130 9 -19539573.07848  20827504.029    20827512.1994
  22755435.829   -15690004.680 8 -12209426.81846  22755435.090    22755446.3824
  21121836.805   -19586678.615 9 -15251516.84547  21121835.718    21121844.4044
  21010044.175   -22807618.942 9 -17749693.41847  21010044.169    21010052.2854
  21458366.951   -17935247.282 9 -13952154.05747  21458366.162    21458375.8174
  23927269.624    -8869867.819 8  -6897595.67845  23927268.748    23927284.9324
 02  1 25  1 41  0.0000000  0  8 24 05 06 17 10 30 23 15
  24244591.085    -6684325.938 8  -4949101.33845  24244590.559    24244602.2804
  22764465.326   -13512889.023 8 -10519946.46546  22764464.499    22764475.9734
  20819070.396   -25340951.361 9 -19574109.04148  20819069.938    20819078.0874
  22743832.830   -15750978.197 8 -12256938.54146  22743832.123    22743843.3624
  21131085.090   -19538078.589 9 -15213646.66647  21131083.985    21131092.6904
  21021321.361   -22748356.924 9 -17703515.23647  21021321.342    21021329.5034
  21445438.663   -18003185.277 9 -14005092.64047  21445437.893    21445447.5134
  23911990.930    -8950155.298 8  -6960156.83545  23911990.145    23912006.0904
 02  1 25  1 41 30.0000000  0  8 24 05 06 17 10 30 23 15
  24259393.708    -6606537.409 8  -4888486.87645  24259393.232    24259404.8834
  22783530.431   -13412701.857 8 -10441878.61446  22783529.560    22783541.0514
  20810684.277   -25385020.365 9 -19608448.45848  20810683.814    20810691.9604
  22732266.239   -15811760.549 8 -12304301.30846  22732265.540    22732276.7534
  21140434.910   -19488944.537 9 -15175360.36147  21140433.812    21140442.5274
  21032690.753   -22688610.372 9 -17656959.50247  21032690.741    21032698.8914
  21432590.935   -18070699.981 9 -14057701.38547  21432590.167    21432599.7594
  23896741.861    -9030287.372 8  -7022596.91545  23896741.062    23896756.9274
 02  1 25  1 42  0.0000000  0  8 24 05 06 17 10 30 23 15
  24274189.470    -6528785.183 8  -4827900.69345  24274188.958    24274200.6364
  22802629.070   -13312338.057 8 -10363673.12146  22802628.199    22802639.7064
  20802346.410   -25428836.080 9 -19642590.51048  20802345.946    20802354.0674
  22720735.823   -15872352.726 8 -12351515.88246  22720735.113    22720746.3404
  21149885.822   -19439279.536 9 -15136660.33147  21149884.730    21149893.4354
  21044151.799   -22628382.192 9 -17610028.47447  21044151.787    21044159.9264
  21419823.958   -18137790.381 9 -14109979.50447  21419823.175    21419832.7354
  23881522.351    -9110264.601 8  -7084916.36945  23881521.498    23881537.2754
 02  1 25  1 42 30.0000000  0  8 24 05 06 17 10 30 23 15
  24288978.305    -6451069.582 8  -4767343.07445  24288977.730    24288989.4584
  22821760.889   -13211800.080 8 -10285331.90646  22821760.044    22821771.5504
  20794057.100   -25472396.428 9 -19676533.57248  20794056.634    20794064.7274
  22709241.725   -15932754.422 8 -12398582.03446  22709241.000    22709252.1974
  21159437.441   -19389085.393 9 -15097547.98347  21159436.347    21159445.0514
  21055704.187   -22567674.146 9 -17562723.52547  21055704.169    21055712.3204
  21407138.137   -18204454.415 9 -14161925.38547  21407137.357    21407146.8824
  23866332.416    -9190086.441 8  -7147114.75345  23866331.524    23866347.1394
 02  1 25  1 43  0.0000000  0  8 24 05 06 17 10 30 23 15
  24303759.846    -6373391.201 7  -4706814.45045  24303759.397    24303771.1794
  22840925.284   -13111090.532 8 -10206856.99946  22840924.487    22840936.0234
  20785816.750   -25515699.549 9 -19710276.19848  20785816.279    20785824.3664
  22697783.868   -15992965.674 8 -12445499.78446  22697783.132    22697794.2854
  21169089.445   -19338363.722 9 -15058024.57847  21169088.345    21169097.0324
  21067347.442   -22506488.473 9 -17515046.40947  21067347.429    21067355.5744
  21394533.802   -18270690.228 9 -14213537.58747  21394533.013    21394542.4994
  23851172.133    -9269752.612 8  -7209191.86346  23851171.169    23851186.6754
 02  1 25  1 43 30.0000000  0  8 24 05 06 17 10 30 23 15
  24318534.459    -6295750.024 7  -4646314.80345  24318533.940    24318545.7124
  22860121.851   -13010212.146 8 -10128250.52846  22860121.048    22860132.5964
  20777625.635   -25558743.811 9 -19743817.11448  20777625.169    20777633.2454
  22686362.236   -16052986.455 8 -12492269.12246  22686361.489    22686372.6104
  21178841.306   -19287117.217 9 -15018092.20747  21178840.224    21178848.8904
  21079081.187   -22444827.366 9 -17466998.82447  21079081.156    21079089.3384
  21382011.273   -18336496.122 9 -14264814.79147  21382010.482    21382019.9314
  23836041.496    -9349262.553 8  -7271147.23446  23836040.563    23836055.9534
 02  1 25  1 44  0.0000000  0 10 26 24 05 06 17 10 30 18 23 15
  24431507.103    -1713450.761 7  -1319153.95945  24431506.850    24431520.9994
  24333300.529    -6218153.498 7  -4585849.96545  24333299.927    24333311.7084
  22879348.751   -12909174.488 8 -10049519.95446  22879347.957    22879359.4414
  20769482.837   -25601534.372 9 -19777160.34548  20769482.367    20769490.4284
  22674975.478   -16112824.037 8 -12538895.70446  22674974.702    22674985.7614
  21188691.372   -19235354.650 9 -14977757.71247  21188690.255    21188698.9314
  21090903.610   -22382699.929 9 -17418587.86747  21090903.601    21090911.7994
  24772568.252    -4551725.351 8  -3280288.64545  24772567.420    24772588.5834
  21369569.552   -18401877.341 9 -14315761.07847  21369568.756    21369578.1824
  23820939.345    -9428623.114 8  -7332986.22045  23820938.418    23820953.5974
 02  1 25  1 44 30.0000000  0 10 26 24 05 06 17 10 30 18 23 15
  24414141.377    -1804707.531 7  -1390262.94545  24414141.032    24414155.2724
  24348059.218    -6140595.535 7  -4525415.16845  24348058.650    24348070.4784
  22898606.736   -12807973.568 8  -9970662.16346  22898605.875    22898617.3684
  20761389.896   -25644062.790 9 -19810299.30648  20761389.409    20761397.4544
  22663624.805   -16172471.606 8 -12585374.22246  22663624.040    22663635.0434
  21198640.489   -19183071.582 9 -14937017.62747  21198639.397    21198648.0564
  21102815.723   -22320101.633 9 -17369810.00147  21102815.715    21102823.9004
  24751308.642    -4663441.830 7  -3367339.51845  24751307.848    24751328.7194
  21357210.252   -18466825.345 9 -14366369.78947  21357209.462    21357218.8774
  23805866.906    -9507827.272 8  -7394703.34445  23805865.963    23805881.0634
 02  1 25  1 45  0.0000000  0 10 26 24 05 06 17 10 30 18 23 15
  24396773.523    -1895975.642 8  -1461380.77845  24396773.375    24396787.2314
  24362811.142    -6063073.248 7  -4465008.17745  24362810.647    24362822.4114
  22917895.898   -12706608.769 8  -9891676.67346  22917894.991    22917906.5524
  20753347.802   -25686323.991 9 -19843230.04548  20753347.337    20753355.3484
  22652310.919   -16231925.991 8 -12631702.21246  22652310.162    22652321.1284
  21208688.881   -19130266.709 9 -14895870.94647  21208687.801    21208696.4574
  21114817.589   -22257031.405 9 -17320664.39247  21114817.576    21114825.7964
  24730058.747    -4775107.610 8  -3454350.89645  24730057.979    24730078.5534
  21344934.377   -18531335.080 9 -14416636.99847  21344933.590    21344942.9694
  23790824.950    -9586871.419 8  -7456295.79945  23790824.026    23790839.0514
 02  1 25  1 45 30.0000000  0 10 26 24 05 06 17 10 30 18 23 15
  24379403.833    -1987253.525 8  -1532506.22945  24379403.670    24379417.5064
  24377555.931    -5985588.910 7  -4404630.76445  24377555.359    24377567.1764
  22937215.358   -12605084.436 8  -9812566.87746  22937214.457    22937226.0384
  20745356.570   -25728317.886 9 -19875952.49748  20745356.109    20745364.1024
  22641033.402   -16291188.984 8 -12677881.05246  22641032.700    22641043.6494
  21218835.845   -19076944.021 9 -14854320.77647  21218834.756    21218843.3884
  21126908.518   -22193493.181 9 -17271154.10647  21126908.506    21126916.7324
  24708818.597    -4886722.056 8  -3541322.28645  24708817.853    24708838.1354
  21332741.862   -18595406.558 9 -14466562.70747  21332741.091    21332750.4474
  23775813.133    -9665757.068 8  -7517764.75745  23775812.238    23775827.1674
 02  1 25  1 46  0.0000000  0 10 26 24 05 06 17 10 30 18 23 15
  24362032.711    -2078538.923 8  -1603637.53245  24362032.576    24362046.3734
  24392293.199    -5908143.625 7  -4344283.76445  24392292.707    24392304.6094
  22956564.545   -12503404.063 8  -9733335.47846  22956563.621    22956575.2564
  20737416.427   -25770043.453 9 -19908465.85648  20737415.946    20737423.9524
  22629792.211   -16350261.510 8 -12723911.47646  22629791.492    22629802.4224
  21229080.789   -19023106.389 9 -14812369.34547  21229079.704    21229088.3204
  21139087.935   -22129490.080 9 -17221281.57347  21139087.914    21139096.1324
  24687588.433    -4998283.776 8  -3628252.60545  24687587.710    24687607.5444
  21320632.968   -18659038.859 9 -14516146.19947  21320632.174    21320641.5064
  23760831.396    -9744484.639 8  -7579110.53745  23760830.560    23760845.4074
 02  1 25  1 46 30.0000000  0 10 26 24 05 06 17 10 30 18 23 15
  24344660.664    -2169828.970 8  -1674772.47445  24344660.513    24344674.2854
  24407023.063    -5830738.079 7  -4283967.72445  24407022.580    24407034.1104
  22975942.774   -12401570.638 8  -9653984.82446  22975941.896    22975953.5764
  20729527.513   -25811499.479 9 -19940769.19148  20729527.047    20729535.0474
  22618587.154   -16409144.180 8 -12769793.96646  22618586.419    22618597.3444
  21239423.156   -18968756.620 9 -14770018.85247  21239422.074    21239430.7084
  21151355.270   -22065024.830 9 -17171048.92147  21151355.261    21151363.4804
  24666368.655    -5109790.841 7  -3715140.36645  24666368.000    24666387.4724
  21308607.842   -18722230.755 9 -14565386.52147  21308607.058    21308616.3614
  23745879.826    -9823054.316 8  -7640333.29445  23745878.960    23745893.7094
 02  1 25  1 47  0.0000000  0 10 26 24 05 06 17 10 30 18 23 15
  24327288.287    -2261120.795 8  -1745908.80345  24327288.149    24327301.8814
  24421745.071    -5753373.475 8  -4223683.60445  24421744.438    24421756.2694
  22995349.584   -12299587.236 8  -9574517.31446  22995348.731    22995360.4764
  20721690.206   -25852684.540 9 -19972861.37848  20721689.733    20721697.7164
  22607418.136   -16467837.387 8 -12815528.81346  22607417.391    22607428.2974
  21249862.574   -18913897.127 9 -14727271.17247  21249861.477    21249870.1234
  21163710.051   -22000100.110 9 -17120458.24147  21163710.038    21163718.2494
  24645159.620    -5221241.126 7  -3801983.87645  24645158.873    24645178.1164
  21296666.805   -18784980.834 9 -14614282.56747  21296666.015    21296675.2914
  23730958.196    -9901466.305 8  -7701433.18645  23730957.341    23730971.9694
 02  1 25  1 47 30.0000000  0 10 26 24 05 06 17 10 30 18 23 15
  24309916.235    -2352411.322 8  -1817044.10245  24309916.015    24309929.7374
  24436459.240    -5676049.996 8  -4163431.50145  24436458.641    24436470.3414
  23014784.384   -12197456.830 8  -9494935.24146  23014783.517    23014795.2484
  20713904.827   -25893596.895 9 -20004741.07148  20713904.343    20713912.3054
  22596285.147   -16526341.385 8 -12861116.22846  22596284.388    22596295.2864
  21260398.474   -18858530.484 9 -14684128.30947  21260397.363    21260406.0164
  21176151.809   -21934718.414 9 -17069511.47547  21176151.785    21176160.0024
  24623961.806    -5332632.459 7  -3888781.48445  24623961.058    24623980.2024
  21284810.139   -18847287.734 9 -14662833.28247  21284809.333    21284818.5794
  23716066.620    -9979720.545 8  -7762410.16145  23716065.740    23716080.3194
 02  1 25  1 48  0.0000000  0 10 26 24 05 06 17 10 30 18 23 15
  24292544.989    -2443697.211 8  -1888175.78545  24292544.722    24292558.3864
  24451165.465    -5598768.238 8  -4103211.93145  24451164.872    24451176.6274
  23034246.635   -12095182.081 8  -9415240.69846  23034245.793    23034257.5294
  20706171.602   -25934234.905 9 -20036406.98448  20706171.126    20706179.0644
  22585188.094   -16584656.309 8 -12906556.31046  22585187.320    22585198.2114
  21271030.473   -18802658.808 9 -14640591.90947  21271029.393    21271038.0254
  21188680.037   -21868882.066 9 -17018210.43147  21188680.022    21188688.2324
  24602775.680    -5443962.639 7  -3975531.44145  24602774.885    24602793.8224
  21273038.071   -18909149.858 9 -14711037.41347  21273037.253    21273046.4714
  23701205.179   -10057816.704 8  -7823263.96845  23701204.218    23701218.6574
 02  1 25  1 48 30.0000000  0 10 26 24 05 06 17 10 30 18 23 15
  24275175.139    -2534975.365 8  -1959301.45645  24275174.917    24275188.4184
  24465863.776    -5521528.305 8  -4043024.94745  24465863.185    24465874.7724
  23053735.879   -11992765.745 8  -9335435.82546  23053735.031    23053746.7574
  20698490.950   -25974596.758 9 -20067857.70748  20698490.473    20698498.3794
  22574126.980   -16642782.373 8 -12951849.21946  22574126.218    22574137.0414
  21281758.103   -18746284.661 9 -14596663.96947  21281756.996    21281765.6324
  21201294.404   -21802593.374 9 -16966556.91747  21201294.379    21201302.6004
  24581601.668    -5555229.367 7  -4062232.00145  24581601.012    24581619.6644
  21261350.985   -18970565.490 9 -14758893.62847  21261350.174    21261359.3754
  23686373.758   -10135754.757 8  -7883994.57745  23686372.846    23686387.1824
 02  1 25  1 49  0.0000000  0 10 26 24 05 06 17 10 30 18 23 15
  24257807.336    -2626242.817 8  -2030418.79245  24257807.060    24257820.4784
  24480554.008    -5444330.781 8  -3982871.00445  24480553.446    24480565.0254
  23073251.512   -11890210.702 8  -9255522.87546  23073250.681    23073262.3834
  20690863.125   -26014681.010 9 -20099092.12248  20690862.634    20690870.5394
  22563101.758   -16700719.898 8 -12996995.21746  22563100.970    22563111.7204
  21292580.895   -18689410.401 9 -14552346.33847  21292579.794    21292588.4334
  21213994.284   -21735855.049 9 -16914553.04347  21213994.257    21214002.4794
  24560440.083    -5666430.742 7  -4148881.63245  24560439.403    24560458.0854
  21249749.047   -19031533.492 9 -14806401.04147  21249748.236    21249757.4224
  23671572.570   -10213534.705 8  -7944602.00045  23671571.663    23671585.7894
 02  1 25  1 49 30.0000000  0 10 26 24 05 06 17 10 30 18 23 15
  24240442.218    -2717496.381 7  -2101525.32345  24240442.081    24240455.2844
  24495236.041    -5367176.401 8  -3922750.68045  24495235.511    24495247.0044
  23092793.016   -11787519.692 8  -9175503.97046  23092792.182    23092803.8654
  20683288.438   -26054485.883 9 -20130108.83748  20683287.958    20683295.8494
  22552112.348   -16758469.117 8 -13041994.48346  22552111.568    22552122.2594
  21303498.419   -18632038.433 9 -14507640.87847  21303497.326    21303505.9384
  21226779.253   -21668669.698 9 -16862200.83647  21226779.226    21226787.4284
  24539291.454    -5777564.459 7  -4235478.56445  24539290.714    24539309.2214
  21238232.592   -19092052.381 9 -14853558.49147  21238231.788    21238240.9364
  23656801.552   -10291156.260 8  -8005086.01245  23656800.518    23656814.5394
 02  1 25  1 50  0.0000000  0 10 26 24 05 06 17 10 30 18 23 15
  24223080.310    -2808732.723 7  -2172618.39745  24223080.201    24223093.4354
  24509909.747    -5290065.496 8  -3862664.22645  24509909.273    24509920.7964
  23112359.905   -11684695.227 8  -9095381.07346  23112359.067    23112370.7974
  20675767.268   -26094009.571 9 -20160906.44448  20675766.785    20675774.6604
  22541158.750   -16816030.323 8 -13086847.25247  22541157.991    22541168.6404
  21314510.158   -18574171.080 9 -14462549.40947  21314509.072    21314517.6764
  21239648.886   -21601039.496 9 -16809502.00147  21239648.867    21239657.0354
  24518156.102    -5888628.241 7  -4322021.02745  24518155.376    24518173.6794
  21226801.895   -19152120.749 9 -14900364.89947  21226801.092    21226810.2034
  23642060.550   -10368619.310 8  -8065446.50845  23642059.513    23642073.3994
 02  1 25  1 50 30.0000000  0 10 26 24 05 06 17 10 30 18 23 15
  24205722.447    -2899948.436 7  -2243695.40145  24205722.148    24205735.4904
  24524575.224    -5212998.010 8  -3802611.62145  24524574.720    24524586.2344
  23131951.668   -11581740.064 8  -9015156.34746  23131950.874    23131962.6284
  20668299.983   -26133250.144 9 -20191483.44648  20668299.504    20668307.3664
  22530240.968   -16873403.230 8 -13131553.28747  22530240.180    22530250.8444
  21325615.793   -18515810.455 9 -14417073.56547  21325614.704    21325623.2994
  21252602.743   -21532966.665 9 -16756458.26547  21252602.719    21252610.8704
  24497034.700    -5999619.346 7  -4408506.87045  24497033.908    24497052.0944
  21215457.230   -19211736.806 9 -14946818.86047  21215456.425    21215465.4994
  23627349.802   -10445923.409 8  -8125683.16845  23627348.837    23627362.5134
 02  1 25  1 51  0.0000000  0 10 26 24 05 06 17 10 30 18 23 15
  24188369.132    -2991140.197 7  -2314753.74845  24188368.901    24188382.0344
  24539232.299    -5135974.741 8  -3742593.45345  24539231.743    24539243.3354
  23151567.763   -11478657.061 8  -8934831.99846  23151566.935    23151578.7754
  20660886.861   -26172206.041 9 -20221838.62448  20660886.386    20660894.2214
  22519358.935   -16930588.142 8 -13176112.83647  22519358.153    22519368.8634
  21336814.808   -18456959.082 9 -14371215.32247  21336813.731    21336822.3294
  21265640.302   -21464453.913 9 -16703071.73747  21265640.264    21265648.4254
  24475927.489    -6110535.774 7  -4494934.54345  24475926.600    24475944.6664
  21204198.975   -19270898.984 9 -14992919.15647  21204198.159    21204207.2084
  23612669.297   -10523068.677 8  -8185796.07245  23612668.370    23612681.8734
 02  1 25  1 51 30.0000000  0 10 26 24 05 06 17 10 30 18 23 15
  24171020.809    -3082305.025 7  -2385791.06445  24171020.691    24171033.8094
  24553880.651    -5058996.368 8  -3682610.26945  24553880.192    24553891.8254
  23171207.635   -11375449.048 8  -8854410.24646  23171206.807    23171218.6804
  20653528.252   -26210875.549 9 -20251970.63748  20653527.770    20653535.5894
  22508512.540   -16987585.580 8 -13220526.29247  22508511.772    22508522.4784
  21348106.750   -18397619.438 9 -14324976.60547  21348105.664    21348114.2504
  21278761.103   -21395503.701 9 -16649344.32947  21278761.070    21278769.2504
  24454834.870    -6221375.236 7  -4581302.26645  24454833.992    24454851.8194
  21193027.329   -19329606.014 9 -15038664.78247  21193026.523    21193035.5314
  23598019.064   -10600054.987 8  -8245785.11045  23598018.072    23598031.5654
 02  1 25  1 52  0.0000000  0 10 26 24 05 06 17 10 30 18 23 15
  24153678.377    -3173439.211 7  -2456804.49645  24153678.167    24153691.3424
  24568520.762    -4982062.422 8  -3622661.72445  24568520.247    24568531.8424
  23190870.874   -11272118.295 8  -8773892.84446  23190870.065    23190881.9384
  20646224.475   -26249256.771 9 -20281878.02048  20646223.997    20646231.7934
  22497701.902   -17044395.218 8 -13264793.42147  22497701.146    22497711.8654
  21359491.249   -18337793.473 9 -14278358.94047  21359490.153    21359498.7234
  21291964.743   -21326118.210 9 -16595277.75047  21291964.729    21291972.9074
  24433757.336    -6332135.528 7  -4667608.31645  24433756.593    24433774.0834
  21181942.640   -19387855.946 9 -15084054.22647  21181941.817    21181950.8084
  23583399.194   -10676881.792 8  -8305649.87245  23583398.204    23583411.5914
 02  1 25  1 52 30.0000000  0 10 26 24 05 06 17 10 30 18 23 15
  24136342.190    -3264539.890 7  -2527791.79345  24136341.969    24136355.3494
  24583152.168    -4905173.838 8  -3562748.50545  24583151.628    24583163.1904
  23210556.933   -11168667.756 8  -8693282.10446  23210556.146    23210567.9824
  20638975.915   -26287348.074 9 -20311559.48748  20638975.435    20638983.2144
  22486926.969   -17101017.573 8 -13308914.60947  22486926.195    22486936.8184
  21370967.750   -18277483.984 9 -14231364.49647  21370966.648    21370975.2124
  21305250.638   -21256300.264 9 -16540874.18647  21305250.642    21305258.8424
  24412695.413    -6442814.329 8  -4753850.88945  24412694.614    24412711.9754
  21170945.117   -19445647.795 9 -15129086.71847  21170944.310    21170953.2564
  23568809.569   -10753549.242 8  -8365390.48046  23568808.624    23568822.0004
 02  1 25  1 53  0.0000000  0 10 26 24 05 06 17 10 30 18 23 15
  24119013.077    -3355603.517 7  -2598750.21545  24119012.796    24119026.4834
  24597774.862    -4828330.612 7  -3502870.63445  24597774.436    24597786.0204
  23230265.306   -11065099.724 8  -8612579.82046  23230264.532    23230276.4094
  20631782.865   -26325147.416 9 -20341013.45948  20631782.394    20631790.1584
  22476187.707   -17157452.509 8 -13352889.77047  22476186.900    22476197.4464
  21382535.821   -18216693.198 9 -14183995.02247  21382534.709    21382543.2794
  21318618.460   -21186052.081 9 -16486135.38647  21318618.438    21318626.6504
  24391649.534    -6553408.923 8  -4840027.86645  24391648.714    24391665.6684
  21160035.098   -19502980.043 9 -15173761.08447  21160034.283    21160043.1864
  23554250.392   -10830056.821 8  -8425006.51246  23554249.443    23554262.8504
 02  1 25  1 53 30.0000000  0 10 26 24 05 06 17 10 30 18 23 15
  24101691.658    -3446627.288 7  -2669677.55845  24101691.316    24101705.0874
  24612388.818    -4751533.633 7  -3443028.81645  24612388.388    24612399.8124
  23249995.429   -10961417.584 8  -8531788.62046  23249994.643    23250006.5584
  20624645.643   -26362653.571 9 -20370238.96848  20624645.165    20624652.9034
  22465483.964   -17213700.845 8 -13396719.52447  22465483.130    22465493.6104
  21394194.973   -18155423.771 9 -14136252.57147  21394193.848    21394202.4214
  21332067.568   -21115376.725 9 -16431063.72047  21332067.547    21332075.7374
  24370619.874    -6663917.746 8  -4926138.01545  24370619.193    24370635.8614
  21149212.709   -19559851.685 9 -15218076.53347  21149211.895    21149220.7544
  23539721.715   -10906404.941 8  -8484498.30846  23539720.721    23539734.1044
 02  1 25  1 54  0.0000000  0 10 26 24 05 06 17 10 30 18 23 15
  24084378.656    -3537607.204 7  -2740570.78645  24084378.382    24084391.9624
  24626994.024    -4674782.496 7  -3383222.70145  24626993.637    24627005.0554
  23269746.846   -10857623.499 8  -8450910.18646  23269746.100    23269757.9724
  20617564.595   -26399864.419 9 -20399234.37448  20617564.108    20617571.8434
  22454815.732   -17269762.060 8 -13440403.47547  22454814.945    22454825.3954
  21405944.801   -18093677.820 9 -14088138.81147  21405943.684    21405952.2594
  21345597.596   -21044276.116 9 -16375660.69647  21345597.570    21345605.7694
  24349607.073    -6774338.057 8  -5012179.22745  24349606.329    24349622.9694
  21138478.337   -19616260.802 9 -15262031.58448  21138477.517    21138486.3314
  23525223.394   -10982592.988 8  -8543865.38346  23525222.398    23525235.6954
 02  1 25  1 54 30.0000000  0 10 26 24 05 06 17 10 30 18 23 15
  24067074.450    -3628540.912 8  -2811427.97245  24067074.131    24067087.6354
  24641590.265    -4598078.605 7  -3323453.41445  24641589.703    24641601.3224
  23289518.887   -10753721.026 8  -8369947.29946  23289518.132    23289530.0114
  20610539.944   -26436779.048 9 -20427998.95748  20610539.461    20610547.1694
  22444182.878   -17325637.324 8 -13483942.52047  22444182.106    22444192.6024
  21417784.672   -18031458.733 9 -14039656.36447  21417783.567    21417792.1334
  21359207.905   -20972753.664 9 -16319928.95647  21359207.878    21359216.0904
  24328611.413    -6884668.404 8  -5098150.36245  24328610.604    24328627.2154
  21127832.041   -19672206.905 9 -15305625.84148  21127831.227    21127840.0034
  23510755.505   -11058621.569 8  -8603108.20846  23510754.494    23510767.6974
 02  1 25  1 55  0.0000000  0 10 26 24 05 06 17 10 30 18 23 15
  24049779.864    -3719424.239 8  -2882245.91045  24049779.564    24049792.8774
  24656177.535    -4521421.098 7  -3263720.25745  24656177.024    24656188.7314
  23309311.248   -10649711.901 8  -8288901.30446  23309310.500    23309322.3844
  20603572.167   -26473394.674 9 -20456530.55448  20603571.684    20603579.3714
  22433585.558   -17381326.030 8 -13527336.20447  22433584.793    22433595.3194
  21429714.306   -17968767.991 9 -13990806.39347  21429713.188    21429721.7584
  21372898.141   -20900811.116 9 -16263869.87047  21372898.110    21372906.3354
  24307633.548    -6994905.642 8  -5184048.96745  24307632.777    24307649.1424
  21117274.365   -19727687.554 9 -15348857.41348  21117273.546    21117282.2974
  23496318.073   -11134489.864 8  -8662226.15246  23496317.078    23496330.2034
 02  1 25  1 55 30.0000000  0 10 26 24 05 06 17 10 30 18 23 15
  24032495.377    -3810254.368 8  -2953022.40545  24032495.140    24032508.3124
  24670755.850    -4444810.764 7  -3204023.89045  24670755.412    24670767.1184
  23329123.298   -10545599.418 8  -8207774.77846  23329122.455    23329134.4274
  20596661.533   -26509710.089 9 -20484828.22548  20596661.038    20596668.7244
  22423023.702   -17436828.714 8 -13570584.94147  22423022.924    22423033.4094
  21441733.065   -17905608.807 9 -13941591.40147  21441731.948    21441740.5054
  21386667.751   -20828451.358 9 -16207485.68047  21386667.718    21386675.9524
  24286673.798    -7105047.959 8  -5269873.63345  24286672.937    24286689.1174
  21106805.364   -19782702.047 9 -15391725.74348  21106804.553    21106813.2714
  23481911.134   -11210197.920 8  -8721219.24646  23481910.182    23481923.1724
 02  1 25  1 56  0.0000000  0 10 26 24 05 06 17 10 30 18 23 15
  24015221.600    -3901027.751 8  -3023754.69345  24015221.419    24015234.4374
  24685325.117    -4368247.959 7  -3144364.54445  24685324.774    24685336.4234
  23348954.455   -10441386.055 8  -8126569.63246  23348953.606    23348965.5864
  20589808.364   -26545723.420 9 -20512890.50348  20589807.883    20589815.5544
  22412497.216   -17492145.461 8 -13613688.79747  22412496.432    22412506.8634
  21453840.617   -17841983.094 9 -13892012.87847  21453839.496    21453848.0654
  21400516.304   -20755676.850 9 -16150778.30147  21400516.281    21400524.5374
  24265732.478    -7215092.851 8  -5355622.41745  24265731.655    24265747.6744
  21096425.337   -19837248.948 9 -15434229.71248  21096424.519    21096433.2274
  23467534.739   -11285745.450 8  -8780087.27546  23467533.805    23467546.7034
 02  1 25  1 56 30.0000000  0 10 26 24 05 06 17 10 30 18 23 15
  23997959.284    -3991741.102 7  -3094440.18545  23997959.069    23997972.1014
  24699885.391    -4291732.906 7  -3084742.41645  24699885.075    24699896.7894
  23368804.395   -10337074.342 8  -8045287.86046  23368803.534    23368815.5204
  20583013.035   -26581432.907 9 -20540716.01748  20583012.557    20583020.2064
  22402006.039   -17547276.402 8 -13656647.87947  22402005.275    22402015.6404
  21466036.413   -17777893.477 9 -13842072.87247  21466035.303    21466043.8464
  21414443.302   -20682490.203 9 -16093749.77347  21414443.279    21414451.5424
  24244810.121    -7325038.089 8  -5441293.57045  24244809.339    24244825.2134
  21086134.566   -19891326.839 9 -15476368.21648  21086133.773    21086142.4304
  23453188.942   -11361132.457 8  -8838830.22446  23453188.016    23453200.8094
 02  1 25  1 57  0.0000000  0 10 26 24 05 06 17 10 30 18 23 15
  23980708.954    -4082390.973 8  -3165076.20245  23980708.732    23980721.8324
  24714436.613    -4215266.146 7  -3025157.89545  24714436.182    24714448.0304
  23388672.531   -10232666.909 8  -7963931.50246  23388671.630    23388683.7004
  20576275.880   -26616836.721 9 -20568303.34848  20576275.381    20576283.0004
  22391550.156   -17602221.887 8 -13699462.44447  22391549.373    22391559.7494
  21478320.036   -17713342.547 9 -13791773.40347  21478318.919    21478327.4694
  21428448.198   -20608894.137 9 -16036402.21947  21428448.164    21428456.4474
  24223907.126    -7434881.301 8  -5526885.24745  24223906.369    24223922.1364
  21075933.265   -19944934.606 9 -15518140.39748  21075932.466    21075941.1034
  23438873.723   -11436358.555 8  -8897447.79446  23438872.807    23438885.5064
 02  1 25  1 57 30.0000000  0 10 26 24 05 06 17 10 30 18 23 15
  23963471.267    -4172974.413 8  -3235660.46145  23963471.055    23963484.1974
  24728978.598    -4138848.132 7  -2965611.35745  24728978.095    24728989.8034
  23408558.264   -10128166.817 8  -7882502.93646  23408557.373    23408569.4684
  20569597.124   -26651933.587 9 -20595651.49448  20569596.635    20569604.2434
  22381129.478   -17656982.270 8 -13742132.77347  22381128.697    22381139.0694
  21490690.890   -17648333.023 9 -13741116.59047  21490689.785    21490698.3334
  21442530.431   -20534891.427 9 -15978737.80047  21442530.395    21442538.7044
  24203023.993    -7544620.661 8  -5612396.04145  24203023.287    24203039.0724
  21065821.586   -19998071.407 9 -15559545.58748  21065820.786    21065829.4054
  23424588.931   -11511424.383 8  -8955940.48246  23424588.026    23424600.7534
 02  1 25  1 58  0.0000000  0 10 26 24 05 06 17 10 30 18 23 15
  23946246.963    -4263487.602 8  -3306189.98545  23946246.708    23946259.8604
  24743511.188    -4062478.330 7  -2906102.38045  24743510.584    24743522.2924
  23428461.179   -10023576.362 8  -7801003.96246  23428460.295    23428472.3644
  20562977.215   -26686721.250 9 -20622758.70548  20562976.738    20562984.3324
  22370744.142   -17711557.456 8 -13784658.80347  22370743.347    22370753.6904
  21503148.651   -17582866.997 9 -13690104.05347  21503147.551    21503156.0724
  21456689.674   -20460484.345 9 -15920758.28647  21456689.633    21456697.9564
  24182161.253    -7654253.152 8  -5697823.58645  24182160.580    24182176.1874
  21055799.893   -20050735.427 9 -15600582.37948  21055799.084    21055807.6774
  23410334.877   -11586329.156 8  -9014307.68846  23410333.974    23410346.6374
 02  1 25  1 58 30.0000000  0 10 26 24 05 06 17 10 30 18 23 15
  23929036.712    -4353927.675 8  -3376662.55245  23929036.433    23929049.4324
  24758034.544    -3986157.958 8  -2846631.94145  24758033.870    24758045.7044
  23448380.707    -9918898.799 8  -7719437.10646  23448379.815    23448391.9474
  20556416.357   -26721198.523 9 -20649624.05148  20556415.870    20556423.4534
  22360393.922   -17765948.075 8 -13827041.01347  22360393.102    22360403.3754
  21515692.644   -17516947.805 9 -13638738.40547  21515691.527    21515700.0184
  21470925.282   -20385675.894 9 -15862466.01847  21470925.228    21470933.5534
  24161319.116    -7763777.309 8  -5783166.72045  24161318.498    24161333.9234
  21045868.279   -20102925.978 9 -15641250.22948  21045867.469    21045876.0254
  23396111.378   -11661073.245 8  -9072549.68146  23396110.490    23396123.0934
 02  1 25  1 59  0.0000000  0 10 26 24 05 06 17 10 30 18 23 15
  23911841.070    -4444291.104 8  -3447075.41245  23911840.827    23911853.5584
  24772548.493    -3909886.985 8  -2787199.96845  24772547.812    24772559.4944
  23468316.349    -9814136.744 8  -7637804.40846  23468315.473    23468327.5534
  20549914.927   -26755363.548 9 -20676246.08948  20549914.450    20549922.0254
  22350078.776   -17820154.301 8 -13869279.54747  22350077.943    22350088.1724
  21528322.422   -17450577.729 9 -13587021.42347  21528321.303    21528329.7574
  21485236.759   -20310468.705 9 -15803863.04447  21485236.700    21485245.0374
  24140498.136    -7873190.639 8  -5868423.54645  24140497.542    24140512.7774
  21036027.011   -20154641.747 9 -15681548.12648  21036026.202    21036034.7264
  23381918.511   -11735656.309 8  -9130666.21146  23381917.656    23381930.3214
 02  1 25  1 59 30.0000000  0 10 26 24 05 06 17 10 30 18 23 15
  23894660.619    -4534574.276 8  -3517425.75145  23894660.381    23894672.9164
  24787052.956    -3833665.120 8  -2727806.24845  24787052.301    24787064.0364
  23488267.569    -9709292.663 8  -7556107.80446  23488266.691    23488278.8104
  20543473.272   -26789214.370 9 -20702623.29148  20543472.780    20543480.3524
  22339798.698   -17874176.111 8 -13911374.38647  22339797.870    22339808.0304
  21541037.619   -17383758.896 9 -13534954.76647  21541036.491    21541044.9034
  21499623.643   -20234865.183 9 -15744951.24347  21499623.580    21499631.9214
  24119698.772    -7982490.518 8  -5953591.97545  24119698.181    24119713.2614
  21026276.397   -20205881.109 9 -15721474.79648  21026275.592    21026284.0854
  23367756.426   -11810077.999 8  -9188656.99246  23367755.500    23367768.2094
 02  1 25  2  0  0.0000000  0 10 26 24 05 06 17 10 30 18 23 15
  23877495.982    -4624774.351 8  -3587711.34345  23877495.774    23877508.1364
  24801547.933    -3757493.445 8  -2668451.64145  24801547.206    24801559.0214
  23508233.858    -9604369.625 8  -7474349.66846  23508232.959    23508245.0984
  20537091.724   -26822749.509 9 -20728754.50048  20537091.228    20537098.7744
  22329553.578   -17928014.231 8 -13953326.08047  22329552.722    22329562.8614
  21553837.572   -17316494.578 9 -13482540.96947  21553836.440    21553844.8424
  21514085.343   -20158868.611 9 -15685733.16547  21514085.309    21514093.6364
  24098921.327    -8091675.315 8  -6038670.72645  24098920.675    24098935.7434
  21016616.544   -20256643.561 9 -15761029.84848  21016615.730    21016624.2014
  23353624.920   -11884338.796 8  -9246522.40146  23353623.983    23353636.7174
 02  1 25  2  0 30.0000000  0 10 26 24 05 06 17 10 30 18 23 15
  23860347.876    -4714887.370 8  -3657929.09245  23860347.645    23860359.9324
  24816033.453    -3681371.486 8  -2609135.78545  24816032.738    24816044.3604
  23528214.739    -9499369.795 8  -7392531.69446  23528213.826    23528225.9554
  20530770.653   -26855966.806 9 -20754638.04348  20530770.154    20530777.6744
  22319343.485   -17981668.203 8 -13995134.28647  22319342.631    22319352.7884
  21566721.937   -17248786.571 9 -13429781.44947  21566720.800    21566729.1844
  21528621.469   -20082480.953 9 -15626210.34947  21528621.425    21528629.7674
  24078166.395    -8200742.030 8  -6123657.46645  24078165.753    24078180.7894
  21007047.765   -20306927.402 9 -15800211.95948  21007046.944    21007055.4064
  23339524.288   -11958438.121 8  -9304262.01046  23339523.294    23339535.9274
 02  1 25  2  1  0.0000000  0 10 26 24 05 06 17 10 30 18 23 15
  23843216.728    -4804911.113 8  -3728077.24945  23843216.485    23843228.8554
  24830509.332    -3605300.214 8  -2549859.41445  24830508.647    24830520.2094
  23548209.519    -9394296.906 8  -7310656.78146  23548208.584    23548220.7224
  20524510.142   -26888865.709 9 -20780273.48048  20524509.658    20524517.1584
  22309168.182   -18035139.426 8 -14036800.08847  22309167.365    22309177.5344
  21579690.004   -17180638.639 9 -13376679.12947  21579688.902    21579697.2724
  21543231.278   -20005705.957 9 -15566385.70747  21543231.251    21543239.5984
  24057434.082    -8309689.791 8  -6208551.51545  24057433.426    24057448.2414
  20997570.075   -20356732.622 9 -15839021.11848  20997569.255    20997577.6844
  23325454.112   -12032376.929 8  -9361876.51346  23325453.075    23325465.6894
 02  1 25  2  1 30.0000000  0 10 26 24 05 06 17 10 30 18 23 15
  23826103.417    -4894840.639 7  -3798151.99345  23826103.202    23826115.5184
  24844975.652    -3529278.987 8  -2490622.03045  24844975.092    24844986.4584
  23568217.936    -9289152.079 8  -7228725.82946  23568217.073    23568229.1724
  20518310.854   -26921443.001 9 -20805658.32148  20518310.349    20518317.8314
  22299027.882   -18088426.738 8 -14078322.58647  22299027.065    22299037.2134
  21592741.498   -17112052.150 9 -13323235.08947  21592740.397    21592748.7804
  21557914.546   -19928545.085 9 -15506260.38747  21557914.516    21557922.8634
  24036725.171    -8418514.581 8  -6293349.74745  24036724.483    24036739.2564
  20988183.927   -20406056.812 9 -15877455.45148  20988183.103    20988191.5124
  23311414.790   -12106153.582 8  -9419364.69446  23311413.794    23311426.3434
 02  1 25  2  2  0.0000000  0 10 26 24 05 06 17 10 30 18 23 15
  23809008.671    -4984673.058 7  -3868151.05545  23809008.417    23809020.8674
  24859432.377    -3453308.279 8  -2431424.03045  24859431.924    24859443.0724
  23588239.501    -9183938.547 8  -7146741.32746  23588238.592    23588250.6944
  20512172.992   -26953697.402 9 -20830791.55248  20512172.509    20512179.9474
  22288922.409   -18141530.833 8 -14119702.31747  22288921.621    22288931.7234
  21605875.997   -17043029.828 9 -13269451.43847  21605874.894    21605883.2624
  21572670.674   -19851001.429 9 -15445836.78747  21572670.611    21572678.9694
  24016040.032    -8527214.743 8  -6378050.85345  24016039.313    24016053.9534
  20978889.444   -20454899.223 9 -15915514.37348  20978888.618    20978897.0024
  23297406.208   -12179768.604 8  -9476726.91646  23297405.222    23297417.7494
 02  1 25  2  2 30.0000000  0  9 26 05 06 17 10 30 18 23 15
  23791932.973    -5074405.115 7  -3938071.90845  23791932.788    23791945.2554
  23608273.587    -9078658.984 8  -7064705.37946  23608272.672    23608284.8334
  20506096.909   -26985627.203 9 -20855671.84748  20506096.415    20506103.8474
  22278851.754   -18194452.115 8 -14160939.59447  22278850.942    22278861.0074
  21619092.851   -16973574.629 9 -13215330.47547  21619091.764    21619100.1144
  21587499.049   -19773077.715 9 -15385117.04447  21587498.995    21587507.3864
  23995378.947    -8635787.977 8  -6462653.04845  23995378.246    23995392.7974
  20969686.840   -20503258.885 9 -15953197.12648  20969686.019    20969694.3734
  23283428.371   -12253222.000 8  -9533963.19346  23283427.409    23283439.8644
 02  1 25  2  3  0.0000000  0  9 26 05 06 17 10 30 18 23 15
  23774876.934    -5164034.330 7  -4007912.64445  23774876.785    23774889.1194
  23628319.566    -8973317.272 8  -6982621.00546  23628318.655    23628330.8104
  20500082.725   -27017231.754 9 -20880298.70448  20500082.238    20500089.6584
  22268815.711   -18247191.644 8 -14202035.24647  22268814.910    22268824.9244
  21632391.436   -16903690.193 9 -13160875.04447  21632390.328    21632398.6604
  21602399.051   -19694777.795 9 -15324104.15147  21602398.990    21602407.3904
  23974742.231    -8744233.253 8  -6547155.49745  23974741.563    23974756.0864
  20960576.104   -20551135.727 9 -15990503.65948  20960575.286    20960583.5994
  23269481.092   -12326514.712 8  -9591074.27346  23269480.114    23269492.5624
 02  1 25  2  3 30.0000000  0  9 26 05 06 17 10 30 18 23 15
  23757841.548    -5253555.372 8  -4077669.08645  23757841.369    23757853.5644
  23648377.141    -8867914.301 8  -6900488.90746  23648376.210    23648388.4094
  20494131.080   -27048507.497 9 -20904669.34148  20494130.599    20494138.0094
  22258814.559   -18299747.775 8 -14242987.97847  22258813.754    22258823.7514
  21645771.525   -16833377.137 9 -13106085.62847  21645770.425    21645778.7784
  21617370.517   -19616102.388 9 -15262798.67847  21617370.466    21617378.8884
  23954130.780    -8852546.240 8  -6631554.87645  23954130.071    23954144.5314
  20951557.784   -20598526.908 9 -16027431.75748  20951556.959    20951565.2574
  23255564.716   -12399644.810 8  -9648058.64646  23255563.778    23255576.1484
 02  1 25  2  4  0.0000000  0  9 26 05 06 17 10 30 18 23 15
  23740827.312    -5342965.370 8  -4147339.01745  23740827.028    23740839.1574
  23668445.798    -8762452.967 8  -6818311.31745  23668444.907    23668457.1294
  20488242.269   -27079453.152 9 -20928782.77148  20488241.785    20488249.1834
  22248848.123   -18352121.383 8 -14283798.48647  22248847.323    22248857.3574
  21659232.616   -16762638.540 9 -13050964.62547  21659231.536    21659239.8434
  21632412.754   -19537054.797 9 -15201203.19147  21632412.712    21632421.1364
  23933544.696    -8960725.419 8  -6715849.94945  23933543.983    23933558.3814
  20942631.958   -20645431.994 9 -16063981.08248  20942631.138    20942639.4034
  23241679.204   -12472612.589 8  -9704916.54446  23241678.331    23241690.6924
 02  1 25  2  4 30.0000000  0  9 26 05 06 17 10 30 18 23 15
  23723834.861    -5432261.027 8  -4216919.86045  23723834.511    23723846.5334
  23688524.991    -8656936.081 8  -6736090.45845  23688524.156    23688536.3594
  20482416.582   -27110067.125 9 -20952637.74748  20482416.089    20482423.4644
  22238916.376   -18404312.810 8 -14324467.03447  22238915.559    22238925.5684
  21672774.110   -16691477.392 9 -12995514.36547  21672773.041    21672781.3074
  21647525.327   -19457637.947 9 -15139319.97547  21647525.290    21647533.7024
  23912984.516    -9068768.485 8  -6800038.95745  23912983.797    23912998.1874
  20933798.842   -20691850.097 9 -16100150.94348  20933798.013    20933806.2574
  23227824.784   -12545418.045 8  -9761647.96746  23227823.883    23227836.1044
 02  1 25  2  5  0.0000000  0  9 26 05 06 17 10 30 18 23 15
  23706864.701    -5521439.031 8  -4286409.02045  23706864.359    23706876.2164
  23708614.161    -8551366.534 8  -6653828.55345  23708613.368    23708625.6464
  20476654.297   -27140347.909 9 -20976233.09648  20476653.798    20476661.1684
  22229019.167   -18456322.538 8 -14364993.99347  22229018.361    22229028.3394
  21686395.479   -16619896.531 9 -12939737.05047  21686394.392    21686402.6644
  21662707.631   -19377854.731 9 -15077151.28447  21662707.560    21662715.9954
  23892450.625    -9176673.255 8  -6884120.16545  23892449.911    23892464.2774
  20925058.569   -20737780.208 9 -16135940.55548  20925057.734    20925065.9444
  23214001.213   -12618061.204 8  -9818252.91946  23214000.272    23214012.4434
 02  1 25  2  5 30.0000000  0  9 26 05 06 17 10 30 18 23 15
  23689917.611    -5610496.155 8  -4355804.00745  23689917.381    23689928.9384
  23728712.874    -8445747.129 8  -6571527.78445  23728712.114    23728724.4684
  20470955.708   -27170293.841 9 -20999567.52148  20470955.203    20470962.5624
  22219156.500   -18508150.858 8 -14405379.59847  22219155.679    22219165.5694
  21700096.249   -16547898.420 9 -12883634.61247  21700095.167    21700103.4344
  21677959.009   -19297708.078 9 -15014699.39347  21677958.961    21677967.4334
  23871943.416    -9284437.864 8  -6968092.15245  23871942.649    23871956.9434
  20916411.244   -20783221.778 9 -16171349.47948  20916410.411    20916418.5914
  23200208.529   -12690542.389 8  -9874731.66946  23200207.571    23200219.6014
 02  1 25  2  6  0.0000000  0  9 26 05 06 17 10 30 18 23 15
  23672994.040    -5699429.134 8  -4425102.23145  23672993.807    23673005.3974
  23748820.585    -8340080.480 8  -6489190.21445  23748819.884    23748832.2864
  20465321.179   -27199903.236 9 -21022639.70748  20465320.673    20465328.0194
  22209328.244   -18559798.198 8 -14445624.17047  22209327.433    22209337.3044
  21713875.874   -16475485.899 9 -12827209.25247  21713874.787    21713883.0474
  21693279.040   -19217200.935 9 -14951966.59147  21693279.015    21693287.4674
  23851463.330    -9392059.948 8  -7051953.07745  23851462.546    23851476.7034
  20907857.046   -20828174.028 9 -16206377.11948  20907856.202    20907864.3744
  23186446.638   -12762861.575 8  -9931084.19146  23186445.688    23186457.6394
 02  1 25  2  6 30.0000000  0  9 26 05 06 17 10 30 18 23 15
  23656094.749    -5788234.214 8  -4494300.78345  23656094.487    23656106.1854
  23768936.947    -8234369.044 8  -6406817.75745  23768936.188    23768948.6114
  20459751.038   -27229174.159 9 -21045448.15248  20459750.540    20459757.8744
  22199534.450   -18611264.528 8 -14485727.68847  22199533.643    22199543.5424
  21727733.921   -16402661.420 9 -12770462.88847  21727732.824    21727741.0954
  21708667.177   -19136335.751 9 -14888954.80247  21708667.152    21708675.6284
  23831010.818    -9499537.110 8  -7135701.05945  23831010.046    23831024.0814
  20899396.210   -20872635.712 9 -16241022.49948  20899395.380    20899403.5384
  23172715.597   -12835018.277 8  -9987310.10246  23172714.633    23172726.5994
 02  1 25  2  7  0.0000000  0  9 26 05 06 17 10 30 18 23 15
  23639220.476    -5876907.975 8  -4563397.01045  23639220.289    23639231.8994
  23789061.247    -8128615.373 8  -6324412.39145  23789060.466    23789072.9554
  20454245.590   -27258105.175 9 -21067991.73348  20454245.091    20454252.4124
  22189775.049   -18662550.165 8 -14525690.39547  22189774.249    22189784.1434
  21741669.734   -16329428.155 9 -12713397.98147  21741668.626    21741676.8874
  21724122.899   -19055115.502 9 -14825666.33047  21724122.883    21724131.3684
  23810586.218    -9606867.204 8  -7219334.45245  23810585.425    23810599.3754
  20891028.857   -20916606.071 9 -16275285.03048  20891028.022    20891036.1494
  23159015.426   -12907012.602 8 -10043409.48646  23159014.509    23159026.4994
 02  1 25  2  7 30.0000000  0  9 26 05 06 17 10 30 18 23 15
  23622371.962    -5965446.966 8  -4632388.21945  23622371.723    23622383.3494
  23809193.103    -8022822.139 8  -6241976.19845  23809192.299    23809204.8484
  20448805.173   -27286694.534 9 -21090269.09148  20448804.677    20448811.9764
  22180049.975   -18713655.480 8 -14565512.60347  22180049.152    22180059.0124
  21755682.935   -16255788.194 9 -12656016.17747  21755681.825    21755690.0674
  21739645.651   -18973543.096 9 -14762103.45947  21739645.627    21739654.1324
  23790190.087    -9714048.157 8  -7302851.63045  23790189.325    23790203.0934
  20882755.177   -20960084.199 9 -16309164.00848  20882754.330    20882762.4314
  23145346.134   -12978844.533 8 -10099382.33646  23145345.191    23145357.2534
 02  1 25  2  8  0.0000000  0  9 26 05 06 17 10 30 18 23 15
  23605549.688    -6053848.100 8  -4701272.01445  23605549.378    23605561.1084
  23829331.869    -7916992.401 8  -6159511.54945  23829331.117    23829343.6534
  20443429.999   -27314940.999 9 -21112279.25848  20443429.498    20443436.7884
  22170359.105   -18764580.845 8 -14605194.58247  22170358.271    22170368.0914
  21769772.939   -16181744.867 9 -12598320.05847  21769771.811    21769780.0194
  21755234.873   -18891621.423 9 -14698268.42847  21755234.854    21755243.3054
  23769822.635    -9821078.012 8  -7386251.06645  23769821.885    23769835.5774
  20874575.252   -21003069.536 9 -16342658.99148  20874574.413    20874582.4984
  23131707.653   -13050514.319 8 -10155228.85246  23131706.743    23131718.8644
 02  1 25  2  8 30.0000000  0  9 26 05 06 17 10 30 18 23 15
  23588754.364    -6142107.490 8  -4770045.35545  23588754.106    23588765.7394
  23849477.222    -7811128.296 8  -6077020.10645  23849476.441    23849488.9264
  20438120.489   -27342842.383 9 -21134020.53248  20438119.984    20438127.2594
  22160702.458   -18815326.191 8 -14644736.28947  22160701.636    22160711.4334
  21783939.234   -16107300.512 9 -12540311.44947  21783938.093    21783946.2914
  21770890.073   -18809353.067 9 -14634163.25847  21770890.026    21770898.5034
  23749484.432    -9927953.926 8  -7469530.55845  23749483.685    23749497.3404
  20866489.358   -21045560.920 9 -16375769.08148  20866488.511    20866496.5704
  23118100.201   -13122021.677 8 -10210948.79846  23118099.303    23118111.3394
 02  1 25  2  9  0.0000000  0  9 26 05 06 17 10 30 18 23 15
  23571986.612    -6230222.304 8  -4838706.05645  23571986.374    23571997.8724
  23869628.442    -7705233.077 8  -5994504.43545  23869627.641    23869640.1774
  20432876.915   -27370397.411 9 -21155491.92048  20432876.414    20432883.6714
  22151079.910   -18865892.408 8 -14684138.41547  22151079.087    22151088.8774
  21798181.246   -16032458.148 9 -12481992.70147  21798180.094    21798188.2954
  21786610.617   -18726741.332 9 -14569790.52047  21786610.563    21786619.0484
  23729175.898   -10034674.254 8  -7552688.81045  23729175.175    23729188.6974
  20858497.497   -21087558.098 9 -16408494.07748  20858496.663    20858504.7034
  23104523.595   -13193366.985 8 -10266542.48246  23104522.662    23104534.6034
 02  1 25  2  9 30.0000000  0  9 26 05 06 17 10 30 18 23 15
  23555247.029    -6318188.588 8  -4907251.00445  23555246.832    23555258.2494
  23889785.279    -7599308.817 8  -5911966.14345  23889784.456    23889797.0434
  20427699.613   -27397604.048 9 -21176691.84148  20427699.108    20427706.3664
  22141491.577   -18916279.214 8 -14723400.73447  22141490.735    22141500.5174
  21812498.531   -15957220.127 9 -12423365.64747  21812497.382    21812505.5974
  21802395.989   -18643788.659 9 -14505152.12547  21802395.936    21802404.4544
  23708897.489   -10141236.448 8  -7635723.84945  23708896.753    23708910.1574
  20850599.962   -21129059.640 9 -16440832.86848  20850599.121    20850607.1404
  23090977.967   -13264549.881 8 -10322009.61446  23090977.049    23090988.8294
 02  1 25  2 10  0.0000000  0  9 26 05 06 17 10 30 18 23 15
  23538536.366    -6406002.834 8  -4975677.49345  23538536.161    23538547.5314
  23909947.130    -7493358.105 8  -5829407.24545  23909946.239    23909958.8734
  20422588.942   -27424460.551 9 -21197618.92248  20422588.426    20422595.6604
  22131937.301   -18966486.880 8 -14762523.46147  22131936.459    22131946.2474
  21826890.580   -15881589.136 9 -12364432.37647  21826889.449    21826897.6644
  21818245.709   -18560497.759 9 -14440250.17547  21818245.693    21818254.2254
  23688649.595   -10247638.238 8  -7718633.91345  23688648.830    23688662.1314
  20842796.832   -21170064.992 9 -16472785.01348  20842795.993    20842803.9764
  23077463.287   -13335570.095 8 -10377349.96746  23077462.325    23077474.0644
 02  1 25  2 10 30.0000000  0  9 26 05 06 17 10 30 18 23 15
  23521855.276    -6493661.895 8  -5043983.05545  23521855.029    23521866.3724
  23930113.435    -7387383.991 8  -5746830.08245  23930112.528    23930125.1884
  20417545.187   -27450965.567 9 -21218272.12248  20417544.678    20417551.8814
  22122416.922   -19016516.146 8 -14801507.17847  22122416.100    22122425.8514
  21841356.858   -15805568.257 9 -12305195.29947  21841355.734    21841363.9804
  21834159.209   -18476871.982 9 -14375087.28447  21834159.176    21834167.7324
  23668432.598   -10353877.726 8  -7801417.50945  23668431.867    23668445.0104
  20835088.171   -21210573.938 9 -16504350.35048  20835087.329    20835095.2804
  23063979.405   -13406427.953 8 -10432563.81246  23063978.441    23063990.2164
 02  1 25  2 11  0.0000000  0  9 26 05 06 17 10 30 18 23 15
  23505204.408    -6581161.886 8  -5112164.67045  23505204.175    23505215.4344
  23950283.773    -7281388.696 8  -5664236.42345  23950282.854    23950295.4384
  20412568.657   -27477116.981 9 -21238649.79148  20412568.143    20412575.3404
  22112930.538   -19066366.801 8 -14840351.72147  22112929.698    22112939.3904
  21855896.888   -15729159.768 9 -12245656.19447  21855895.758    21855903.9824
  21850135.988   -18392913.658 9 -14309665.26947  21850135.956    21850144.5274
  23648246.960   -10459952.126 8  -7884072.47045  23648246.280    23648259.2914
  20827474.237   -21250585.211 9 -16535527.88948  20827473.390    20827481.3214
  23050526.431   -13477123.133 8 -10487650.87246  23050525.493    23050537.3354
 02  1 25  2 11 30.0000000  0  9 26 05 06 17 10 30 18 23 15
  23488584.293    -6668499.832 8  -5180220.01445  23488584.162    23488595.4184
  23970457.579    -7175375.251 8  -5581628.60545  23970456.638    23970469.1824
  20407659.733   -27502913.437 9 -21258750.86348  20407659.222    20407666.4114
  22103478.090   -19116039.358 8 -14879057.48647  22103477.251    22103486.8884
  21870510.098   -15652366.991 9 -12185817.63547  21870508.952    21870517.1414
  21866175.412   -18308626.244 9 -14243986.81847  21866175.382    21866183.9484
  23628093.108   -10565859.754 8  -7966597.49145  23628092.473    23628105.3034
  20819955.057   -21290098.523 9 -16566317.40148  20819954.206    20819962.1054
  23037104.300   -13547656.087 8 -10542611.50946  23037103.355    23037115.3444
 02  1 25  2 12  0.0000000  0  9 26 05 06 17 10 30 18 23 15
  23471995.850    -6755671.806 8  -5248146.03345  23471995.656    23472006.9014
  23990634.352    -7069345.896 8  -5499008.40345  23990633.310    23990645.8584
  20402818.691   -27528353.010 9 -21278573.84348  20402818.173    20402825.3554
  22094059.507   -19165533.951 8 -14917624.57447  22094058.662    22094068.2914
  21885195.946   -15575192.133 9 -12125681.35147  21885194.805    21885202.9934
  21882277.014   -18224012.160 9 -14178053.81747  21882276.965    21882285.5354
  23607971.491   -10671598.260 8  -8048990.73645  23607970.813    23607983.5434
  20812530.834   -21329112.734 9 -16596718.00948  20812529.986    20812537.8554
  23023713.192   -13618026.231 8 -10597445.27446  23023712.276    23023724.2704
 02  1 25  2 12 30.0000000  0  9 26 05 06 17 10 30 18 23 15
  23455439.628    -6842674.336 8  -5315940.01045  23455439.417    23455450.6334
  24010813.592    -6963303.026 7  -5416377.66945  24010812.630    24010825.2544
  20398045.888   -27553433.977 9 -21298117.39348  20398045.377    20398052.5404
  22084674.739   -19214850.751 8 -14956053.13147  22084673.899    22084683.5354
  21899953.967   -15497638.059 8 -12065249.57047  21899952.858    21899961.0234
  21898440.216   -18139074.146 9 -14111868.41147  21898440.175    21898448.7494
  23587882.389   -10777165.327 8  -8131250.41645  23587881.680    23587894.3304
  20805201.744   -21367627.113 9 -16626729.13448  20805200.899    20805208.7394
  23010353.156   -13688233.510 8 -10652152.13346  23010352.225    23010364.1364
 02  1 25  2 13  0.0000000  0  9 26 05 06 17 10 30 18 23 15
  23438916.267    -6929504.295 8  -5383599.52645  23438916.076    23438927.2834
  24030994.793    -6857249.667 8  -5333738.77645  24030993.909    24031006.5274
  20393341.579   -27578155.108 9 -21317380.54748  20393341.074    20393348.2124
  22075323.654   -19263990.310 8 -14994343.57347  22075322.822    22075332.4254
  21914783.588   -15419707.647 9 -12004524.54747  21914782.482    21914790.6544
  21914664.422   -18053815.510 9 -14045433.16047  21914664.383    21914672.9764
  23567826.372   -10882559.000 8  -8213374.96945  23567825.684    23567838.1274
  20797967.807   -21405641.444 9 -16656350.61048  20797966.967    20797974.7934
  22997024.065   -13758278.299 8 -10706732.36646  22997023.122    22997034.9264
 02  1 25  2 13 30.0000000  0  9 26 05 06 17 10 30 18 23 15
  23422426.506    -7016157.982 8  -5451121.70245  23422426.292    23422437.4734
  24051177.642    -6751188.268 8  -5251093.61545  24051176.877    24051189.4904
  20388706.068   -27602514.612 9 -21336361.91748  20388705.553    20388712.6794
  22066006.371   -19312952.670 8 -15032495.94347  22066005.542    22066015.0564
  21929684.424   -15341403.318 8 -11943508.15647  21929683.296    21929691.4264
  21930949.118   -17968239.007 8 -13978750.22847  21930949.070    21930957.6984
  23547803.763   -10987776.895 8  -8295362.57545  23547803.056    23547815.4274
  20790829.156   -21443154.909 9 -16685581.79848  20790828.319    20790836.1244
  22983725.850   -13828160.666 8 -10761186.04146  22983724.948    22983736.5364
 02  1 25  2 14  0.0000000  0  9 26 05 06 17 10 30 18 23 15
  23405970.827    -7102632.264 8  -5518504.07245  23405970.624    23405981.7574
  24071361.607    -6645121.720 8  -5168444.42745  24071360.813    24071373.3304
  20384139.633   -27626511.166 9 -21355060.47048  20384139.124    20384146.2264
  22056722.666   -19361738.613 8 -15070510.85347  22056721.819    22056731.2494
  21944655.748   -15262728.393 8 -11882202.99447  21944654.612    21944662.7404
  21947293.722   -17882347.787 8 -13911822.06147  21947293.665    21947302.3004
  23527814.995   -11092817.137 8  -8377211.76545  23527814.264    23527826.5024
  20783785.895   -21480167.295 9 -16714422.53348  20783785.055    20783792.8274
  22970458.514   -13897880.551 8 -10815513.08846  22970457.533    22970469.1084
 02  1 25  2 14 30.0000000  0  9 26 05 06 17 10 30 18 23 15
  23389550.078    -7188923.174 8  -5585743.55745  23389549.902    23389560.9754
  24091546.112    -6539051.973 7  -5085792.76045  24091545.241    24091557.7844
  20379642.680   -27650142.582 9 -21373474.50148  20379642.157    20379649.2434
  22047472.532   -19410347.802 8 -15108388.02147  22047471.653    22047481.1024
  21959697.126   -15183685.075 8 -11820610.76547  21959696.039    21959704.1434
  21963697.727   -17796144.350 8 -13844650.60947  21963697.698    21963706.3434
  23507860.426   -11197677.270 8  -8458920.60446  23507859.727    23507871.8704
  20776838.172   -21516677.452 9 -16742871.92048  20776837.325    20776845.0904
  22957222.112   -13967437.618 8 -10869713.24746  22957221.097    22957232.7364
 02  1 25  2 15  0.0000000  0  9 26 05 06 17 10 30 18 23 15
  23373164.826    -7275027.405 8  -5652837.56345  23373164.626    23373175.6644
  24111730.532    -6432981.836 7  -5003140.78645  24111729.707    24111742.3404
  20375215.483   -27673407.298 9 -21391602.78348  20375214.972    20375222.0474
  22038255.909   -19458780.837 8 -15146127.92847  22038255.054    22038264.5214
  21974808.106   -15104276.348 8 -11758733.80647  21974806.998    21974815.1164
  21980160.532   -17709631.845 8 -13777238.31947  21980160.472    21980169.1554
  23487940.660   -11302355.168 8  -8540487.45946  23487939.918    23487951.9964
  20769986.105   -21552685.027 9 -16770929.67948  20769985.249    20769992.9884
  22944016.607   -14036831.955 8 -10923786.58046  22944015.639    22944027.3684
 02  1 25  2 15 30.0000000  0  9 26 05 06 17 10 30 18 23 15
  23356815.806    -7360941.336 8  -5719783.30245  23356815.593    23356826.6674
  24131914.661    -6326913.753 7  -4920490.40245  24131913.833    24131926.4854
  20370858.375   -27696303.786 9 -21409444.14248  20370857.859    20370864.9124
  22029072.816   -19507037.715 8 -15183730.57947  22029071.981    22029081.4344
  21989988.097   -15024504.770 8 -11696574.10047  21989986.989    21989995.1114
  21996681.636   -17622813.021 8 -13709587.34847  21996681.584    21996690.3074
  23468055.933   -11406848.784 8  -8621910.73146  23468055.165    23468067.1764
  20763229.766   -21588189.442 9 -16798595.37048  20763228.916    20763236.6534
  22930842.138   -14106063.534 8 -10977733.08846  22930841.189    22930853.0104
 02  1 25  2 16  0.0000000  0  9 26 05 06 17 10 30 18 23 15
  23340503.584    -7446661.764 8  -5786578.24545  23340503.306    23340514.4714
  24152097.886    -6220850.632 8  -4837843.89745  24152097.062    24152109.7104
  20366571.624   -27718830.611 9 -21426997.45548  20366571.116    20366578.1504
  22019923.174   -19555119.027 8 -15221196.43047  22019922.355    22019931.7234
  22005236.553   -14944373.364 8 -11634134.02147  22005235.433    22005243.5744
  22013260.433   -17535691.102 8 -13641700.20047  22013260.367    22013269.1174
  23448206.645   -11511155.782 8  -8703188.57346  23448205.886    23448217.8164
  20756569.244   -21623190.345 9 -16825868.71448  20756568.407    20756576.1224
  22917698.689   -14175132.431 8 -11031552.82446  22917697.739    22917709.5414
 02  1 25  2 16 30.0000000  0  9 26 05 06 17 10 30 18 23 15
  23324228.859    -7532185.248 8  -5853219.73845  23324228.563    23324239.7024
  24172279.725    -6114795.002 8  -4755203.21745  24172278.860    24172291.5114
  20362355.513   -27740986.172 9 -21444261.46648  20362354.995    20362362.0084
  22010806.833   -19603025.084 8 -15258525.71447  22010806.016    22010815.3584
  22020552.899   -14863885.094 8 -11571415.85947  22020551.809    22020559.9654
  22029896.357   -17448268.813 8 -13573578.99647  22029896.300    22029905.0514
  23428393.268   -11615274.034 8  -8784319.37046  23428392.532    23428404.4684
  20750004.622   -21657687.183 9 -16852749.28048  20750003.791    20750011.4904
  22904586.215   -14244038.788 8 -11085245.90546  22904585.246    22904596.9814
 02  1 25  2 17  0.0000000  0  9 26 05 06 17 10 30 18 23 15
  23307992.335    -7617508.054 8  -5919704.84945  23307992.003    23308003.0474
  24192459.712    -6008749.164 8  -4672570.17945  24192458.829    24192471.4774
  20358210.430   -27762768.516 9 -21461234.66148  20358209.925    20358216.9214
  22001723.889   -19650755.970 8 -15295718.50247  22001723.064    22001732.3994
  22035936.794   -14783042.132 8 -11508421.31747  22035935.679    22035943.8404
  22046588.909   -17360549.021 8 -13505225.96647  22046588.884    22046597.6364
  23408616.344   -11719201.040 8  -8865301.13446  23408615.613    23408627.4734
  20743536.060   -21691679.448 9 -16879236.66948  20743535.230    20743542.8954
  22891504.667   -14312782.504 8 -11138812.25546  22891503.662    22891515.3744
 02  1 25  2 17 30.0000000  0  9 26 05 06 17 10 30 18 23 15
  23291794.585    -7702627.061 8  -5986031.16845  23291794.306    23291805.2874
  24212637.135    -5902716.357 8  -4589947.27945  24212636.250    24212649.0064
  20354136.535   -27784176.705 9 -21477916.30748  20354136.025    20354143.0024
  21992674.122   -19698312.451 9 -15332775.39047  21992673.289    21992682.5934
  22051387.581   -14701847.964 8 -11445153.10447  22051386.423    22051394.5454
  22063337.416   -17272535.149 8 -13436643.78547  22063337.389    22063346.1954
  23388876.189   -11822934.968 8  -8946132.45446  23388875.449    23388887.2204
  20737163.512   -21725167.128 9 -16905330.88148  20737162.671    20737170.3224
  22878453.931   -14381363.801 8 -11192252.02746  22878452.917    22878464.5834
 02  1 25  2 18  0.0000000  0  9 26 05 06 17 10 30 18 23 15
  23275636.329    -7787538.457 8  -6052195.70045  23275636.133    23275646.9614
  24232811.734    -5796698.509 8  -4507336.05445  24232810.874    24232823.7044
  20350134.247   -27805208.703 9 -21494304.82148  20350133.726    20350140.6884
  21983657.586   -19745694.449 9 -15369696.32447  21983656.761    21983666.0074
  22066904.697   -14620304.795 8 -11381612.94447  22066903.571    22066911.6624
  22080141.420   -17184229.788 8 -13367834.47147  22080141.396    22080150.2114
  23369173.157   -11926473.773 8  -9026811.74746  23369172.489    23369184.1094
  20730887.125   -21758149.444 9 -16931031.30148  20730886.286    20730893.9214
  22865434.077   -14449782.351 8 -11245564.98846  22865433.091    22865444.6654
 02  1 25  2 18 30.0000000  0  9 26 05 06 17 10 30 18 23 15
  23259518.369    -7872238.536 8  -6118195.59045  23259518.101    23259528.8264
  24252983.007    -5690697.989 8  -4424738.30945  24252982.130    24252995.0094
  20346203.887   -27825862.626 9 -21510398.73148  20346203.377    20346210.3294
  21974674.214   -19792901.905 8 -15406481.24847  21974673.400    21974682.6024
  22082487.689   -14538415.466 8 -11317803.04747  22082486.573    22082494.6694
  22097000.359   -17095635.684 8 -13298800.16047  22097000.345    22097009.1434
  23349507.734   -12029815.024 8  -9107337.11246  23349507.083    23349518.6544
  20724707.009   -21790625.709 9 -16956337.40048  20724706.175    20724713.7824
  22852445.264   -14518038.179 8 -11298751.15246  22852444.272    22852455.8194
 02  1 25  2 19  0.0000000  0  9 26 05 06 17 10 30 18 23 15
  23243441.107    -7956724.255 8  -6184028.42346  23243440.921    23243451.5104
  24273150.435    -5584717.662 8  -4342156.31645  24273149.628    24273162.5044
  20342345.690   -27846137.302 9 -21526197.13048  20342345.178    20342352.1094
  21965723.942   -19839935.451 9 -15443130.66147  21965723.126    21965732.2964
  22098135.969   -14456182.973 8 -11253725.75347  22098134.840    22098142.9474
  22113913.600   -17006756.050 8 -13229543.36447  22113913.586    22113922.4134
  23329880.189   -12132956.759 8  -9187707.00946  23329879.551    23329891.0894
  20718623.253   -21822595.900 9 -16981249.15348  20718622.416    20718630.0014
  22839487.435   -14586131.617 8 -11351810.77346  22839486.463    22839497.9284
 02  1 25  2 19 30.0000000  0  9 26 05 06 17 10 30 18 23 15
  23227405.465    -8040992.021 8  -6249691.42746  23227405.252    23227415.7034
  24293313.611    -5478760.054 8  -4259592.00945  24293312.799    24293325.6204
  20338559.983   -27866031.113 9 -21541698.74248  20338559.478    20338566.3934
  21956806.729   -19886795.593 9 -15479644.94447  21956805.890    21956815.0364
  22113849.077   -14373609.933 8 -11189383.10047  22113847.932    22113856.0444
  22130880.690   -16917593.832 8 -13160066.36347  22130880.650    22130889.4824
  23310291.052   -12235896.999 8  -9267919.90146  23310290.422    23310301.9464
  20712635.796   -21854059.773 9 -17005766.37248  20712634.971    20712642.5344
  22826560.556   -14654062.657 8 -11404743.86646  22826559.552    22826570.9444
 02  1 25  2 20  0.0000000  0  9 26 05 06 17 10 30 18 23 15
  23211411.839    -8125038.304 8  -6315181.85446  23211411.665    23211421.9174
  24313471.946    -5372827.738 8  -4177047.39045  24313471.124    24313483.9614
  20334847.035   -27885542.519 9 -21556902.38348  20334846.529    20334853.4274
  21947922.414   -19933482.354 8 -15516024.12447  21947921.580    21947930.7444
  22129626.419   -14290699.316 8 -11124777.40547  22129625.279    22129633.3644
  22147900.956   -16828152.092 8 -13090371.55347  22147900.917    22147909.7084
  23290740.723   -12338633.470 8  -9347974.02146  23290740.087    23290751.5794
  20706744.792   -21885016.850 9 -17029888.69048  20706743.970    20706751.5174
  22813664.503   -14721831.317 8 -11457550.43246  22813663.470    22813674.8514
 02  1 25  2 20 30.0000000  0  9 26 05 06 17 10 30 18 23 15
  23195461.046    -8208859.417 8  -6380496.82045  23195460.837    23195471.1394
  24333625.089    -5266923.003 8  -4094524.29145  24333624.223    24333637.0724
  20331207.216   -27904669.682 9 -21571806.60948  20331206.709    20331213.5934
  21939071.094   -19979995.766 9 -15552268.22747  21939070.278    21939079.4054
  22145467.501   -14207453.721 8 -11059910.68147  22145466.383    22145474.4414
  22164973.883   -16738433.385 8 -13020460.92247  22164973.848    22164982.6474
  23271229.652   -12441163.957 8  -9427867.64646  23271228.994    23271240.3484
  20700950.341   -21915466.516 9 -17053615.62248  20700949.511    20700957.0384
  22800799.329   -14789437.464 8 -11510230.35546  22800798.316    22800809.6744
 02  1 25  2 21  0.0000000  0  9 26 05 06 17 10 30 18 23 15
  23179553.816    -8292451.815 8  -6445633.58746  23179553.579    23179563.8194
  24353772.414    -5161048.316 7  -4012024.59845  24353771.564    24353784.4314
  20327640.830   -27923410.931 9 -21586410.13048  20327640.318    20327647.1974
  21930252.735   -20026336.183 9 -15588377.53347  21930251.923    21930260.9774
  22161371.844   -14123875.779 8 -10994784.98647  22161370.712    22161378.7874
  22182098.971   -16648440.819 8 -12950336.89847  22182098.912    22182107.7254
  23251758.257   -12543486.034 8  -9507598.88046  23251757.594    23251768.7514
  20695252.516   -21945408.552 9 -17076947.00048  20695251.686    20695259.1894
  22787965.036   -14856880.953 8 -11562783.54146  22787964.021    22787975.3744
 02  1 25  2 21 30.0000000  0  9 26 05 06 17 10 30 18 23 15
  23163690.722    -8375812.204 8  -6510589.56246  23163690.511    23163700.7064
  24373913.514    -5055206.308 7  -3929550.39145  24373912.641    24373925.5514
  20324148.135   -27941765.005 9 -21600711.95548  20324147.625    20324154.4844
  21921467.232   -20072504.104 9 -15624352.42447  21921466.405    21921475.4204
  22177338.857   -14039968.398 8 -10929402.58447  22177337.739    22177345.8244
  22199275.556   -16558177.516 8 -12880001.90847  22199275.501    22199284.2894
  23232326.808   -12645598.110 8  -9587166.47046  23232326.136    23232337.1774
  20689651.260   -21974842.918 9 -17099882.79348  20689650.423    20689657.9054
  22775161.776   -14924161.959 8 -11615210.13646  22775160.795    22775171.9704
 02  1 25  2 22  0.0000000  0  9 26 05 06 17 10 30 18 23 15
  23147872.459    -8458937.035 8  -6575361.98546  23147872.231    23147882.4354
  24394047.880    -4949399.531 7  -3847103.64145  24394047.032    24394060.0014
  20320729.398   -27959730.408 9 -21614710.91948  20320728.872    20320735.7244
  21912714.414   -20118499.799 9 -15660193.10547  21912713.574    21912722.6504
  22193368.032   -13955734.387 8 -10863765.67047  22193366.902    22193375.0144
  22216503.103   -16467646.409 8 -12809458.24747  22216503.025    22216511.8304
  23212935.714   -12747497.741 8  -9666568.52146  23212935.030    23212946.0034
  20684146.713   -22003769.210 9 -17122422.68348  20684145.874    20684153.3294
  22762389.487   -14991280.612 8 -11667510.23546  22762388.456    22762399.4594
 02  1 25  2 22 30.0000000  0  9 26 05 06 17 10 30 18 23 15
  23132099.660    -8541822.922 8  -6639948.21346  23132099.441    23132109.5904
  24414175.086    -4843630.480 7  -3764686.25545  24414174.239    24414187.3084
  20317384.886   -27977305.692 9 -21628405.89548  20317384.368    20317391.1994
  21903994.350   -20164323.473 9 -15695899.74947  21903993.521    21904002.5744
  22209458.791   -13871176.723 8 -10797876.56447  22209457.632    22209465.7524
  22233781.012   -16376850.470 8 -12738708.21047  22233780.934    22233789.7794
  23193585.477   -12849182.989 8  -9745803.53346  23193584.776    23193595.6744
  20678738.865   -22032187.301 9 -17144566.57348  20678738.028    20678745.4694
  22749648.031   -15058236.799 8 -11719683.75146  22749647.007    22749657.9274
 02  1 25  2 23  0.0000000  0  9 26 05 06 17 10 30 18 23 15
  23116373.001    -8624466.200 8  -6704345.40446  23116372.798    23116382.9324
  24434294.757    -4737901.688 7  -3682300.22945  24434294.020    24434306.8824
  20314114.979   -27994489.038 9 -21641795.46648  20314114.461    20314121.2694
  21895306.987   -20209975.475 9 -15731472.61747  21895306.155    21895315.1434
  22225610.683   -13786297.880 8 -10731737.18647  22225609.551    22225617.6704
  22251108.785   -16285792.674 8 -12667754.13947  22251108.718    22251117.5254
  23174276.452   -12950651.551 8  -9824869.69346  23174275.743    23174286.5854
  20673427.771   -22060096.875 9 -17166314.21848  20673426.935    20673434.3564
  22736937.422   -15125030.612 8 -11771730.73346  22736936.457    22736947.4094
 02  1 25  2 23 30.0000000  0  9 26 05 06 17 10 30 18 23 15
  23100693.200    -8706863.604 8  -6768551.00946  23100692.953    23100703.0944
  24454406.177    -4632215.793 7  -3599947.58945  24454405.328    24454418.2274
  20310919.895   -28011279.117 9 -21654878.59848  20310919.373    20310926.1644
  21886652.138   -20255456.231 9 -15766912.05547  21886651.337    21886660.3064
  22241823.162   -13701100.688 8 -10665349.74947  22241822.017    22241830.1604
  22268485.808   -16194476.129 8 -12596598.43947  22268485.728    22268494.5704
  23155009.091   -13051901.486 8  -9903765.49446  23155008.331    23155019.1394
  20668213.491   -22087497.815 9 -17187665.52848  20668212.654    20668220.0604
  22724257.677   -15191662.039 8 -11823651.18046  22724256.695    22724267.7734
 02  1 25  2 24  0.0000000  0  9 26 05 06 17 10 30 18 23 15
  23085060.807    -8789011.481 8  -6832562.17046  23085060.575    23085070.7424
  24474508.894    -4526574.902 7  -3517630.02845  24474508.071    24474520.9894
  20307799.990   -28027674.204 9 -21667653.94248  20307799.463    20307806.2364
  21878029.940   -20300765.723 9 -15802218.03947  21878029.146    21878038.1154
  22258095.660   -13615587.951 8 -10598716.43046  22258094.492    22258102.6554
  22285911.470   -16102903.735 8 -12525243.37847  22285911.404    22285920.2834
  23135783.676   -13152930.560 8  -9982489.19746  23135782.960    23135793.7324
  20663096.069   -22114389.919 9 -17208620.34148  20663095.217    20663102.6154
  22711608.886   -15258130.901 8 -11875444.95946  22711607.921    22711619.0174
 02  1 25  2 24 30.0000000  0  9 26 05 06 17 10 30 18 23 15
  23069476.633    -8870906.350 8  -6896376.18746  23069476.364    23069486.4544
  24494602.440    -4420981.668 7  -3435349.61245  24494601.580    24494614.6694
  20304755.461   -28043673.034 9 -21680120.51648  20304754.941    20304761.6894
  21869440.297   -20345904.259 9 -15837390.81547  21869439.482    21869448.4504
  22274427.639   -13529762.623 8 -10531839.53546  22274426.505    22274434.6604
  22303385.320   -16011078.402 8 -12453691.22647  22303385.258    22303394.1284
  23116600.767   -13253736.694 8 -10061039.18246  23116600.011    23116610.6724
  20658075.462   -22140773.103 9 -17229178.59848  20658074.613    20658081.9794
  22698991.099   -15324437.375 8 -11927112.22346  22698990.156    22699001.1504
 02  1 25  2 25  0.0000000  0  9 26 05 06 17 10 30 18 23 15
  23053941.205    -8952544.931 8  -6959990.48846  23053940.919    23053951.0054
  24514686.639    -4315438.758 7  -3353108.49545  24514685.706    24514699.2604
  20301786.608   -28059274.284 9 -21692277.28648  20301786.086    20301792.8294
  21860883.025   -20390872.458 9 -15872430.85847  21860882.216    21860891.1414
  22290818.557   -13443627.523 8 -10464721.26046  22290817.448    22290825.6214
  22320906.687   -15919003.332 8 -12381944.47247  22320906.618    22320915.5174
  23097460.640   -13354317.988 8 -10139413.94746  23097459.852    23097470.4334
  20653151.731   -22166647.197 9 -17249340.15948  20653150.881    20653158.2304
  22686404.259   -15390581.681 8 -11978653.13446  22686403.300    22686414.0744
 02  1 25  2 25 30.0000000  0  9 26 05 06 17 10 30 18 23 15
  23038455.105    -9033923.895 8  -7023402.48846  23038454.840    23038464.9264
  24534760.732    -4209948.745 7  -3270908.53545  24534759.839    24534773.3074
  20298893.676   -28074476.617 9 -21704123.21248  20298893.149    20298899.8734
  21852358.124   -20435670.736 9 -15907338.50147  21852357.298    21852366.1634
  22307267.949   -13357185.470 8 -10397363.79446  22307266.831    22307274.9764
  22338474.976   -15826681.692 8 -12310005.58247  22338474.906    22338483.8184
  23078363.626   -13454672.452 8 -10217611.96846  23078362.892    23078373.3554
  20648324.855   -22192012.352 9 -17269105.14548  20648323.993    20648331.3334
  22673848.222   -15456563.878 8 -12030067.72946  22673847.243    22673857.8514
 02  1 25  2 26  0.0000000  0  9 26 05 06 17 10 30 18 23 15
  23023019.217    -9115039.300 8  -7086609.12846  23023018.916    23023029.0884
  24554824.433    -4104513.617 8  -3188751.34245  24554823.579    24554836.9784
  20296077.024   -28089278.080 9 -21715656.77548  20296076.499    20296083.2094
  21843865.660   -20480298.892 9 -15942113.58047  21843864.807    21843873.6244
  22323775.238   -13270438.955 8 -10329769.08646  22323774.133    22323782.2444
  22356089.643   -15734116.121 8 -12237876.61647  22356089.571    22356098.4974
  23059310.243   -13554797.723 8 -10295631.39646  23059309.503    23059319.9064
  20643594.905   -22216868.065 9 -17288473.16348  20643594.047    20643601.3714
  22661322.916   -15522383.992 8 -12081356.00846  22661321.924    22661332.5594
 02  1 25  2 26 30.0000000  0 10 26 05 06 17 10 30 18 23 15 22
  23007632.926    -9195893.979 8  -7149612.59346  23007632.627    23007642.7994
  24574876.139    -3999142.004 8  -3106643.60845  24574875.218    24574888.4584
  20293335.771   -28103683.323 9 -21726881.59448  20293335.246    20293341.9364
  21835404.204   -20524763.646 9 -15976761.32947  21835403.345    21835412.1784
  22340338.757   -13183397.090 8 -10261944.23646  22340337.636    22340345.7714
  22373748.972   -15641315.819 8 -12165564.74746  22373748.915    22373757.8704
  23040299.662   -13654697.977 8 -10373475.47546  23040298.903    23040309.2604
  20638960.750   -22241220.446 9 -17307448.97348  20638959.905    20638967.2024
  22648827.262   -15588048.182 8 -12132522.78146  22648826.294    22648837.0354
  24284986.711    -5816601.031 7  -4516876.27645  24284985.684    24284999.5304
 02  1 25  2 27  0.0000000  0 10 26 05 06 17 10 30 18 23 15 22
  22992298.556    -9276475.762 8  -7212403.42146  22992298.273    22992308.4334
  24594916.860    -3893827.749 8  -3024580.54645  24594915.923    24594929.1094
  20290671.845   -28117682.185 9 -21737789.75048  20290671.321    20290677.9974
  21826975.464   -20569056.353 9 -16011275.02047  21826974.620    21826983.3994
  22356959.609   -13096053.737 8 -10193884.46346  22356958.480    22356966.6094
  22391454.065   -15548275.114 8 -12093065.55046  22391453.989    22391462.9554
  23021333.955   -13754362.337 8 -10451135.74346  23021333.213    23021343.5024
  20634424.010   -22265060.726 9 -17326025.74748  20634423.166    20634430.4514
  22636363.103   -15653547.434 8 -12183561.03546  22636362.132    22636372.9004
  24272579.916    -5881798.902 7  -4567679.61845  24272578.724    24272592.6074
 02  1 25  2 27 30.0000000  0 10 26 05 06 17 10 30 18 23 15 22
  22977016.584    -9356782.632 8  -7274980.02946  22977016.263    22977026.3724
  24614945.849    -3788574.829 8  -2942565.26845  24614944.848    24614957.9734
  20288085.181   -28131274.926 9 -21748381.45148  20288084.661    20288091.3194
  21818579.180   -20613178.786 9 -16045656.03347  21818578.323    21818587.0144
  22373636.987   -13008413.415 8 -10125593.28046  22373635.874    22373643.9984
  22409204.032   -15454998.476 8 -12020382.51146  22409203.981    22409212.9604
  23002413.185   -13853790.446 8 -10528611.91146  23002412.432    23002422.7024
  20629984.483   -22288390.435 9 -17344204.67448  20629983.630    20629990.8854
  22623930.067   -15718883.242 8 -12234471.94446  22623929.100    22623939.7734
  24260255.462    -5946563.723 7  -4618145.54345  24260254.306    24260268.0824
 02  1 25  2 28  0.0000000  0 10 26 05 06 17 10 30 18 23 15 22
  22961787.633    -9436810.581 8  -7337339.29346  22961787.316    22961797.4004
  24634962.806    -3683385.156 7  -2860599.29645  24634961.841    24634975.1014
  20285576.190   -28144459.635 9 -21758655.20148  20285575.668    20285582.3264
  21810215.337   -20657130.808 9 -16079904.25247  21810214.463    21810223.1604
  22390370.494   -12920478.120 8 -10057072.24246  22390369.400    22390377.5104
  22426998.445   -15361488.377 8 -11947517.55546  22426998.412    22427007.4264
  22983537.955   -13952979.515 8 -10605901.81046  22983537.189    22983547.4424
  20625642.168   -22311209.145 9 -17361985.42048  20625641.316    20625648.5594
  22611528.184   -15784055.420 8 -12285255.34546  22611527.186    22611537.7534
  24248013.851    -6010893.008 7  -4668272.07145  24248012.760    24248026.4184
 02  1 25  2 28 30.0000000  0 10 26 05 06 17 10 30 18 23 15 22
  22946612.106    -9516557.514 8  -7399479.58646  22946611.861    22946621.9144
  24654966.967    -3578262.377 7  -2778685.47045  24654965.882    24654979.0844
  20283144.862   -28157236.137 9 -21768610.87148  20283144.341    20283150.9934
  21801883.563   -20700913.920 9 -16114020.84947  21801882.701    21801891.4704
  22407159.332   -12832252.079 8  -9988324.66046  22407158.247    22407166.3464
  22444836.448   -15267749.204 8 -11874474.10246  22444836.423    22444845.4464
  22964708.266   -14051928.910 8 -10683004.96146  22964707.534    22964717.7314
  20621396.891   -22333518.089 9 -17379368.94848  20621396.045    20621403.2544
  22599157.100   -15849065.370 8 -12335912.32646  22599156.090    22599166.5924
  24235855.387    -6074786.106 7  -4718058.73345  24235854.158    24235867.7434
 02  1 25  2 29  0.0000000  0 10 26 05 06 17 10 30 18 23 15 22
  22931490.773    -9596020.125 8  -7461398.32346  22931490.530    22931500.4934
  24674957.891    -3473209.164 7  -2696825.88245  24674956.853    24674970.1504
  20280791.477   -28169603.045 9 -21778247.37048  20280790.961    20280797.5894
  21793583.892   -20744528.623 9 -16148006.22747  21793583.056    21793591.7324
  22424002.995   -12743738.148 8  -9919352.73946  22424001.926    22424009.9714
  22462717.504   -15173784.058 8 -11801254.56746  22462717.454    22462726.4724
  22945924.627   -14150636.552 8 -10759919.72246  22945923.888    22945934.0174
  20617248.534   -22355317.508 9 -17396355.44048  20617247.687    20617254.8794
  22586816.776   -15913913.331 8 -12386443.06446  22586815.773    22586826.3124
  24223780.026    -6138241.456 7  -4767504.26845  24223778.827    24223792.4734
 02  1 25  2 29 30.0000000  0 10 26 05 06 17 10 30 18 23 15 22
  22916424.179    -9675194.856 8  -7523092.74746  22916423.941    22916433.8584
  24694935.123    -3368227.876 7  -2615022.32545  24694934.193    24694947.5274
  20278516.321   -28181558.866 9 -21787563.55448  20278515.796    20278522.4314
  21785316.254   -20787975.054 9 -16181860.48947  21785315.390    21785323.9964
  22440900.873   -12654939.277 8  -9850158.78846  22440899.778    22440907.7964
  22480640.945   -15079595.965 8 -11727861.31246  22480640.886    22480649.9214
  22927187.305   -14249100.685 8 -10836644.74946  22927186.629    22927196.6544
  20613197.192   -22376607.308 9 -17412944.83248  20613196.351    20613203.5254
  22574507.353   -15978599.240 8 -12436847.53246  22574506.365    22574516.9514
  24211788.506    -6201256.938 8  -4816607.07245  24211787.368    24211800.8554
 02  1 25  2 30  0.0000000  0  9 26 06 17 10 30 18 23 15 22
  22901413.217    -9754077.330 8  -7584559.44546  22901413.002    22901422.8504
  20276319.817   -28193101.268 9 -21796557.58648  20276319.296    20276325.9414
  21777080.673   -20831252.646 9 -16215583.17547  21777079.842    21777088.4974
  22457852.613   -12565857.304 8  -9780744.23346  22457851.473    22457859.4654
  22498606.470   -14985186.928 8 -11654295.89046  22498606.409    22498615.4494
  22908496.983   -14347318.187 8 -10913177.59146  22908496.229    22908506.1714
  20609242.962   -22397386.628 9 -17429136.44548  20609242.129    20609249.2754
  22562228.962   -16043122.146 8 -12487124.97746  22562227.955    22562238.5874
  24199881.122    -6263829.868 8  -4865365.02745  24199880.012    24199893.3084
 02  1 25  2 30 30.0000000  0  9 26 06 17 10 30 18 23 15 22
  22886458.238    -9832665.465 8  -7645796.77046  22886458.025    22886467.8514
  20274202.045   -28204230.097 9 -21805229.35648  20274201.532    20274208.1684
  21768876.996   -20874363.019 9 -16249175.56447  21768876.161    21768884.8144
  22474857.468   -12476496.033 8  -9711112.04446  22474856.351    22474864.3514
  22516613.211   -14890561.236 8 -11580561.64746  22516613.143    22516622.1894
  22889853.661   -14445288.386 8 -10989517.73846  22889852.955    22889862.7874
  20605385.604   -22417656.834 9 -17444931.34548  20605384.769    20605391.9024
  22549981.361   -16107483.273 8 -12537276.35446  22549980.353    22549990.9584
  24188058.050    -6325959.662 8  -4913777.66545  24188056.977    24188070.1664
 02  1 25  2 31  0.0000000  0  9 26 06 17 10 30 18 23 15 22
  22871559.991    -9910955.951 8  -7706802.18146  22871559.749    22871569.4684
  20272163.211   -28214944.093 9 -21813577.88048  20272162.694    20272169.2964
  21760705.099   -20917306.444 9 -16282637.87047  21760704.238    21760712.8104
  22491914.882   -12386858.398 8  -9641264.51846  22491913.792    22491921.7854
  22534660.487   -14795722.283 8 -11506661.22846  22534660.419    22534669.4444
  22871257.726   -14543009.370 8 -11065663.68346  22871257.039    22871266.8014
  20601625.092   -22437418.308 9 -17460329.82948  20601624.262    20601631.3634
  22537764.366   -16171682.976 8 -12587301.93646  22537763.412    22537773.9864
  24176319.726    -6387644.707 8  -4961843.75845  24176318.633    24176331.6644
 02  1 25  2 31 30.0000000  0  9 26 06 17 10 30 18 23 15 22
  22856718.995    -9988945.058 8  -7767572.74946  22856718.793    22856728.4574
  20270203.590   -28225241.800 9 -21821602.02448  20270203.070    20270209.6584
  21752564.809   -20960083.229 9 -16315970.33147  21752563.974    21752572.5024
  22509024.453   -12296947.093 8  -9571203.73646  22509023.347    22509031.3054
  22552747.857   -14700672.700 8 -11432596.68046  22552747.818    22552756.8364
  22852709.679   -14640479.004 8 -11141613.78546  22852708.979    22852718.6754
  20597961.368   -22456671.061 9 -17475331.90948  20597960.529    20597967.6344
  22525578.136   -16235721.106 8 -12637201.61646  22525577.188    22525587.7094
  24164666.379    -6448882.832 8  -5009561.57745  24164665.241    24164678.2724
 02  1 25  2 32  0.0000000  0  9 26 06 17 10 30 18 23 15 22
  22841936.062   -10066629.583 8  -7828105.98246  22841935.877    22841945.4404
  20268323.425   -28235121.942 9 -21829300.79148  20268322.912    20268329.4854
  21744456.227   -21002693.588 9 -16349173.10947  21744455.407    21744463.9684
  22526185.581   -12206764.947 8  -9500931.90546  22526184.437    22526192.3764
  22570874.711   -14605415.701 8 -11358370.51746  22570874.648    22570883.6724
  22834209.806   -14737695.365 8 -11217366.52946  22834209.086    22834218.7484
  20594394.412   -22475415.232 9 -17489937.69448  20594393.578    20594400.6584
  22513422.750   -16299597.781 8 -12686975.49546  22513421.832    22513432.1864
  24153098.377    -6509672.404 8  -5056929.88445  24153097.199    24153110.1404
 02  1 25  2 32 30.0000000  0  9 26 06 17 10 30 18 23 15 22
  22827211.742   -10144005.802 8  -7888398.96846  22827211.571    22827221.0224
  20266523.009   -28244582.965 9 -21836672.97048  20266522.479    20266529.0504
  21736379.361   -21045137.665 9 -16382246.31247  21736378.528    21736387.0784
  22543397.719   -12116314.385 8  -9430450.91646  22543396.581    22543404.5174
  22589040.509   -14509954.016 8 -11283984.85546  22589040.443    22589049.4834
  22815758.519   -14834656.319 8 -11292920.26946  22815757.750    22815767.3684
  20590924.250   -22493650.804 9 -17504147.16548  20590923.410    20590930.4834
  22501298.136   -16363312.936 8 -12736623.48746  22501297.146    22501307.4884
  24141616.085    -6570011.491 7  -5103947.14645  24141614.968    24141627.8334
 02  1 25  2 33  0.0000000  0  9 26 06 17 10 30 18 23 15 22
  22812546.760   -10221070.443 8  -7948449.18646  22812546.563    22812555.9164
  20264802.606   -28253623.682 9 -21843717.64148  20264802.079    20264808.6384
  21728333.994   -21087415.831 9 -16415190.24247  21728333.148    21728341.6544
  22560660.311   -12025598.671 8  -9359763.31646  22560659.211    22560667.1204
  22607244.633   -14414290.844 8 -11209442.19646  22607244.540    22607253.6484
  22797356.195   -14931360.013 8 -11368273.55346  22797355.480    22797364.9944
  20587550.816   -22511377.940 9 -17517960.45748  20587549.976    20587557.0414
  22489204.123   -16426866.800 8 -12786145.80046  22489203.129    22489213.5064
  24130219.775    -6629898.419 7  -5150612.05645  24130218.628    24130231.6554
 02  1 25  2 33 30.0000000  0  9 26 06 17 10 30 18 23 15 22
  22797941.742   -10297819.648 8  -8008253.60646  22797941.484    22797950.8864
  20263162.498   -28262242.379 9 -21850433.46848  20263161.965    20263168.5124
  21720320.187   -21129527.920 9 -16448004.76447  21720319.366    21720327.8224
  22577972.936   -11934620.080 8  -9288870.88546  22577971.825    22577979.7444
  22625486.577   -14318428.806 8 -11134744.57246  22625486.522    22625495.6524
  22779003.318   -15027803.839 8 -11443424.34046  22779002.605    22779012.0894
  20584274.170   -22528596.641 9 -17531377.56148  20584273.324    20584280.3844
  22477140.787   -16490258.893 8 -12835542.04046  22477139.820    22477150.2794
  24118910.066    -6689330.918 7  -5196922.85645  24118908.868    24118921.8134
 02  1 25  2 34  0.0000000  0  9 26 06 17 10 30 18 23 15 22
  22783397.367   -10374250.179 8  -8067809.68646  22783397.102    22783406.4224
  20261602.911   -28270437.856 9 -21856819.50748  20261602.395    20261608.9154
  21712338.076   -21171474.355 9 -16480690.20647  21712337.242    21712345.6264
  22595335.161   -11843381.273 8  -9217775.67646  22595334.006    22595341.8924
  22643765.802   -14222371.090 8 -11059894.46646  22643765.737    22643774.8764
  22760700.230   -15123986.196 8 -11518371.40046  22760699.506    22760708.9624
  20581094.175   -22545307.425 9 -17544398.88848  20581093.326    20581100.3854
  22465108.287   -16553489.425 8 -12884812.40146  22465107.340    22465117.7174
  24107686.954    -6748307.516 7  -5242878.43445  24107685.807    24107698.6974
 02  1 25  2 34 30.0000000  0  9 26 06 17 10 30 18 23 15 22
  22768914.274   -10450358.674 8  -8127114.84246  22768913.949    22768923.3074
  20260124.116   -28278208.745 9 -21862874.70548  20260123.608    20260130.1124
  21704387.273   -21213255.639 9 -16513246.96047  21704386.426    21704394.8764
  22612746.305   -11751885.289 8  -9146480.09246  22612745.102    22612753.0074
  22662081.651   -14126120.809 8 -10984894.32846  22662081.568    22662090.7364
  22742447.277   -15219905.027 8 -11593113.11046  22742446.552    22742455.9834
  20578010.758   -22561510.486 9 -17557024.59348  20578009.900    20578016.9334
  22453106.561   -16616558.625 8 -12933957.07146  22453105.579    22453115.7824
  24096550.888    -6806826.598 7  -5288477.49145  24096549.966    24096562.6074
 02  1 25  2 35  0.0000000  0  9 26 06 17 10 30 18 23 15 22
  22754493.088   -10526141.847 8  -8186166.49746  22754492.803    22754502.0774
  20258726.400   -28285553.723 9 -21868598.01548  20258725.896    20258732.3704
  21696467.843   -21254871.775 9 -16545675.01847  21696467.048    21696475.4754
  22630205.837   -11660134.727 8  -9074986.11646  22630204.636    22630212.5314
  22680433.558   -14029680.935 8 -10909746.44146  22680433.512    22680442.7294
  22724244.793   -15315558.773 8 -11667648.27446  22724244.054    22724253.4224
  20575023.956   -22577206.059 9 -17569254.84648  20575023.098    20575030.1074
  22441135.502   -16679466.465 8 -12982975.98846  22441134.526    22441144.6544
  24085502.375    -6864886.265 7  -5333718.59845  24085501.335    24085513.9134
 02  1 25  2 35 30.0000000  0  9 26 06 17 10 30 18 23 15 22
  22740134.484   -10601596.170 8  -8244961.90246  22740134.223    22740143.4234
  20257409.918   -28292471.668 9 -21873988.57848  20257409.407    20257415.8894
  21688579.900   -21296323.139 9 -16577974.69347  21688579.099    21688587.3824
  22647713.280   -11568132.153 8  -9003295.77946  22647712.135    22647720.0134
  22698821.004   -13933054.517 8 -10834453.20746  22698820.973    22698830.1914
  22706093.186   -15410945.229 8 -11741975.17046  22706092.440    22706101.7324
  20572133.655   -22592394.435 9 -17581089.88748  20572132.799    20572139.8074
  22429195.049   -16742212.861 8 -13031869.09146  22429194.073    22429204.2824
  24074541.477    -6922484.923 7  -5378600.45445  24074540.433    24074553.0074
 02  1 25  2 36  0.0000000  0  9 26 06 17 10 30 18 23 15 22
  22725839.098   -10676718.248 8  -8303498.41846  22725838.840    22725847.9954
  20256174.939   -28298961.247 9 -21879045.34748  20256174.422    20256180.8924
  21680723.171   -21337609.977 9 -16610146.14947  21680722.359    21680730.6834
  22665268.179   -11475880.413 8  -8931411.28746  22665267.002    22665274.9104
  22717243.413   -13836244.525 8 -10759016.92946  22717243.350    22717252.5664
  22687992.831   -15506062.193 8 -11816092.07646  22687992.120    22688001.3154
  20569339.798   -22607076.006 9 -17592530.01348  20569338.943    20569345.9244
  22417285.356   -16804797.706 8 -13080636.32046  22417284.407    22417294.6744
  24063668.713    -6979620.893 8  -5423121.77745  24063667.900    24063680.2714
 02  1 25  2 36 30.0000000  0  9 26 06 17 10 30 18 23 15 22
  22711607.509   -10751504.988 8  -8361773.63846  22711607.232    22711616.3704
  20255021.690   -28305021.426 9 -21883767.51848  20255021.181    20255027.6354
  21672897.622   -21378732.849 9 -16642189.84447  21672896.846    21672905.2024
  22682869.855   -11383382.625 8  -8859335.07046  22682868.717    22682876.6124
  22735700.128   -13739254.207 8 -10683440.14046  22735700.072    22735709.2984
  22669944.087   -15600908.194 8 -11889997.83046  22669943.396    22669952.5134
  20566642.282   -22621251.352 9 -17603575.67948  20566641.430    20566648.3984
  22405406.361   -16867221.613 8 -13129278.15646  22405405.451    22405415.6214
  24052884.400    -7036292.729 7  -5467281.46745  24052883.435    24052895.6874
 02  1 25  2 37  0.0000000  0  9 26 06 17 10 30 18 23 15 22
  22697440.509   -10825952.526 8  -8419784.55646  22697440.240    22697449.2664
  20253950.483   -28310650.585 9 -21888153.82848  20253949.982    20253956.4104
  21665103.400   -21419691.635 9 -16674105.68547  21665102.612    21665110.8694
  22700517.979   -11290640.990 8  -8787068.84146  22700516.849    22700524.7544
  22754190.679   -13642086.299 8 -10607724.97746  22754190.601    22754199.8314
  22651947.292   -15695480.969 8 -11963690.69346  22651946.584    22651955.6934
  20564041.076   -22634920.551 9 -17614226.94648  20564040.221    20564047.1654
  22393558.146   -16929484.203 8 -13177794.30246  22393557.203    22393567.2194
  24042188.647    -7092498.362 7  -5511077.83745  24042187.710    24042199.8774
 02  1 25  2 37 30.0000000  0  9 26 06 17 10 30 18 23 15 22
  22683338.537   -10900058.039 8  -8477528.95146  22683338.292    22683347.3234
  20252961.425   -28315847.997 9 -21892203.71048  20252960.907    20252967.3294
  21657340.227   -21460486.957 9 -16705894.15047  21657339.416    21657347.6434
  22718211.917   -11197658.695 8  -8714615.08246  22718210.770    22718218.6684
  22772714.374   -13544744.160 8 -10531874.03246  22772714.298    22772723.5074
  22634002.830   -15789779.029 8 -12037169.48546  22634002.127    22634011.1604
  20561536.062   -22648084.272 9 -17624484.33748  20561535.215    20561542.1414
  22381740.423   -16991585.972 8 -13226185.12646  22381739.445    22381749.4264
  24031581.890    -7148236.658 7  -5554510.05845  24031580.823    24031593.0034
 02  1 25  2 38  0.0000000  0  9 26 06 17 10 30 18 23 15 22
  22669302.417   -10973817.893 8  -8535004.00146  22669302.159    22669311.1884
  20252054.825   -28320612.071 9 -21895915.93248  20252054.305    20252060.7244
  21649608.150   -21501118.786 9 -16737555.21647  21649607.339    21649615.5824
  22735951.222   -11104438.217 8  -8641975.72846  22735950.089    22735957.9044
  22791270.666   -13447230.470 8 -10455889.42046  22791270.582    22791279.8144
  22616111.076   -15883800.216 8 -12110432.54546  22616110.363    22616119.3004
  20559127.206   -22660742.608 9 -17634347.92048  20559126.353    20559133.2504
  22369953.310   -17053526.738 8 -13274450.50146  22369952.325    22369962.3714
  24021064.336    -7203505.806 7  -5597576.69045  24021063.235    24021075.5534
 02  1 25  2 38 30.0000000  0  9 26 06 17 10 30 18 23 15 22
  22655332.664   -11047228.545 8  -8592206.94146  22655332.460    22655341.3824
  20251230.897   -28324941.599 9 -21899289.54348  20251230.375    20251236.7904
  21641907.230   -21541587.467 9 -16769089.16647  21641906.400    21641914.5914
  22753735.259   -11010982.299 8  -8569152.91546  22753734.098    22753741.9004
  22809859.014   -13349548.369 8 -10379773.58646  22809858.943    22809868.1594
  22598272.339   -15977542.516 8 -12183478.28246  22598271.623    22598280.5464
  20556814.473   -22672895.975 9 -17643818.02548  20556813.614    20556820.4944
  22358196.905   -17115306.462 8 -13322590.38546  22358195.943    22358205.9784
  24010636.345    -7258303.998 7  -5640276.32745  24010635.343    24010647.6864
 02  1 25  2 39  0.0000000  0  9 26 06 17 10 30 18 23 15 22
  22641430.059   -11120286.695 8  -8649135.21246  22641429.834    22641438.7084
  20250489.877   -28328835.343 9 -21902323.58248  20250489.358    20250495.7694
  21634237.217   -21581893.006 9 -16800495.98647  21634236.380    21634244.5304
  22771563.572   -10917293.828 8  -8496148.88546  22771562.415    22771570.2534
  22828478.853   -13251700.792 8 -10303528.79946  22828478.773    22828488.0194
  22580487.000   -16071004.141 8 -12256305.31646  22580486.325    22580495.1864
  20554597.743   -22684544.743 9 -17652894.93148  20554596.869    20554603.7194
  22346471.187   -17176925.161 8 -13370604.80346  22346470.211    22346480.1534
  24000298.164    -7312629.731 7  -5682607.83445  24000297.341    24000309.6594
 02  1 25  2 39 30.0000000  0  9 26 06 17 10 30 18 23 15 22
  22627595.151   -11192989.110 8  -8705786.29146  22627594.942    22627603.7194
  20249832.061   -28332292.073 9 -21905017.09648  20249831.533    20249837.9264
  21626598.250   -21622035.725 9 -16831775.93447  21626597.408    21626605.5324
  22789435.651   -10823375.210 8  -8422965.52846  22789434.483    22789442.3354
  22847129.589   -13153690.821 8 -10227157.47646  22847129.511    22847138.8064
  22562755.497   -16164183.011 8 -12328912.01346  22562754.780    22562763.6364
  20552476.948   -22695689.464 9 -17661579.07648  20552476.067    20552482.8874
  22334776.067   -17238383.003 8 -13418493.88046  22334775.087    22334784.9284
  23990050.401    -7366481.265 7  -5724569.84445  23990049.415    23990061.8774
 02  1 25  2 40  0.0000000  0  9 26 06 17 10 30 18 23 15 22
  22613828.498   -11265332.242 8  -8762157.40346  22613828.302    22613837.1134
  20249257.609   -28335310.698 9 -21907369.22548  20249257.091    20249263.4584
  21618990.251   -21662015.962 9 -16862929.27347  21618989.395    21618997.5024
  22807351.013   -10729229.248 8  -8349605.01346  22807349.830    22807357.6974
  22865810.674   -13055521.333 8 -10150661.85546  22865810.618    22865819.9564
  22545078.182   -16257077.253 8 -12401296.93646  22545077.428    22545086.2104
  20550451.993   -22706330.521 9 -17669870.75648  20550451.119    20550457.9144
  22323111.444   -17299679.941 8 -13466257.57946  22323110.452    22323120.2844
  23979893.098    -7419857.218 7  -5766161.27645  23979892.117    23979904.5874
 02  1 25  2 40 30.0000000  0  9 26 06 17 10 30 18 23 15 22
  22600130.861   -11337313.102 8  -8818246.23546  22600130.655    22600139.4484
  20248766.754   -28337890.016 9 -21909379.04348  20248766.231    20248772.5904
  21611412.974   -21701834.071 9 -16893956.27747  21611412.141    21611420.2304
  22825309.104   -10634858.842 8  -8276069.61646  22825307.928    22825315.8014
  22884521.481   -12957195.466 8 -10074044.38846  22884521.405    22884530.7874
  22527455.306   -16349685.308 8 -12473458.85746  22527454.529    22527463.3194
  20548522.723   -22716468.648 9 -17677770.54448  20548521.844    20548528.6384
  22311477.483   -17360816.109 8 -13513896.01346  22311476.516    22311486.3074
  23969826.739    -7472756.223 7  -5807381.07345  23969825.705    23969838.0454
 02  1 25  2 41  0.0000000  0  9 26 06 17 10 30 18 23 15 22
  22586502.853   -11408928.266 8  -8874050.09746  22586502.620    22586511.3814
  20248359.698   -28340028.952 9 -21911045.70548  20248359.173    20248365.5224
  21603866.607   -21741490.362 9 -16924857.20047  21603865.775    21603873.7424
  22843309.357   -10540266.717 8  -8202361.44046  22843308.197    22843316.0384
  22903261.473   -12858716.341 8  -9997307.49046  22903261.402    22903270.8164
  22509887.195   -16442005.133 8 -12545396.18246  22509886.450    22509895.2004
  20546689.063   -22726104.374 9 -17685278.85448  20546688.214    20546694.9744
  22299874.194   -17421791.659 8 -13561409.28546  22299873.189    22299882.9564
  23959851.261    -7525176.751 7  -5848228.02045  23959850.231    23959862.5234
 02  1 25  2 41 30.0000000  0  9 26 06 17 10 30 18 23 15 22
  22572945.116   -11480174.182 8  -8929566.23946  22572944.876    22572953.6004
  20248036.680   -28341726.161 9 -21912368.16648  20248036.156    20248042.4834
  21596351.073   -21780984.878 9 -16955632.05947  21596350.198    21596358.1554
  22861351.340   -10445455.325 8  -8128482.41646  22861350.167    22861357.9934
  22922030.102   -12760086.785 8  -9920453.38546  22922030.049    22922039.4694
  22492374.311   -16534035.024 8 -12617107.59546  22492373.584    22492382.3044
  20544950.959   -22735237.970 9 -17692395.89148  20544950.097    20544956.8524
  22288301.339   -17482606.628 8 -13608797.42446  22288300.341    22288310.1484
  23949967.157    -7577117.103 8  -5888700.81845  23949966.134    23949978.4304
 02  1 25  2 42  0.0000000  0  9 26 06 17 10 30 18 23 15 22
  22559458.220   -11551047.602 8  -8984792.12046  22559457.963    22559466.6344
  20247797.971   -28342980.415 9 -21913345.46548  20247797.452    20247803.7664
  21588866.113   -21820317.747 9 -16986280.94947  21588865.260    21588873.2754
  22879434.526   -10350427.390 8  -8054434.64646  22879433.368    22879441.1824
  22940826.791   -12661309.798 8  -9843484.38946  22940826.726    22940836.1804
  22474917.016   -16625772.942 8 -12688591.48946  22474916.280    22474924.9804
  20543308.283   -22743869.956 9 -17699122.06048  20543307.424    20543314.1724
  22276759.016   -17543260.932 8 -13656060.37246  22276758.052    22276767.8134
  23940174.825    -7628575.726 8  -5928798.24945  23940173.743    23940185.9894
 02  1 25  2 42 30.0000000  0  9 26 06 17 10 30 18 23 15 22
  22546042.818   -11621545.371 8  -9039725.28446  22546042.570    22546051.2514
  20247643.758   -28343790.718 9 -21913976.83248  20247643.238    20247649.5354
  21581411.967   -21859489.297 9 -17016804.15647  21581411.120    21581419.0464
  22897558.426   -10255185.588 8  -7980220.22846  22897557.301    22897565.0904
  22959650.954   -12562388.459 8  -9766402.92646  22959650.884    22959660.4064
  22457515.622   -16717216.890 8 -12759846.33146  22457514.926    22457523.5444
  20541760.969   -22752000.980 9 -17705457.87348  20541760.095    20541766.8284
  22265247.324   -17603754.499 8 -13703198.07946  22265246.401    22265256.0334
  23930474.303    -7679551.408 8  -5968519.37345  23930473.239    23930485.3644
 02  1 25  2 43  0.0000000  0  9 26 06 17 10 30 18 23 15 22
  22532699.550   -11691664.201 8  -9094363.18246  22532699.297    22532707.9344
  20247574.200   -28344156.087 9 -21914261.49348  20247573.676    20247579.9574
  21573988.432   -21898499.933 9 -17047201.96047  21573987.559    21573995.4914
  22915722.520   -10159732.801 8  -7905841.40646  22915721.367    22915729.1054
  22978502.028   -12463325.762 8  -9689211.31046  22978501.964    22978511.4824
  22440170.492   -16808365.337 8 -12830870.90146  22440169.774    22440178.3524
  20540308.830   -22759631.784 9 -17711403.90448  20540307.961    20540314.6884
  22253766.276   -17664087.646 8 -13750210.78746  22253765.359    22253774.8924
  23920866.069    -7730042.619 8  -6007862.98545  23920864.870    23920876.9904
 02  1 25  2 43 30.0000000  0  9 26 06 17 10 30 18 23 15 22
  22519429.047   -11761400.722 8  -9148703.16246  22519428.794    22519437.3804
  20247589.519   -28344075.540 9 -21914198.69448  20247588.996    20247595.2574
  21566595.425   -21937349.769 9 -17077474.46147  21566594.597    21566602.5794
  22933926.218   -10064071.783 8  -7831300.32746  22933925.044    22933932.7934
  22997379.380   -12364124.749 8  -9611911.91046  22997379.296    22997388.8704
  22422881.993   -16899216.379 8 -12901663.74146  22422881.252    22422889.7924
  20538951.799   -22766762.924 9 -17716960.58448  20538950.930    20538957.6534
  22242315.686   -17724260.267 8 -13797098.38947  22242314.736    22242324.3364
  23911350.211    -7780048.022 7  -6046828.04445  23911348.998    23911361.0944
 02  1 25  2 44  0.0000000  0  9 26 06 17 10 30 18 23 15 22
  22506231.858   -11830751.651 8  -9202742.68946  22506231.600    22506240.1894
  20247689.923   -28343547.628 9 -21913787.29248  20247689.416    20247695.6644
  21559233.133   -21976038.909 9 -17107621.75447  21559232.284    21559240.2054
  22952169.087    -9968204.622 8  -7756598.61846  22952167.944    22952175.7174
  23016282.539   -12264788.287 8  -9534506.96546  23016282.469    23016292.0524
  22405650.396   -16989768.382 8 -12972223.55246  22405649.662    22405658.1244
  20537689.706   -22773394.907 9 -17722128.30848  20537688.854    20537695.5614
  22230895.615   -17784272.338 8 -13843860.88646  22230894.672    22230904.2944
  23901927.089    -7829566.003 8  -6085413.30545  23901925.901    23901937.9364
 02  1 25  2 44 30.0000000  0  9 26 06 17 10 30 18 23 15 22
  22493108.650   -11899713.854 8  -9256479.31846  22493108.385    22493116.9814
  20247875.696   -28342571.360 9 -21913026.52448  20247875.178    20247881.4054
  21551901.186   -22014567.864 9 -17137644.22747  21551900.330    21551908.2584
  22970450.650    -9872134.249 8  -7681738.56846  22970449.489    22970457.2754
  23035210.914   -12165319.559 8  -9456998.95846  23035210.806    23035220.3954
  22388476.057   -17080019.451 8 -13042548.87346  22388475.311    22388483.7144
  20536522.489   -22779528.473 9 -17726907.65748  20536521.632    20536528.3224
  22219506.126   -17844124.091 8 -13890498.47946  22219505.177    22219514.7004
  23892596.951    -7878595.374 8  -6123617.83845  23892595.840    23892607.7334
 02  1 25  2 45  0.0000000  0  9 26 06 17 10 30 18 23 15 22
  22480060.067   -11968284.033 8  -9309910.46546  22480059.819    22480068.3024
  20248146.924   -28341145.791 9 -21911915.65348  20248146.410    20248152.6224
  21544599.795   -22052936.457 9 -17167541.74547  21544598.984    21544606.8904
  22988770.343    -9775863.284 8  -7606722.21846  22988769.187    22988776.9894
  23054163.891   -12065721.410 8  -9379390.10146  23054163.794    23054173.4074
  22371359.331   -17169967.724 8 -13112638.25146  22371358.601    22371366.9224
  20535450.000   -22785164.383 9 -17731299.22348  20535449.144    20535455.8094
  22208147.178   -17903815.500 8 -13937011.12547  22208146.201    22208155.6274
  23883360.141    -7927134.609 8  -6161440.45045  23883358.995    23883370.8934
 02  1 25  2 45 30.0000000  0  9 26 06 17 10 30 18 23 15 22
  22467086.751   -12036458.930 8  -9363033.60546  22467086.500    22467094.9404
  20248503.910   -28339269.756 9 -21910453.77348  20248503.403    20248509.5874
  21537328.913   -22091145.256 9 -17197314.75347  21537328.038    21537335.9424
  23007127.719    -9679394.490 8  -7531551.71346  23007126.588    23007134.3594
  23073140.897   -11965996.825 8  -9301682.72446  23073140.787    23073150.4204
  22354300.553   -17259611.435 8 -13182490.30346  22354299.811    22354308.1274
  20534472.069   -22790303.221 9 -17735303.46248  20534471.211    20534477.8554
  22196818.656   -17963346.742 8 -13983398.95447  22196817.653    22196827.0994
  23874216.861    -7975182.386 8  -6198880.10045  23874215.705    23874227.5334
 02  1 25  2 46  0.0000000  0  9 26 06 17 10 30 18 23 15 22
  22454189.257   -12104235.345 8  -9415846.24246  22454188.989    22454197.3824
  20248946.794   -28336942.255 9 -21908640.09848  20248946.266    20248952.4534
  21530088.254   -22129194.424 9 -17226963.36747  21530087.421    21530095.3084
  23025522.261    -9582730.636 8  -7456229.21846  23025521.143    23025528.8794
  23092141.479   -11866148.834 8  -9223879.17446  23092141.333    23092150.9984
  22337300.095   -17348948.718 8 -13252103.57746  22337299.370    22337307.6394
  20533588.612   -22794945.619 9 -17738920.86248  20533587.753    20533594.3974
  22185520.574   -18022717.665 8 -14029661.85647  22185519.585    22185529.0734
  23865167.342    -8022737.520 8  -6235935.88845  23865166.160    23865177.9274
 02  1 25  2 46 30.0000000  0  9 26 06 17 10 30 18 23 15 22
  22441368.159   -12171610.060 8  -9468345.85746  22441367.934    22441376.2434
  20249475.812   -28334162.174 9 -21906473.76248  20249475.280    20249481.4524
  21522878.066   -22167084.068 9 -17256487.68347  21522877.242    21522885.0594
  23043953.419    -9485874.336 8  -7380756.76846  23043952.264    23043960.0204
  23111164.912   -11766180.582 8  -9145981.91746  23111164.773    23111174.3984
  22320358.200   -17437977.933 8 -13321476.79446  22320357.498    22320365.7194
  20532799.466   -22799092.411 9 -17742152.07448  20532798.609    20532805.2364
  22174253.034   -18081928.373 8 -14075799.92347  22174252.055    22174261.4934
  23856211.836    -8069798.550 8  -6272606.66445  23856210.609    23856222.3604
 02  1 25  2 47  0.0000000  0  9 26 06 17 10 30 18 23 15 22
  22428624.119   -12238579.694 8  -9520529.83746  22428623.877    22428632.1944
  20250091.117   -28330928.587 9 -21903954.05148  20250090.584    20250096.7444
  21515698.173   -22204814.326 9 -17285887.79747  21515697.333    21515705.1494
  23062420.725    -9388827.930 8  -7305136.17846  23062419.549    23062427.3234
  23130210.663   -11666094.784 8  -9067993.08246  23130210.578    23130220.1694
  22303475.337   -17526697.150 8 -13390608.45546  22303474.656    22303482.8434
  20532104.522   -22802744.218 9 -17744997.58748  20532103.670    20532110.3014
  22163016.011   -18140978.863 8 -14121813.14347  22163015.034    22163024.3384
  23847350.549    -8116364.150 8  -6308891.40645  23847349.374    23847361.0184
 02  1 25  2 47 30.0000000  0  9 26 06 17 10 30 18 23 15 22
  22415957.817   -12305141.022 8  -9572395.65446  22415957.566    22415965.8284
  20250792.889   -28327240.503 9 -21901080.18548  20250792.368    20250798.5184
  21508548.517   -22242385.420 9 -17315163.89647  21508547.712    21508555.4814
  23080923.654    -9291594.139 8  -7229369.58846  23080922.510    23080930.2794
  23149278.234   -11565894.432 8  -8989914.97546  23149278.148    23149287.7434
  22286651.821   -17615104.712 8 -13459497.26546  22286651.143    22286659.2744
  20531503.592   -22805901.764 9 -17747457.96048  20531502.756    20531509.3694
  22151809.437   -18199869.182 8 -14167701.55247  22151808.463    22151817.7024
  23838583.886    -8162433.073 8  -6344789.12845  23838582.624    23838594.2224
 02  1 25  2 48  0.0000000  0  9 26 06 17 10 30 18 23 15 22
  22403369.716   -12371291.229 8  -9623941.12246  22403369.491    22403377.7114
  20251581.324   -28323097.064 9 -21897851.49448  20251580.803    20251586.9514
  21501429.208   -22279797.725 9 -17344316.26647  21501428.361    21501436.0874
  23099461.744    -9194175.657 8  -7153459.07646  23099460.567    23099468.4164
  23168367.023   -11465582.742 8  -8911750.10846  23168366.913    23168376.5194
  22269887.902   -17703199.014 8 -13528141.97347  22269887.238    22269895.2864
  20530996.589   -22808565.997 9 -17749533.93148  20530995.738    20531002.3434
  22140633.304   -18258599.612 8 -14213465.37447  22140632.319    22140641.6184
  23829911.769    -8208004.150 8  -6380298.93145  23829910.676    23829922.1754
 02  1 25  2 48 30.0000000  0  9 26 06 17 10 30 18 23 15 22
  22390860.600   -12437026.640 8  -9675163.37746  22390860.350    22390868.5034
  20252456.664   -28318496.870 9 -21894266.88948  20252456.156    20252462.3014
  21494340.025   -22317051.016 9 -17373344.71847  21494339.199    21494346.9794
  23118034.514    -9096574.916 8  -7077406.54046  23118033.389    23118041.2254
  23187476.457   -11365162.231 8  -8833500.44746  23187476.354    23187486.0034
  22253183.996   -17790977.994 8 -13596540.97047  22253183.322    22253191.2994
  20530583.338   -22810737.363 9 -17751225.84848  20530582.474    20530589.0764
  22129487.659   -18317169.938 8 -14259104.44147  22129486.655    22129495.9334
  23821334.826    -8253075.673 8  -6415419.45745  23821333.694    23821345.1804
 02  1 25  2 49  0.0000000  0  9 26 06 17 10 30 18 23 15 22
  22378430.989   -12502344.251 8  -9726060.08246  22378430.725    22378438.8334
  20253419.099   -28313439.216 9 -21890325.82648  20253418.590    20253424.7234
  21487281.134   -22354145.677 9 -17402249.57747  21487280.285    21487287.9844
  23136641.419    -8998794.660 8  -7001214.12246  23136640.317    23136648.1374
  23206605.985   -11264635.970 8  -8755168.39146  23206605.961    23206615.6264
  22236540.409   -17878440.068 8 -13664693.03847  22236539.724    22236547.6334
  20530263.722   -22812416.878 9 -17752534.50748  20530262.855    20530269.4414
  22118372.466   -18375580.181 8 -14304618.77947  22118371.460    22118380.6454
  23812853.145    -8297646.843 8  -6450150.12445  23812851.956    23812863.3774
 02  1 25  2 49 30.0000000  0  9 26 06 17 10 30 18 23 15 22
  22366081.414   -12567241.014 8  -9776628.85246  22366081.164    22366089.2434
  20254468.747   -28307923.211 9 -21886027.60448  20254468.224    20254474.3504
  21480252.305   -22391082.060 9 -17431031.10147  21480251.442    21480259.1114
  23155281.993    -8900837.397 8  -6924883.78346  23155280.942    23155288.7744
  23225755.100   -11164007.183 8  -8676756.43346  23225755.034    23225764.7194
  22219957.414   -17965583.593 8 -13732596.87947  22219956.705    22219964.5644
  20530037.540   -22813605.378 9 -17753460.55448  20530036.671    20530043.2354
  22107287.623   -18433830.517 8 -14350008.51547  22107286.644    22107295.7824
  23804466.915    -8341716.369 8  -6484489.88445  23804465.742    23804477.0694
 02  1 25  2 50  0.0000000  0  9 26 06 17 10 30 18 23 15 22
  22353812.534   -12631713.811 8  -9826867.26346  22353812.288    22353820.3614
  20255605.715   -28301948.161 9 -21881371.68648  20255605.186    20255611.3024
  21473253.498   -22427860.531 9 -17459689.57647  21473252.657    21473260.3514
  23173955.803    -8802705.979 8  -6848417.73646  23173954.705    23173962.5704
  23244923.102   -11063278.953 8  -8598266.99446  23244923.064    23244932.7804
  22203435.314   -18052406.907 8 -13800251.21647  22203434.592    22203442.4094
  20529904.570   -22814303.899 9 -17754004.80248  20529903.704    20529910.2614
  22096233.279   -18491921.057 8 -14395273.74247  22096232.297    22096241.3864
  23796176.263    -8385283.279 8  -6518438.01045  23796175.121    23796186.4044
 02  1 25  2 50 30.0000000  0  9 26 06 17 10 30 18 23 15 22
  22341624.913   -12695759.638 8  -9876772.97046  22341624.665    22341632.6614
  20256830.279   -28295513.030 9 -21876357.26448  20256829.759    20256835.8514
  21466284.856   -22464480.937 9 -17488224.88847  21466284.001    21466291.6464
  23192662.306    -8704402.728 8  -6771817.77646  23192661.175    23192669.0524
  23264109.522   -10962453.892 8  -8519702.10346  23264109.472    23264119.2214
  22186974.432   -18138908.527 8 -13867654.88247  22186973.728    22186981.5294
  20529864.672   -22814513.273 9 -17754167.89448  20529863.811    20529870.3554
  22085209.382   -18549851.789 8 -14440414.44047  22085208.379    22085217.4494
  23787981.484    -8428346.256 8  -6551993.45845  23787980.334    23787991.6764
 02  1 25  2 51  0.0000000  0  9 26 06 17 10 30 18 23 15 22
  22329519.101   -12759375.375 8  -9926343.55146  22329518.846    22329526.8684
  20258142.560   -28288616.845 9 -21870983.58048  20258142.030    20258148.1204
  21459346.097   -22500943.781 9 -17516637.42047  21459345.254    21459352.8764
  23211400.974    -8605930.373 8  -6695086.06046  23211399.862    23211407.6844
  23283313.719   -10861535.346 8  -8441064.36146  23283313.697    23283323.4474
  22170575.096   -18225086.740 8 -13934806.54747  22170574.391    22170582.1824
  20529917.729   -22814234.231 9 -17753950.40248  20529916.874    20529923.3974
  22074215.814   -18607622.850 8 -14485430.71647  22074214.819    22074223.8434
  23779882.861    -8470904.261 8  -6585155.41845  23779881.661    23779892.9724
 02  1 25  2 51 30.0000000  0  9 26 06 17 10 30 18 23 15 22
  22317495.840   -12822557.611 8  -9975576.35246  22317495.600    22317503.5434
  20259542.733   -28281258.552 9 -21865249.81548  20259542.211    20259548.2904
  21452437.409   -22537249.022 9 -17544927.15447  21452436.557    21452444.1424
  23230171.389    -8507291.344 8  -6618224.46346  23230170.238    23230178.0654
  23302535.244   -10760525.959 8  -8362355.83246  23302535.191    23302545.0384
  22154237.735   -18310939.416 8 -14001704.54947  22154237.031    22154244.7804
  20530063.574   -22813467.522 9 -17753352.91548  20530062.713    20530069.2274
  22063252.686   -18665233.900 8 -14530322.32647  22063251.689    22063260.6524
  23771880.670    -8512956.027 8  -6617922.90145  23771879.380    23771890.6324
 02  1 25  2 52  0.0000000  0  9 26 06 17 10 30 18 23 15 22
  22305555.557   -12885303.690 8 -10024469.27946  22305555.296    22305563.1954
  20261030.978   -28273437.780 9 -21859155.67448  20261030.441    20261036.5134
  21445558.671   -22573396.931 9 -17573094.28447  21445557.820    21445565.3674
  23248973.000    -8408488.353 8  -6541235.08346  23248971.832    23248979.6184
  23321773.436   -10659428.893 8  -8283578.97946  23321773.432    23321783.2414
  22137962.542   -18396465.383 8 -14068347.98247  22137961.838    22137969.5034
  20530301.992   -22812214.468 9 -17752376.45448  20530301.128    20530307.6344
  22052319.966   -18722685.420 8 -14575089.62647  22052318.957    22052327.8404
  23763974.939    -8554500.691 8  -6650295.25345  23763973.714    23763984.8724
 02  1 25  2 52 30.0000000  0  9 26 06 17 10 30 18 23 15 22
  22293698.900   -12947610.260 8 -10073019.72946  22293698.634    22293706.5504
  20262607.394   -28265153.319 9 -21852700.21848  20262606.859    20262612.9354
  21438709.786   -22609387.734 9 -17601138.99747  21438708.931    21438716.4384
  23267805.285    -8309523.965 8  -6464119.96146  23267804.134    23267811.8514
  23341027.740   -10558247.074 8  -8204736.09246  23341027.713    23341037.6584
  22121749.880   -18481662.852 8 -14134735.44347  22121749.172    22121756.7864
  20530632.762   -22810476.007 9 -17751021.75648  20530631.899    20530638.3924
  22041417.573   -18779977.315 8 -14619732.53347  22041416.565    22041425.4894
  23756165.849    -8595537.193 8  -6682271.62745  23756164.619    23756175.8264
 02  1 25  2 53  0.0000000  0  9 26 06 17 10 30 18 23 15 22
  22281926.496   -13009474.148 8 -10121225.22846  22281926.234    22281934.1204
  20264272.310   -28256404.126 9 -21845882.63548  20264271.777    20264277.8344
  21431890.832   -22645221.317 9 -17629061.19947  21431889.961    21431897.4664
  23286667.775    -8210400.599 8  -6386880.94746  23286666.647    23286674.3684
  23360297.736   -10456983.091 8  -8125829.16846  23360297.682    23360307.6254
  22105600.049   -18566530.073 8 -14200865.57147  22105599.332    22105606.9014
  20531055.760   -22808252.909 9 -17749289.41948  20531054.897    20531061.3884
  22030545.611   -18837109.357 8 -14664250.87847  22030544.621    22030553.5294
  23748453.790    -8636064.043 8  -6713850.86045  23748452.499    23748463.7064
 02  1 25  2 53 30.0000000  0  9 26 06 17 10 30 18 23 15 22
  22270238.930   -13070892.296 8 -10169083.40046  22270238.655    22270246.5244
  20266025.752   -28247189.562 9 -21838702.43048  20266025.223    20266031.2664
  21425101.722   -22680897.912 9 -17656861.07147  21425100.881    21425108.3534
  23305560.135    -8111120.840 8  -6309520.07946  23305558.987    23305566.6524
  23379582.732   -10355640.040 8  -8046860.63946  23379582.642    23379592.6364
  22089513.385   -18651065.400 8 -14266737.08747  22089512.669    22089520.1514
  20531570.796   -22805546.155 9 -17747180.21848  20531569.940    20531576.4044
  22019704.136   -18894081.555 8 -14708644.68947  22019703.107    22019711.9054
  23740838.693    -8676080.516 7  -6745032.40245  23740837.471    23740848.6644
 02  1 25  2 54  0.0000000  0  9 26 06 17 10 30 18 23 15 22
  22258636.685   -13131861.831 8 -10216592.00046  22258636.437    22258644.2714
  20267867.929   -28237508.835 9 -21831158.97748  20267867.397    20267873.4364
  21418342.508   -22716417.727 9 -17684538.77447  21418341.661    21418349.0894
  23324481.663    -8011687.318 8  -6232039.38446  23324480.508    23324488.1544
  23398882.152   -10254220.963 8  -7967832.86146  23398882.061    23398892.0804
  22073490.163   -18735267.296 8 -14332348.78847  22073489.431    22073496.8744
  20532177.684   -22802356.801 9 -17744694.95748  20532176.820    20532183.2624
  22008892.973   -18950894.065 8 -14752914.04947  22008891.941    22008900.6904
  23733320.985    -8715585.510 7  -6775815.39345  23733319.885    23733330.8704
 02  1 25  2 54 30.0000000  0  9 26 06 17 10 30 18 23 15 22
  22247120.419   -13192379.729 8 -10263748.68046  22247120.149    22247127.9894
  20269798.879   -28227361.355 9 -21823251.82548  20269798.351    20269804.3994
  21411613.000   -22751781.139 9 -17712094.60447  21411612.129    21411619.5844
  23343431.984    -7912102.643 8  -6154440.91246  23343430.809    23343438.4694
  23418195.571   -10152728.890 8  -7888748.20746  23418195.450    23418205.4614
  22057530.704   -18819134.212 8 -14397699.46947  22057529.950    22057537.3504
  20532876.160   -22798685.951 9 -17741834.51148  20532875.296    20532881.7404
  21998112.085   -19007547.173 8 -14797059.20247  21998111.065    21998119.8834
  23725900.860    -8754578.124 7  -6806199.12945  23725899.672    23725910.6494
 02  1 25  2 55  0.0000000  0  9 26 06 17 10 30 18 23 15 22
  22235690.637   -13252443.032 8 -10310551.13446  22235690.402    22235698.1994
  20271818.832   -28216746.269 9 -21814980.30248  20271818.312    20271824.3374
  21404913.286   -22786988.043 9 -17739528.47447  21404912.428    21404919.8894
  23362410.550    -7812369.124 8  -6076726.45146  23362409.421    23362417.1064
  23437522.291   -10051166.719 8  -7809608.91446  23437522.141    23437532.1504
  22041635.244   -18902664.810 9 -14462788.09047  22041634.474    22041641.8414
  20533666.134   -22794534.409 9 -17738599.50048  20533665.269    20533671.7084
  21987361.637   -19064040.554 8 -14841079.89447  21987360.637    21987369.4594
  23718578.363    -8793057.230 7  -6836182.73045  23718577.240    23718588.1254
 02  1 25  2 55 30.0000000  0  9 26 06 17 10 30 18 23 15 22
  22224348.003   -13312048.498 8 -10356996.82246  22224347.754    22224355.5134
  20273928.007   -28205662.494 9 -21806343.56948  20273927.472    20273933.4844
  21398243.357   -22822038.574 9 -17766840.49547  21398242.485    21398249.8914
  23381417.036    -7712489.299 8  -5998897.98846  23381415.942    23381423.6204
  23456861.824    -9949537.048 8  -7730417.02046  23456861.693    23456871.7384
  22025804.197   -18985857.002 9 -14527613.02547  22025803.444    22025810.7374
  20534547.388   -22789903.050 9 -17734990.60648  20534546.529    20534552.9624
  21976641.636   -19120374.152 8 -14884976.08247  21976640.638    21976649.3794
  23711353.793    -8831021.797 7  -6865765.38745  23711352.682    23711363.6304
 02  1 25  2 56  0.0000000  0  9 26 06 17 10 30 18 23 15 22
  22213093.036   -13371193.467 8 -10403083.69346  22213092.796    22213100.5014
  20276126.374   -28194109.753 9 -21797341.40948  20276125.840    20276131.8614
  21391603.080   -22856933.119 9 -17794030.96647  21391602.222    21391609.6234
  23400450.886    -7612465.868 8  -5920957.63946  23400449.766    23400457.4144
  23476213.592    -9847843.051 8  -7651175.02746  23476213.465    23476223.4974
  22010037.753   -19068709.521 9 -14592173.28047  22010036.959    22010044.2374
  20535519.733   -22784793.196 9 -17731008.86448  20535518.866    20535525.2884
  21965951.905   -19176548.315 8 -14928748.03647  21965950.929    21965959.5994
  23704227.287    -8868471.189 8  -6894946.60345  23704226.216    23704237.1444
 02  1 25  2 56 30.0000000  0  9 26 06 17 10 30 18 23 15 22
  22201926.239   -13429874.891 8 -10448809.35346  22201925.967    22201933.6414
  20278414.144   -28182087.315 9 -21787973.25148  20278413.606    20278419.6294
  21384992.481   -22891671.835 9 -17821100.01047  21384991.599    21384998.9814
  23419511.583    -7512301.235 8  -5842907.26246  23419510.431    23419518.0914
  23495577.032    -9746087.787 8  -7571885.28346  23495576.950    23495587.0004
  21994336.248   -19151220.744 9 -14656467.59647  21994335.469    21994342.7164
  20536582.949   -22779205.946 9 -17726655.12848  20536582.080    20536588.4804
  21955292.591   -19232563.100 8 -14972395.79047  21955291.608    21955300.2634
  23697199.019    -8905404.439 8  -6923725.63645  23697197.932    23697208.8234
 02  1 25  2 57  0.0000000  0  9 26 06 17 10 30 18 23 15 22
  22190848.202   -13488089.800 8 -10494171.48746  22190847.916    22190855.5614
  20280791.489   -28169594.201 9 -21778238.33748  20280790.951    20280796.9734
  21378411.499   -22926254.738 9 -17848047.63647  21378410.624    21378418.0044
  23438598.753    -7411997.652 8  -5764748.61046  23438597.557    23438605.1954
  23514951.671    -9644273.930 8  -7492549.88346  23514951.558    23514961.5574
  21978699.994   -19233389.173 9 -14720494.79847  21978699.233    21978706.4534
  20537736.787   -22773142.238 9 -17721930.12248  20537735.921    20537742.3274
  21944663.629   -19288418.359 8 -15015919.23747  21944662.606    21944671.3054
  23690269.165    -8941820.548 8  -6952101.71745  23690267.999    23690278.8684
 02  1 25  2 57 30.0000000  0  9 26 06 17 10 30 18 23 15 22
  22179859.518   -13545835.285 8 -10539167.85446  22179859.233    22179866.8254
  20283258.546   -28156629.738 9 -21768136.13248  20283258.013    20283264.0124
  21371860.149   -22960681.928 9 -17874873.92447  21371859.290    21371866.6644
  23457711.698    -7311557.964 8  -5686483.90545  23457710.535    23457718.2334
  23534336.861    -9542404.330 8  -7413171.04346  23534336.738    23534346.7694
  21963129.324   -19315213.162 9 -14784253.60647  21963128.553    21963135.7284
  20538981.065   -22766603.286 9 -17716834.79648  20538980.200    20538986.5914
  21934064.985   -19344114.127 8 -15059318.41547  21934063.934    21934072.5704
  23683437.985    -8977718.691 8  -6980074.19545  23683436.887    23683447.5804
 02  1 25  2 58  0.0000000  0  9 26 06 17 10 30 18 23 15 22
  22168960.739   -13603108.293 8 -10583796.04446  22168960.429    22168967.9934
  20285815.367   -28143193.281 9 -21757666.14248  20285814.833    20285820.8434
  21365338.409   -22994953.540 9 -17901578.98147  21365337.545    21365344.9054
  23476850.120    -7210984.407 8  -5608114.88845  23476849.016    23476856.7614
  23553732.032    -9440482.025 8  -7333751.13146  23553731.950    23553742.0394
  21947624.428   -19396691.155 9 -14847742.81847  21947623.677    21947630.8114
  20540315.616   -22759590.174 9 -17711369.99548  20540314.746    20540321.1094
  21923496.673   -19399650.376 8 -15102593.29547  21923495.630    21923504.1804
  23676705.496    -9013097.909 8  -7007642.30545  23676704.409    23676714.9544
 02  1 25  2 58 30.0000000  0  9 26 06 17 10 30 18 23 15 22
  22158152.367   -13659905.979 8 -10628053.86246  22158152.091    22158159.6464
  20288462.153   -28129284.262 9 -21746827.92648  20288461.630    20288467.6214
  21358846.260   -23029069.731 9 -17928162.93247  21358845.399    21358852.7264
  23496013.621    -7110279.509 8  -5529643.54045  23496012.509    23496020.2644
  23573136.716    -9338509.910 8  -7254292.41846  23573136.618    23573146.7964
  21932185.645   -19477821.843 9 -14910961.40547  21932184.895    21932191.9994
  20541740.127   -22752104.033 9 -17705536.59948  20541739.250    20541745.6164
  21912958.731   -19455027.218 8 -15145743.96247  21912957.695    21912966.2644
  23670071.910    -9047957.453 8  -7034805.46245  23670070.801    23670081.3184
 02  1 25  2 59  0.0000000  0  9 26 06 17 10 30 18 23 15 22
  22147435.053   -13716225.495 8 -10671939.07046  22147434.750    22147442.2914
  20291198.998   -28114901.896 9 -21735620.86648  20291198.476    20291204.4654
  21352383.640   -23063030.626 9 -17954625.86947  21352382.763    21352390.1064
  23515201.703    -7009445.532 8  -5451071.60746  23515200.645    23515208.3224
  23592550.360    -9236490.851 8  -7174797.11246  23592550.267    23592560.4374
  21916813.267   -19558603.438 9 -14973907.96947  21916812.567    21916819.6584
  20543254.483   -22744145.938 9 -17699335.44848  20543253.611    20543259.9574
  21902451.125   -19510244.587 8 -15188770.36347  21902450.099    21902458.6534
  23663537.407    -9082296.432 8  -7061562.97845  23663536.225    23663546.8374
 02  1 25  2 59 30.0000000  0  9 26 06 17 10 30 18 23 15 22
  22136809.243   -13772064.257 8 -10715449.67046  22136808.896    22136816.4224
  20294025.991   -28100045.889 9 -21724044.73548  20294025.479    20294031.4634
  21345950.562   -23096836.359 9 -17980967.90347  21345949.677    21345956.9924
  23534413.798    -6908485.374 8  -5372401.35346  23534412.745    23534420.3864
  23611972.386    -9134427.863 8  -7095267.57545  23611972.252    23611982.4864
  21901507.574   -19639034.869 9 -15036581.68347  21901506.862    21901513.9004
  20544858.396   -22735717.269 9 -17692767.61048  20544857.521    20544863.8634
  21891973.849   -19565302.722 8 -15231672.69147  21891972.823    21891981.2804
  23657101.893    -9116114.400 8  -7087914.50045  23657100.711    23657111.4384
 02  1 25  3  0  0.0000000  0  9 26 06 17 10 30 18 23 15 22
  22126275.460   -13827419.025 8 -10758583.14246  22126275.148    22126282.6364
  20296943.287   -28084715.266 9 -21712098.77148  20296942.769    20296948.7564
  21339546.951   -23130487.137 9 -18007189.19847  21339546.060    21339553.3614
  23553649.541    -6807400.899 8  -5293634.22746  23553648.389    23553656.1824
  23631402.310    -9032323.621 8  -7015705.89746  23631402.120    23631412.3204
  21886268.836   -19719114.334 9 -15098981.13647  21886268.112    21886275.1204
  20546551.643   -22726818.946 9 -17685833.80648  20546550.769    20546557.1094
  21881526.946   -19620201.165 8 -15274450.58847  21881525.915    21881534.2924
  23650765.787    -9149410.266 8  -7113859.20045  23650764.567    23650775.4434
 02  1 25  3  0 30.0000000  0  9 26 06 17 10 30 18 23 15 22
  22115834.323   -13882287.188 8 -10801337.43046  22115834.017    22115841.4924
  20299951.021   -28068909.519 9 -21699782.58248  20299950.497    20299956.4984
  21333172.827   -23163983.034 9 -18033289.81247  21333171.952    21333179.2244
  23572908.428    -6706194.968 8  -5214772.46446  23572907.216    23572915.0534
  23650839.436    -8930181.148 8  -6936114.42946  23650839.304    23650849.4724
  21871097.337   -19798840.554 9 -15161105.34247  21871096.635    21871103.6144
  20548334.005   -22717452.396 9 -17678535.15248  20548333.125    20548339.4644
  21871110.295   -19674940.351 8 -15317104.37547  21871109.256    21871117.6874
  23644529.088    -9182183.590 8  -7139396.71945  23644527.854    23644538.7794
 02  1 25  3  1  0.0000000  0  9 26 06 17 10 30 18 23 15 22
  22105486.305   -13936665.816 8 -10843710.26846  22105486.011    22105493.4614
  20303049.277   -28052627.919 9 -21687095.59548  20303048.762    20303054.7544
  21326828.218   -23197324.005 9 -18059269.69847  21326827.325    21326834.5594
  23592189.959    -6604869.999 8  -5135817.94046  23592188.768    23592196.5204
  23670283.309    -8828003.101 8  -6856495.23546  23670283.224    23670293.4084
  21855993.436   -19878211.754 9 -15222952.89547  21855992.701    21855999.6394
  20550205.309   -22707618.523 9 -17670872.34548  20550204.420    20550210.7514
  21860724.035   -19729519.986 8 -15359633.84147  21860723.017    21860731.4194
  23638391.989    -9214433.325 8  -7164526.23645  23638390.783    23638401.6474
 02  1 25  3  1 30.0000000  0 10 26 21 06 17 10 30 18 23 15 22
  22095231.048   -13990556.774 8 -10885703.10546  22095230.800    22095238.2274
  24861780.137    -2466195.592 7  -1274331.21745  24861779.150    24861797.6904
  20306237.305   -28035874.738 9 -21674041.13948  20306236.785    20306242.7604
  21320512.113   -23230514.981 9 -18085132.70347  21320511.217    21320518.4114
  23611492.758    -6503433.071 8  -5056776.17446  23611491.574    23611499.3104
  23689732.462    -8725797.216 8  -6776854.34045  23689732.399    23689742.5724
  21840956.433   -19957231.302 9 -15284526.43547  21840955.691    21840962.6264
  20552164.356   -22697323.564 9 -17662850.24648  20552163.473    20552169.7854
  21850367.234   -19783945.001 8 -15402042.83047  21850366.197    21850374.5234
  23632353.844    -9246163.665 8  -7189251.03545  23632352.663    23632363.3744
 02  1 25  3  2  0.0000000  0 10 26 21 06 17 10 30 18 23 15 22
  22085070.037   -14043953.013 8 -10927310.44046  22085069.775    22085077.1574
  24844095.667    -2559125.394 8  -1346743.28145  24844094.723    24844113.2724
  20309516.006   -28018645.045 9 -21660615.38048  20309515.475    20309521.4464
  21314225.409   -23263551.680 9 -18110875.49647  21314224.500    21314231.6454
  23630817.234    -6401882.214 8  -4977645.63446  23630816.087    23630823.8244
  23709187.157    -8623561.972 8  -6697190.57845  23709187.112    23709197.3544
  21825987.409   -20035893.582 9 -15345821.59247  21825986.654    21825993.5474
  20554211.767   -22686564.139 9 -17654466.22548  20554210.886    20554217.1914
  21840040.638   -19838210.879 8 -15444327.81047  21840039.615    21840047.9154
  23626415.610    -9277369.464 8  -7213567.09045  23626414.324    23626424.9424
 02  1 25  3  2 30.0000000  0 10 26 21 06 17 10 30 18 23 15 22
  22075004.201   -14096848.742 8 -10968527.76446  22075003.953    22075011.3024
  24826438.611    -2651911.211 7  -1419043.13245  24826437.676    24826456.0664
  20312886.049   -28000935.282 9 -21646815.53748  20312885.512    20312891.4754
  21307968.535   -23296431.253 9 -18136495.85247  21307967.641    21307974.7554
  23650163.534    -6300216.809 8  -4898425.85146  23650162.373    23650170.0784
  23728647.542    -8521297.170 8  -6617503.76945  23728647.439    23728657.8434
  21811087.157   -20114194.166 9 -15406834.90547  21811086.429    21811093.3034
  20556347.835   -22675338.738 9 -17645719.10448  20556346.967    20556353.2644
  21829745.010   -19892314.541 8 -15486486.39047  21829743.993    21829752.2784
  23620577.690    -9308047.054 8  -7237471.57045  23620576.505    23620586.9944
 02  1 25  3  3  0.0000000  0 10 26 21 06 17 10 30 18 23 15 22
  22065033.831   -14149242.871 8 -11009354.23546  22065033.575    22065040.9124
  24808808.964    -2744553.316 7  -1491231.02145  24808808.041    24808826.0064
  20316347.200   -27982746.569 9 -21632642.48648  20316346.656    20316352.6294
  21301741.308   -23329155.225 9 -18161994.96247  21301740.432    21301747.5184
  23669530.802    -6198440.711 8  -4819119.79045  23669529.745    23669537.3464
  23748112.659    -8419007.314 8  -6537797.44845  23748112.633    23748123.0254
  21796255.763   -20192133.215 9 -15467566.49847  21796255.027    21796261.8444
  20558572.052   -22663650.161 9 -17636611.06648  20558571.197    20558577.4704
  21819479.867   -19946257.850 8 -15528520.01647  21819478.849    21819487.0914
  23614840.159    -9338197.529 8  -7260965.29045  23614838.967    23614849.4204
 02  1 25  3  3 30.0000000  0 10 26 21 06 17 10 30 18 23 15 22
  22055159.431   -14201132.490 8 -11049787.58346  22055159.202    22055166.5324
  24791206.833    -2837050.095 7  -1563305.68845  24791205.797    24791223.7034
  20319899.643   -27964078.304 9 -21618095.76048  20319899.097    20319905.0724
  21295543.628   -23361723.738 9 -18187372.94047  21295542.763    21295549.8274
  23688918.624    -6096556.666 8  -4739729.62745  23688917.604    23688925.2194
  23767582.044    -8316695.149 8  -6458073.74645  23767581.995    23767592.4264
  21781493.443   -20269709.236 9 -15528015.22147  21781492.707    21781499.4954
  20560884.200   -22651499.514 9 -17627142.97748  20560883.337    20560889.6054
  21809245.178   -20000040.711 8 -15570428.61747  21809244.184    21809252.3664
  23609203.111    -9367820.199 8  -7284047.75345  23609201.960    23609212.3804
 02  1 25  3  4  0.0000000  0 10 26 21 06 17 10 30 18 23 15 22
  22045381.507   -14252515.630 8 -11089826.27646  22045381.240    22045388.5394
  24773632.578    -2929400.473 7  -1635266.31245  24773631.553    24773649.2514
  20323543.263   -27944930.742 9 -21603175.56148  20323542.714    20323548.6924
  21289375.440   -23394137.529 9 -18212630.35947  21289374.573    21289381.5934
  23708326.509    -5994567.549 8  -4660257.58445  23708325.507    23708333.1044
  23787055.074    -8214364.221 8  -6378335.41245  23787055.044    23787065.3844
  21766800.300   -20346921.613 9 -15588180.59147  21766799.568    21766806.3444
  20563283.894   -22638888.885 9 -17617316.46448  20563283.026    20563289.2824
  21799041.037   -20053663.568 9 -15612212.54547  21799040.039    21799048.1464
  23603666.508    -9396914.979 8  -7306718.87845  23603665.333    23603675.6084
 02  1 25  3  4 30.0000000  0 10 26 21 06 17 10 30 18 23 15 22
  22035700.322   -14303390.041 8 -11129468.55747  22035700.043    22035707.3404
  24756086.327    -3021604.010 8  -1707112.52045  24756085.351    24756102.6774
  20327278.127   -27925303.823 9 -21587881.83048  20327277.589    20327283.5404
  21283236.543   -23426397.166 9 -18237767.65247  21283235.693    21283242.7154
  23727753.903    -5892475.998 8  -4580705.72645  23727752.849    23727760.4594
  23806530.934    -8112017.641 8  -6298584.90145  23806530.952    23806541.3124
  21752176.604   -20423769.260 9 -15648061.75047  21752175.862    21752182.6074
  20565770.782   -22625820.061 9 -17607132.91148  20565769.924    20565776.1634
  21788867.206   -20107126.937 8 -15653872.17747  21788866.182    21788874.3464
  23598230.314    -9425481.959 8  -7328978.71945  23598229.136    23598239.3484
 02  1 25  3  5  0.0000000  0 10 26 21 06 17 10 30 18 23 15 22
  22026116.493   -14353752.816 8 -11168712.16147  22026116.237    22026123.5034
  24738568.277    -3113658.966 8  -1778843.00545  24738567.307    24738584.4884
  20331104.323   -27905196.944 9 -21572214.10648  20331103.780    20331109.7304
  21277127.046   -23458502.416 9 -18262784.64447  21277126.202    21277133.1864
  23747200.432    -5790284.105 8  -4501075.67145  23747199.336    23747206.9234
  23826009.370    -8009658.177 8  -6218824.33845  23826009.347    23826019.6854
  21737622.636   -20500250.475 9 -15707657.37547  21737621.888    21737628.5714
  20568344.595   -22612294.188 9 -17596593.21848  20568343.742    20568349.9984
  21778723.681   -20160430.563 9 -15695407.34147  21778722.694    21778730.8674
  23592894.676    -9453520.273 8  -7350826.62045  23592893.510    23592903.6564
 02  1 25  3  5 30.0000000  0 10 26 21 06 17 10 30 18 23 15 22
  22016630.518   -14403601.604 8 -11207555.25947  22016630.254    22016637.4864
  24721078.677    -3205564.290 7  -1850456.90745  24721077.766    24721094.6244
  20335021.889   -27884609.940 9 -21556172.25948  20335021.348    20335027.2924
  21271046.915   -23490453.577 9 -18287681.56547  21271046.051    21271053.0174
  23766665.545    -5687994.516 8  -4421369.51245  23766664.430    23766671.9644
  23845489.705    -7907288.895 8  -6139056.13445  23845489.651    23845499.9264
  21723138.580   -20576364.266 9 -15766966.69547  21723137.835    21723144.4714
  20571005.131   -22598312.848 9 -17585698.62048  20571004.280    20571010.5144
  21768610.684   -20213574.559 9 -15736818.12347  21768609.675    21768617.7184
  23587659.737    -9481029.628 8  -7372262.34845  23587658.524    23587668.6224
 02  1 25  3  6  0.0000000  0 10 26 21 06 17 10 30 18 23 15 22
  22007242.795   -14452933.767 8 -11245995.79547  22007242.543    22007249.7524
  24703617.770    -3297318.641 7  -1921953.19845  24703616.933    24703633.6364
  20339030.834   -27863542.586 9 -21539756.11248  20339030.312    20339036.2214
  21264996.003   -23522250.852 9 -18312458.57647  21264995.150    21265002.0834
  23786148.772    -5585609.746 8  -4341589.16345  23786147.543    23786155.0964
  23864971.353    -7804912.554 8  -6059282.42245  23864971.284    23864981.6054
  21708724.641   -20652109.418 9 -15825988.76147  21708723.903    21708730.5104
  20573752.053   -22583877.430 9 -17574450.19348  20573751.199    20573757.4274
  21758527.958   -20266559.187 9 -15778104.69747  21758526.936    21758535.0074
  23582525.471    -9508009.656 8  -7393285.61745  23582524.329    23582534.2974
 02  1 25  3  6 30.0000000  0 10 26 21 06 17 10 30 18 23 15 22
  21997953.959   -14501746.445 8 -11284031.54647  21997953.724    21997960.8964
  24686186.017    -3388920.391 7  -1993330.59045  24686185.181    24686201.6584
  20343131.402   -27841993.909 9 -21522964.90948  20343130.874    20343136.7964
  21258974.467   -23553893.931 9 -18337115.43547  21258973.609    21258980.5354
  23805649.671    -5483131.598 8  -4261736.08245  23805648.493    23805655.9344
  23884453.840    -7702531.721 8  -5979505.21345  23884453.827    23884464.1484
  21694381.231   -20727484.155 9 -15884722.20047  21694380.503    21694387.0584
  20576585.202   -22568988.929 9 -17562848.72048  20576584.347    20576590.5694
  21748475.584   -20319383.903 9 -15819266.66847  21748474.595    21748482.6664
  23577492.096    -9534459.572 8  -7413895.82845  23577490.993    23577500.8664
 02  1 25  3  7  0.0000000  0 10 26 21 06 17 10 30 18 23 15 22
  21988764.452   -14550037.322 8 -11321660.70147  21988764.195    21988771.3464
  24668783.395    -3480368.758 7  -2064588.48745  24668782.539    24668799.0824
  20347323.601   -27819963.753 9 -21505798.52848  20347323.071    20347328.9594
  21252982.183   -23585383.165 9 -18361652.41547  21252981.327    21252988.2494
  23825167.874    -5380562.681 8  -4181812.25345  23825166.680    23825174.1664
  23903936.637    -7600149.408 8  -5899726.83645  23903936.529    23903946.9054
  21680108.449   -20802487.500 9 -15943166.23547  21680107.704    21680114.2324
  20579504.238   -22553649.011 9 -17550895.48848  20579503.386    20579509.5964
  21738453.762   -20372048.957 9 -15860304.24147  21738452.723    21738460.6574
  23572559.738    -9560379.056 8  -7434092.70445  23572558.617    23572568.4454
 02  1 25  3  7 30.0000000  0 10 26 21 06 17 10 30 18 23 15 22
  21979674.700   -14597803.755 8 -11358881.19747  21979674.428    21979681.5674
  24651410.424    -3571662.149 7  -2135725.66345  24651409.335    24651426.0854
  20351607.461   -27797451.850 9 -21488256.76348  20351606.926    20351612.8194
  21247019.207   -23616718.501 9 -18386069.47547  21247018.346    21247025.2404
  23844702.917    -5277905.339 8  -4101819.52145  23844701.637    23844709.1964
  23923419.097    -7497768.537 8  -5819949.58845  23923418.961    23923429.3594
  21665906.591   -20877118.352 9 -16001320.01947  21665905.826    21665912.3224
  20582508.951   -22537859.036 9 -17538591.56948  20582508.096    20582514.2994
  21728462.113   -20424554.374 9 -15901217.39547  21728461.110    21728469.0624
  23567728.309    -9585767.732 8  -7453875.96245  23567727.232    23567737.0054
 02  1 25  3  8  0.0000000  0 10 26 21 06 17 10 30 18 23 15 22
  21970685.262   -14645043.141 8 -11395691.00447  21970685.001    21970692.1204
  24634067.182    -3662798.764 7  -2206740.68945  24634066.122    24634082.8344
  20355983.027   -27774457.898 9 -21470339.37448  20355982.497    20355988.3694
  21241085.517   -23647900.089 9 -18410366.73047  21241084.633    21241091.5084
  23864254.369    -5175161.821 8  -4021759.65845  23864253.082    23864260.6834
  23942900.848    -7395391.609 8  -5740175.42945  23942900.694    23942911.0714
  21651775.820   -20951375.415 9 -16059182.53947  21651775.058    21651781.5464
  20585599.002   -22521620.473 9 -17525938.09948  20585598.137    20585604.3254
  21718501.005   -20476899.959 9 -15942006.01147  21718500.006    21718507.9644
  23562998.008    -9610625.260 8  -7473245.34545  23562996.897    23563006.6994
 02  1 25  3  8 30.0000000  0 10 26 21 06 17 10 30 18 23 15 22
  21961796.544   -14691753.213 8 -11432088.37247  21961796.285    21961803.3814
  24616754.069    -3753777.598 7  -2277632.79445  24616752.948    24616769.5064
  20360450.409   -27750981.521 9 -21452046.07248  20360449.884    20360455.7584
  21235181.055   -23678927.927 9 -18434544.18547  21235180.171    21235187.0074
  23883821.800    -5072334.558 8  -3941634.53345  23883820.525    23883828.0114
  23962381.188    -7293021.878 8  -5660406.86645  23962381.019    23962391.4224
  21637716.473   -21025257.398 9 -16116752.79347  21637715.711    21637722.1654
  20588774.134   -22504934.819 9 -17512936.24748  20588773.279    20588779.4514
  21708570.302   -20529085.852 9 -15982670.19847  21708569.271    21708577.1534
  23558368.841    -9634951.304 8  -7492200.58245  23558367.722    23558377.4844
 02  1 25  3  9  0.0000000  0 10 26 21 06 17 10 30 18 23 15 22
  21953009.098   -14737931.242 8 -11468071.15447  21953008.848    21953015.8974
  24599471.339    -3844597.356 7  -2348400.96445  24599470.301    24599486.6054
  20365009.706   -27727022.343 9 -21433376.55648  20365009.178    20365015.0304
  21229305.769   -23709802.157 9 -18458601.94047  21229304.908    21229311.7354
  23903404.666    -4969425.940 8  -3861446.00745  23903403.418    23903410.9604
  23981859.626    -7190661.833 8  -5580645.85345  23981859.484    23981869.9654
  21623728.751   -21098762.793 9 -16174029.59447  21623727.985    21623734.4214
  20592034.104   -22487803.433 9 -17499587.06948  20592033.242    20592039.3964
  21698669.890   -20581112.052 9 -16023209.93447  21698668.894    21698676.7154
  23553840.861    -9658745.523 8  -7510741.42445  23553839.696    23553849.5474
 02  1 25  3  9 30.0000000  0 10 26 21 06 17 10 30 18 23 15 22
  21944323.460   -14783574.405 8 -11503637.15447  21944323.161    21944330.1934
  24582219.032    -3935256.709 8  -2419044.14745  24582218.075    24582234.2064
  20369660.953   -27702579.824 9 -21414330.41848  20369660.428    20369666.2614
  21223459.872   -23740522.247 9 -18482539.58947  21223459.005    21223465.8084
  23923002.626    -4866437.773 8  -3781195.50445  23923001.540    23923008.9144
  24001335.832    -7088313.804 8  -5500894.20645  24001335.771    24001346.1344
  21609812.972   -21171890.227 9 -16231011.88647  21609812.219    21609818.6074
  20595378.690   -22470227.423 9 -17485891.43048  20595377.817    20595383.9674
  21688800.033   -20632978.106 9 -16063624.89347  21688799.047    21688806.8394
  23549414.229    -9682007.158 8  -7528867.25545  23549413.031    23549422.8964
 02  1 25  3 10  0.0000000  0 10 26 21 06 17 10 30 18 23 15 22
  21935739.891   -14828680.789 8 -11538784.88647  21935739.634    21935746.6114
  24564997.548    -4025754.250 8  -2489561.26945  24564996.587    24565012.5824
  20374404.103   -27677654.223 9 -21394907.84448  20374403.564    20374409.3994
  21217643.165   -23771088.857 9 -18506357.64247  21217642.302    21217649.0924
  23942615.260    -4763372.639 8  -3700885.02145  23942614.174    23942621.5694
  24020809.173    -6985981.139 8  -5421154.51045  24020809.030    24020819.4784
  21595969.316   -21244638.634 9 -16287698.82947  21595968.552    21595974.9144
  20598807.496   -22452208.778 9 -17471850.87848  20598806.613    20598812.7584
  21678960.479   -20684684.545 9 -16103915.46247  21678959.479    21678967.3254
  23545088.881    -9704736.401 8  -7546578.23645  23545087.695    23545097.5794
 02  1 25  3 10 30.0000000  0 10 26 21 06 17 10 30 18 23 15 22
  21927258.999   -14873247.627 8 -11573512.19847  21927258.765    21927265.7194
  24547807.239    -4116088.582 7  -2559951.20945  24547806.188    24547821.9954
  20379239.330   -27652244.979 9 -21375108.41148  20379238.797    20379244.6144
  21211855.740   -23801501.696 9 -18530055.87647  21211854.869    21211861.6354
  23962242.102    -4660232.668 8  -3620516.22445  23962241.006    23962248.4704
  24040279.031    -6883666.363 8  -5341428.75945  24040278.992    24040289.3044
  21582197.995   -21317006.837 9 -16344089.51547  21582197.256    21582203.5714
  20602320.293   -22433748.755 9 -17457466.39748  20602319.411    20602325.5434
  21669151.393   -20736230.945 9 -16144081.34047  21669150.409    21669158.1614
  23540864.942    -9726932.624 8  -7563873.88746  23540863.809    23540873.6864
 02  1 25  3 11  0.0000000  0 10 26 21 06 17 10 30 18 23 15 22
  21918881.260   -14917272.475 8 -11607817.17347  21918881.045    21918887.9604
  24530648.025    -4206258.457 8  -2630213.01045  24530647.137    24530662.8374
  20384166.587   -27626351.858 9 -21354931.93148  20384166.065    20384171.8804
  21206097.530   -23831760.867 9 -18553634.37247  21206096.665    21206103.4154
  23981882.851    -4557019.978 8  -3540090.75145  23981881.768    23981889.2394
  24059744.980    -6781372.219 8  -5261719.09245  24059744.995    24059755.3924
  21568499.288   -21388993.508 9 -16400182.89747  21568498.550    21568504.8364
  20605916.796   -22414848.677 9 -17442739.01448  20605915.921    20605922.0454
  21659372.863   -20787617.159 9 -16184122.39347  21659371.829    21659379.5664
  23536742.565    -9748595.578 8  -7580753.98246  23536741.433    23536751.2744
 02  1 25  3 11 30.0000000  0 10 26 21 06 17 10 30 18 23 15 22
  21910606.877   -14960754.380 8 -11641699.07947  21910606.673    21910613.5554
  24513520.201    -4296264.285 8  -2700346.99345  24513519.285    24513534.8254
  20389185.679   -27599976.207 9 -21334379.45148  20389185.151    20389190.9564
  21200368.381   -23861867.614 9 -18577094.09847  21200367.501    21200374.2504
  24001536.735    -4453738.322 8  -3459611.56145  24001535.643    24001543.1334
  24079206.281    -6679102.679 8  -5182028.59645  24079206.232    24079216.6494
  21554873.149   -21460598.913 9 -16455979.18247  21554872.413    21554878.6634
  20609596.531   -22395511.449 9 -17427670.99448  20609595.654    20609601.7764
  21649624.420   -20838844.642 9 -16224039.75147  21649623.378    21649631.1804
  23532721.462    -9769726.371 8  -7597219.43146  23532720.267    23532730.0604
 02  1 25  3 12  0.0000000  0 10 26 21 06 17 10 30 18 23 15 22
  21902436.591   -15003689.242 8 -11675154.71147  21902436.339    21902443.1904
  24496424.202    -4386102.716 8  -2770350.52745  24496423.319    24496438.6934
  20394296.997   -27573115.931 9 -21313449.34548  20394296.472    20394302.2594
  21194668.488   -23891820.313 9 -18600433.78947  21194667.627    21194674.3544
  24021203.629    -4350388.372 8  -3379079.14145  24021202.487    24021210.0324
  24098662.620    -6576858.958 8  -5102358.22445  24098662.633    24098673.0624
  21541320.112   -21531820.194 9 -16511476.15447  21541319.365    21541325.5904
  20613359.450   -22375736.876 9 -17412262.18748  20613358.569    20613364.6854
  21639906.549   -20889911.735 9 -16263832.14947  21639905.535    21639913.2474
  23528801.859    -9790323.220 8  -7613268.79845  23528800.711    23528810.6184
 02  1 25  3 12 30.0000000  0 10 26 21 06 17 10 30 18 23 15 22
  21894370.795   -15046074.843 8 -11708182.36247  21894370.543    21894377.3524
  24479360.318    -4475772.463 8  -2840222.62745  24479359.383    24479374.6134
  20399500.596   -27545770.856 9 -21292141.47348  20399500.060    20399505.8394
  21188997.906   -23921619.079 9 -18623653.53647  21188997.053    21189003.7694
  24040883.116    -4246972.242 8  -3298495.15545  24040881.884    24040889.5514
  24118113.489    -6474643.979 8  -5022710.24645  24118113.497    24118123.9834
  21527840.414   -21602656.019 9 -16566672.77747  21527839.657    21527845.8424
  20617205.327   -22355526.559 9 -17396513.84148  20617204.447    20617210.5634
  21630219.271   -20940818.201 9 -16303499.38547  21630218.242    21630225.8994
  23524983.957    -9810385.865 8  -7628901.90746  23524982.823    23524992.7494
 02  1 25  3 13  0.0000000  0 10 26 21 06 17 10 30 18 23 15 22
  21886410.003   -15087908.807 8 -11740780.15447  21886409.724    21886416.5194
  24462328.706    -4565272.450 8  -2909962.45445  24462327.764    24462342.8584
  20404796.406   -27517940.930 9 -21270455.79048  20404795.874    20404801.6604
  21183356.590   -23951264.019 9 -18646753.41847  21183355.738    21183362.4444
  24060574.690    -4143492.214 8  -3217861.38245  24060573.511    24060581.1414
  24137558.461    -6372460.287 8  -4943086.64245  24137558.436    24137568.9354
  21514434.197   -21673105.692 9 -16621568.50147  21514433.448    21514439.5974
  20621133.745   -22334882.282 9 -17380427.34148  20621132.857    20621138.9594
  21620562.490   -20991564.192 9 -16343041.56147  21620561.477    21620569.1774
  23521267.711    -9829914.235 8  -7644118.70745  23521266.516    23521276.5084
 02  1 25  3 13 30.0000000  0 10 26 21 06 17 10 30 18 23 15 22
  21878554.572   -15129188.869 8 -11772946.33847  21878554.292    21878561.0694
  24445329.649    -4654601.213 8  -2979568.88045  24445328.712    24445343.6854
  20410184.555   -27489626.078 9 -21248392.24948  20410184.004    20410189.7974
  21177744.575   -23980755.025 9 -18669733.35947  21177743.713    21177750.3994
  24080277.991    -4039950.390 8  -3137179.45745  24080276.781    24080284.4494
  24156996.934    -6270310.694 8  -4863489.62045  24156996.919    24157007.4504
  21501101.698   -21743167.865 9 -16676162.28047  21501100.948    21501107.1034
  20625144.472   -22313805.565 9 -17364003.88148  20625143.590    20625149.6834
  21610936.289   -21042149.765 9 -16382458.76047  21610935.291    21610942.9084
  23517653.113    -9848908.276 8  -7658919.14845  23517652.028    23517661.9304
 02  1 25  3 14  0.0000000  0 10 26 21 06 17 10 30 18 23 15 22
  21870804.943   -15169913.094 8 -11804679.39547  21870804.677    21870811.4144
  24428363.459    -4743757.831 8  -3049041.14645  24428362.437    24428377.2834
  20415664.902   -27460826.464 9 -21225950.96448  20415664.370    20415670.1464
  21172161.814   -24010092.437 9 -18692593.60847  21172160.968    21172167.6174
  24099992.524    -3936349.565 7  -3056451.54145  24099991.303    24099999.0354
  24176428.340    -6168198.317 8  -4783921.57645  24176428.397    24176438.8394
  21487843.077   -21812841.742 9 -16730453.48647  21487842.327    21487848.4634
  20629237.133   -22292298.319 9 -17347244.93548  20629236.247    20629242.3244
  21601340.536   -21092575.065 9 -16421751.06247  21601339.504    21601347.0804
  23514140.212    -9867368.127 8  -7673303.34345  23514139.110    23514148.9624
 02  1 25  3 14 30.0000000  0 10 26 21 06 17 10 30 18 23 15 22
  21863161.594   -15210078.930 8 -11835977.35347  21863161.319    21863168.0114
  24411430.132    -4832741.015 8  -3118378.28245  24411429.120    24411443.9054
  20421237.616   -27431541.579 9 -21203131.54548  20421237.082    20421242.8624
  21166608.301   -24039276.021 9 -18715333.99247  21166607.453    21166614.0964
  24119717.840    -3832691.587 8  -2975679.10845  24119716.768    24119724.4664
  24195852.248    -6066125.411 8  -4704384.30045  24195852.180    24195862.7734
  21474658.611   -21882126.045 9 -16784441.13547  21474657.874    21474663.9734
  20633411.528   -22270361.653 9 -17330151.38148  20633410.647    20633416.6864
  21591775.446   -21142839.488 9 -16460918.01047  21591774.426    21591782.0154
  23510729.042    -9885293.410 8  -7687270.98245  23510727.971    23510737.7904
 02  1 25  3 15  0.0000000  0 10 26 21 06 17 10 30 18 23 15 22
  21855624.864   -15249684.261 8 -11866838.55447  21855624.596    21855631.2134
  24394530.109    -4921549.266 8  -3187579.13145  24394529.269    24394543.8574
  20426902.663   -27401771.488 9 -21179934.04748  20426902.120    20426907.8884
  21161084.111   -24068305.710 9 -18737954.46247  21161083.247    21161089.8584
  24139453.714    -3728978.525 7  -2894863.76645  24139452.705    24139460.3824
  24215267.981    -5964094.788 8  -4624879.96545  24215267.929    24215278.5954
  21461548.523   -21951019.562 9 -16838124.28247  21461547.790    21461553.8594
  20637667.285   -22247997.400 9 -17312724.64448  20637666.401    20637672.4264
  21582240.905   -21192943.194 9 -16499959.72947  21582239.887    21582247.4244
  23507419.608    -9902684.059 8  -7700822.02045  23507418.443    23507428.3594
 02  1 25  3 15 30.0000000  0 10 26 21 06 17 10 30 18 23 15 22
  21848195.211   -15288727.046 8 -11897261.40047  21848194.920    21848201.5434
  24377663.708    -5010181.840 8  -3256643.10545  24377662.767    24377677.1234
  20432660.000   -27371516.350 9 -21156358.58548  20432659.454    20432665.2294
  21155589.111   -24097181.889 9 -18760455.31147  21155588.251    21155594.8504
  24159199.666    -3625213.001 7  -2814007.54245  24159198.735    24159206.3914
  24234675.180    -5862109.518 8  -4545410.98945  24234675.104    24234685.8304
  21448512.899   -22019521.658 9 -16891502.42747  21448512.164    21448518.1964
  20642004.015   -22225207.420 9 -17294966.16348  20642003.139    20642009.1554
  21572736.861   -21242886.527 9 -16538876.48547  21572735.866    21572743.3284
  23504211.822    -9919540.415 8  -7713956.72145  23504210.674    23504220.5894
 02  1 25  3 16  0.0000000  0 10 26 21 06 17 10 30 18 23 15 22
  21840873.019   -15327205.072 8 -11927244.18847  21840872.748    21840879.3454
  24360830.794    -5098637.678 8  -3325569.37645  24360829.909    24360844.2034
  20438509.678   -27340776.001 9 -21132405.04048  20438509.135    20438514.9014
  21150123.355   -24125904.284 9 -18782836.33047  21150122.505    21150129.0764
  24178955.239    -3521396.899 7  -2733111.89145  24178954.198    24178961.9664
  24254073.274    -5760172.128 8  -4465979.31145  24254073.204    24254083.9764
  21435552.076   -22087630.911 9 -16944574.45747  21435551.327    21435557.3424
  20646421.486   -22201993.148 9 -17276877.07148  20646420.621    20646426.6314
  21563263.487   -21292669.114 9 -16577667.99047  21563262.474    21563269.8994
  23501105.746    -9935862.093 8  -7726674.78745  23501104.664    23501114.5684
 02  1 25  3 16 30.0000000  0 10 26 21 06 17 10 30 18 23 15 22
  21833658.785   -15365115.796 8 -11956784.91647  21833658.503    21833665.0804
  24344031.798    -5186915.491 8  -3394356.96045  24344030.859    24344045.0714
  20444451.693   -27309550.377 9 -21108073.36048  20444451.151    20444456.9134
  21144686.902   -24154472.740 9 -18805097.39647  21144686.038    21144692.5904
  24198720.018    -3417532.265 7  -2652178.46145  24198718.906    24198726.7634
  24273461.785    -5658285.180 8  -4386586.93745  24273461.762    24273472.4644
  21422666.176   -22155346.212 9 -16997339.51647  21422665.417    21422671.4174
  20650919.457   -22178355.908 9 -17258458.39448  20650918.577    20650924.5864
  21553820.706   -21342290.620 9 -16616333.97547  21553819.691    21553827.1314
  23498101.476    -9951648.925 8  -7738976.10745  23498100.423    23498110.3004
 02  1 25  3 17  0.0000000  0 10 26 21 06 17 10 30 18 23 15 22
  21826552.856   -15402457.420 8 -11985882.19347  21826552.562    21826559.0794
  24327266.829    -5275013.924 7  -3463004.76245  24327266.034    24327280.0404
  20450486.037   -27277839.532 9 -21083363.58448  20450485.493    20450491.2464
  21139279.813   -24182887.166 9 -18827238.43847  21139278.932    21139285.4354
  24218493.620    -3313621.291 7  -2571208.84845  24218492.377    24218500.3484
  24292840.203    -5556451.296 8  -4307235.91145  24292840.137    24292850.9014
  21409855.440   -22222666.753 9 -17049796.97247  21409854.696    21409860.6434
  20655497.589   -22154297.679 9 -17239711.67248  20655496.697    20655502.6884
  21544408.616   -21391751.160 9 -16654874.55647  21544407.607    21544414.9414
  23495199.036    -9966901.272 8  -7750860.93945  23495197.903    23495207.7504
 02  1 25  3 17 30.0000000  0 10 26 21 06 17 10 30 18 23 15 22
  21819555.609   -15439227.866 8 -12014534.39847  21819555.306    21819561.7954
  24310536.278    -5362931.681 7  -3531511.78045  24310535.378    24310549.4664
  20456612.695   -27245643.591 9 -21058275.80948  20456612.162    20456617.8964
  21133901.914   -24211147.865 9 -18849259.68847  21133901.035    21133907.5464
  24238275.535    -3209666.495 7  -2490205.11845  24238274.482    24238282.2494
  24312207.989    -5454673.443 8  -4227928.54745  24312207.839    24312218.6334
  21397119.935   -22289591.799 9 -17101946.24247  21397119.193    21397125.1244
  20660155.439   -22129820.216 9 -17220638.27348  20660154.553    20660160.5384
  21535027.092   -21441050.707 9 -16693289.67247  21535026.092    21535033.4254
  23492398.231    -9981619.282 8  -7762329.39445  23492397.102    23492406.9224
 02  1 25  3 18  0.0000000  0 10 26 21 06 17 10 30 18 23 15 22
  21812667.515   -15475424.667 8 -12042739.60347  21812667.215    21812673.6754
  24293840.427    -5450667.279 7  -3599876.86945  24293839.695    24293853.5424
  20462831.745   -27212962.280 9 -21032809.82948  20462831.197    20462836.9214
  21128553.380   -24239254.321 9 -18871160.75347  21128552.508    21128558.9954
  24258065.559    -3105669.402 7  -2409168.43645  24258064.462    24258072.1164
  24331564.603    -5352953.906 8  -4148666.62945  24331564.379    24331575.2274
  21384460.034   -22356119.602 9 -17153785.97347  21384459.297    21384465.2024
  20664892.856   -22104924.782 9 -17201239.18248  20664891.973    20664897.9314
  21525676.273   -21490189.062 9 -16731579.18347  21525675.305    21525682.6054
  23489699.147    -9995802.629 8  -7773381.24145  23489697.991    23489707.8334
 02  1 25  3 18 30.0000000  0 10 26 21 06 17 10 30 18 23 15 22
  21805888.910   -15511046.207 8 -12070496.55947  21805888.588    21805895.0114
  24277179.376    -5538219.970 8  -3668099.44645  24277178.719    24277192.3934
  20469143.069   -27179795.894 9 -21006965.86348  20469142.528    20469148.2504
  21123234.113   -24267206.891 9 -18892941.90847  21123233.260    21123239.7214
  24277863.149    -3001632.546 7  -2328100.73645  24277862.056    24277869.7904
  24350909.549    -5251295.531 8  -4069452.38245  24350909.387    24350920.2824
  21371875.808   -22422249.723 9 -17205315.82847  21371875.059    21371880.9404
  20669709.406   -22079613.381 9 -17181515.96548  20669708.519    20669714.4574
  21516356.192   -21539166.218 9 -16769743.10547  21516355.178    21516362.3744
  23487101.784   -10009451.691 8  -7784016.75445  23487100.549    23487110.3924
 02  1 25  3 19  0.0000000  0 10 26 21 06 17 10 30 18 23 15 22
  21799220.223   -15546089.992 8 -12097803.31547  21799219.924    21799226.3244
  24260553.501    -5625588.207 7  -3736178.28045  24260552.770    24260566.3614
  20475546.741   -27146144.220 9 -20980743.75548  20475546.194    20475551.9064
  21117944.255   -24295005.079 9 -18914602.76847  21117943.392    21117949.8044
  24297668.021    -2897557.387 8  -2247003.21245  24297666.855    24297674.6404
  24370242.450    -5149700.855 7  -3990287.74945  24370242.292    24370253.1604
  21359367.537   -22487980.669 9 -17256534.63347  21359366.798    21359372.6414
  20674604.851   -22053887.431 9 -17161469.72148  20674603.960    20674609.8874
  21507066.774   -21587981.922 9 -16807781.20547  21507065.768    21507072.9684
  23484605.988   -10022566.281 8  -7794235.80845  23484604.747    23484614.6524
 02  1 25  3 19 30.0000000  0 10 26 21 06 17 10 30 18 23 15 22
  21792661.777   -15580554.398 8 -12124658.60547  21792661.484    21792667.8394
  24243962.908    -5712771.120 8  -3804112.69745  24243962.235    24243975.6874
  20482042.699   -27112007.691 9 -20954143.83948  20482042.157    20482047.8524
  21112683.706   -24322649.235 9 -18936143.60647  21112682.844    21112689.2264
  24317479.731    -2793446.638 8  -2165877.95045  24317478.570    24317486.2064
  24389562.689    -5048172.697 8  -3911174.95445  24389562.537    24389573.3584
  21346935.346   -22553311.946 9 -17307442.01347  21346934.585    21346940.4124
  20679578.821   -22027748.913 9 -17141102.00148  20679577.936    20679583.8604
  21497808.093   -21636636.535 9 -16845693.79047  21497807.068    21497814.2014
  23482211.701   -10035146.932 8  -7804038.80045  23482210.554    23482220.4454
 02  1 25  3 20  0.0000000  0 10 26 21 06 17 10 30 18 23 15 22
  21786213.967   -15614437.442 8 -12151060.89147  21786213.678    21786220.0174
  24227407.723    -5799767.833 8  -3871902.00845  24227407.045    24227420.4724
  20488630.906   -27077386.306 9 -20927166.11748  20488630.366    20488636.0584
  21107452.480   -24350139.228 9 -18957564.32147  21107451.615    21107457.9864
  24337297.875    -2689302.210 8  -2084726.44845  24337296.650    24337304.3304
  24408869.726    -4946713.572 7  -3832115.96445  24408869.582    24408880.3694
  21334579.347   -22618242.604 9 -17358037.22447  21334578.589    21334584.4054
  20684630.944   -22001199.552 9 -17120414.14548  20684630.049    20684635.9754
  21488580.068   -21685129.650 9 -16883480.53247  21488579.037    21488586.1304
  23479919.283   -10047193.683 8  -7813425.76345  23479918.031    23479927.9414
 02  1 25  3 20 30.0000000  0 10 26 21 06 17 10 30 18 23 15 22
  21779877.200   -15647736.908 8 -12177008.43947  21779876.915    21779883.2314
  24210888.356    -5886576.700 8  -3939544.92845  24210887.552    24210901.0694
  20495311.406   -27042279.916 9 -20899810.46248  20495310.882    20495316.5714
  21102250.616   -24377474.874 9 -18978864.76447  21102249.757    21102256.0934
  24357121.953    -2585126.004 8  -2003550.18445  24357120.776    24357128.4284
  24428163.122    -4845326.071 7  -3753112.80845  24428162.935    24428173.8194
  21322299.820   -22682771.374 9 -17408319.27947  21322299.070    21322304.8694
  20689760.985   -21974240.749 9 -17099407.24548  20689760.097    20689766.0154
  21479382.904   -21733460.814 9 -16921141.07547  21479381.873    21479388.9414
  23477728.372   -10058706.492 8  -7822396.68445  23477727.118    23477737.0034
 02  1 25  3 21  0.0000000  0 10 26 21 06 17 10 30 18 23 15 22
  21773651.893   -15680450.888 8 -12202499.77047  21773651.585    21773657.8934
  24194404.944    -5973196.668 8  -4007040.66745  24194404.053    24194417.5624
  20502084.142   -27006688.812 9 -20872077.11148  20502083.613    20502089.2984
  21097078.171   -24404656.168 9 -19000044.93547  21097077.307    21097083.6314
  24376951.713    -2480920.401 8  -1922351.01945  24376950.508    24376958.1294
  24447442.420    -4744012.860 7  -3674167.52145  24447442.307    24447453.0114
  21310096.937   -22746897.525 9 -17458287.60947  21310096.187    21310101.9664
  20694968.603   -21946874.312 9 -17078082.71048  20694967.722    20694973.6234
  21470216.479   -21781630.179 9 -16958675.53747  21470215.429    21470222.4974
  23475638.926   -10069685.737 7  -7830951.82945  23475637.744    23475647.7004
 02  1 25  3 21 30.0000000  0 10 26 21 06 17 10 30 18 23 15 22
  21767538.423   -15712576.990 8 -12227533.00347  21767538.127    21767544.4234
  24177957.621    -6059626.599 8  -4074388.31145  24177956.799    24177970.0934
  20508949.171   -26970612.749 9 -20843965.87248  20508948.640    20508954.3234
  21091935.195   -24431682.528 9 -19021104.38447  21091934.318    21091940.6114
  24396786.732    -2376686.835 8  -1841130.06045  24396785.576    24396793.1444
  24466707.210    -4642776.129 7  -3595281.81845  24466707.031    24466717.7084
  21297970.929   -22810619.769 9 -17507941.21347  21297970.182    21297975.9124
  20700253.553   -21919101.487 9 -17056441.51048  20700252.673    20700258.5874
  21461080.909   -21829637.308 9 -16996083.59147  21461079.914    21461086.8994
  23473651.073   -10080131.138 8  -7839090.99945  23473649.950    23473659.8514
 02  1 25  3 22  0.0000000  0 10 26 21 06 17 10 30 18 23 15 22
  21761536.964   -15744114.361 8 -12252107.48847  21761536.692    21761542.9544
  24161546.580    -6145865.846 8  -4141587.35245  24161545.711    24161559.0474
  20515906.315   -26934052.587 9 -20815477.41348  20515905.774    20515911.4504
  21086821.524   -24458554.655 9 -19042043.65347  21086820.648    21086826.9404
  24416626.589    -2272427.857 8  -1759889.31945  24416625.482    24416633.0084
  24485956.716    -4541619.231 7  -3516458.36845  24485956.555    24485967.2714
  21285921.835   -22873937.817 9 -17557279.85747  21285921.074    21285926.7964
  20705615.325   -21890924.903 9 -17034485.69748  20705614.451    20705620.3424
  21451976.215   -21877482.729 9 -17033365.63347  21451975.167    21451982.1384
  23471764.657   -10090043.855 8  -7846815.08945  23471763.486    23471773.4404
 02  1 25  3 22 30.0000000  0 10 26 21 06 17 10 30 18 23 15 22
  21755648.105   -15775060.312 8 -12276221.12747  21755647.809    21755654.0384
  24145172.139    -6231912.230 8  -4208636.10445  24145171.356    24145184.5854
  20522955.676   -26897007.849 9 -20786611.35848  20522955.154    20522960.8174
  21081737.414   -24485271.637 9 -19062862.03247  21081736.538    21081742.8074
  24436470.943    -2168145.092 8  -1678630.02545  24436469.804    24436477.4284
  24505190.822    -4440544.094 7  -3437698.58345  24505190.560    24505201.2064
  21273949.915   -22936850.324 9 -17606302.49447  21273949.152    21273954.8564
  20711053.779   -21862345.646 9 -17012216.11248  20711052.887    20711058.7804
  21442902.371   -21925165.557 9 -17070520.97347  21442901.338    21442908.3354
  23469979.770   -10099423.300 8  -7854123.64545  23469978.542    23469988.5284
 02  1 25  3 23  0.0000000  0 10 26 21 06 17 10 30 18 23 15 22
  21749872.086   -15805413.158 8 -12299872.60347  21749871.797    21749877.9944
  24128834.647    -6317765.163 8  -4275534.10745  24128833.827    24128846.9104
  20530097.148   -26859478.981 9 -20757368.06248  20530096.620    20530102.2944
  21076682.777   -24511833.699 9 -19083559.69447  21076681.907    21076688.1734
  24456319.381    -2063840.755 8  -1597353.94345  24456318.293    24456325.9214
  24524408.732    -4339553.619 7  -3359004.78345  24524408.565    24524419.1294
  21262055.284   -22999356.611 9 -17655008.59747  21262054.516    21262060.1894
  20716568.467   -21833365.625 9 -16989634.24848  20716567.579    20716573.4584
  21433859.469   -21972685.870 9 -17107549.69647  21433858.449    21433865.3604
  23468296.174   -10108270.062 8  -7861017.12845  23468294.968    23468304.9574
 02  1 25  3 23 30.0000000  0 10 26 21 06 17 10 30 18 23 15 22
  21744209.224   -15835171.180 8 -12323060.58047  21744208.967    21744215.1424
  24112534.008    -6403424.191 8  -4342281.00345  24112533.181    24112546.2004
  20537330.706   -26821466.276 9 -20727747.75148  20537330.172    20537335.8524
  21071657.656   -24538240.807 9 -19104136.61747  21071656.766    21071663.0184
  24476171.602    -1959516.677 7  -1516062.46945  24476170.460    24476178.0834
  24543610.009    -4238650.418 8  -3280378.97845  24543609.752    24543620.4284
  21250238.128   -23061455.741 9 -17703397.43847  21250237.357    21250243.0314
  20722159.070   -21803986.556 9 -16966741.44248  20722158.188    20722164.0514
  21424847.430   -22020043.734 9 -17144451.82747  21424846.428    21424853.4044
  23466713.904   -10116584.676 8  -7867495.94445  23466712.633    23466722.6134
 02  1 25  3 24  0.0000000  0 10 26 21 06 17 10 30 18 23 15 22
  21738659.924   -15864332.531 8 -12345783.62247  21738659.659    21738665.8164
  24096270.626    -6488887.409 8  -4408875.28945  24096269.820    24096282.7684
  20544656.292   -26782969.968 9 -20697750.60848  20544655.761    20544661.4464
  21066662.029   -24564492.653 9 -19124592.55647  21066661.144    21066667.3884
  24496027.221    -1855174.768 7  -1434757.10745  24496026.064    24496033.7594
  24562794.277    -4137836.718 8  -3201822.92245  24562793.962    24562804.7304
  21238498.686   -23123146.677 9 -17751468.20747  21238497.924    21238503.5624
  20727825.315   -21774210.206 9 -16943539.06548  20727824.456    20727830.2964
  21415866.470   -22067238.690 9 -17181227.03347  21415865.465    21415872.3874
  23465232.889   -10124367.041 8  -7873560.03245  23465231.698    23465241.6384
 02  1 25  3 24 30.0000000  0 10 26 21 06 17 10 30 18 23 15 22
  21733224.527   -15892895.345 8 -12368040.27247  21733224.262    21733230.4114
  24080044.710    -6574153.548 8  -4475316.02645  24080043.923    24080056.8074
  20552073.881   -26743990.218 9 -20667376.76148  20552073.336    20552079.0164
  21061695.976   -24590589.170 9 -19144927.46247  21061695.082    21061701.3364
  24515885.746    -1750817.339 7  -1353439.68145  24515884.597    24515892.3634
  24581960.988    -4037115.436 8  -3123338.89145  24581960.793    24581971.6224
  21226837.037   -23184428.578 9 -17799220.24247  21226836.277    21226841.8874
  20733566.802   -21744038.293 9 -16920028.45948  20733565.941    20733571.7734
  21406916.447   -22114270.734 9 -17217875.28847  21406915.441    21406922.3264
  23463852.995   -10131617.759 8  -7879209.85445  23463851.834    23463861.7334
 02  1 25  3 25  0.0000000  0 10 26 21 06 17 10 30 18 23 15 22
  21727903.382   -15920858.012 8 -12389829.27847  21727903.096    21727909.2194
  24063856.484    -6659221.680 8  -4541602.46945  24063855.700    24063868.5064
  20559583.385   -26704527.332 9 -20636626.44448  20559582.847    20559588.5344
  21056759.568   -24616530.091 9 -19165141.12847  21056758.649    21056764.8974
  24535746.716    -1646446.360 7  -1272111.70145  24535745.686    24535753.4304
  24601109.594    -3936488.827 8  -3044928.62445  24601109.456    24601120.2304
  21215253.383   -23245300.874 9 -17846653.10847  21215252.626    21215258.1874
  20739383.275   -21713472.590 9 -16896211.00448  20739382.394    20739388.2074
  21397997.559   -22161139.538 9 -17254396.34947  21397996.595    21398003.4454
  23462574.244   -10138337.221 8  -7884445.70345  23462573.089    23462582.8774
